GEFSNE_prec_meanprecacc_012.txt.gz
Total_Precipitation_Accumulation
0.00 0.00 0.00 0.00 0.00 0.00 0.00 0.00 0.00 0.00 0.00 0.00 0.00 0.00 0.00 0.00 0.00 0.00 0.00 0.00 0.00 0.01 0.01 0.02 0.02 0.02 0.02 0.03 0.04 0.05 0.05 0.06 0.07 0.08 0.08 0.08 0.08 0.08
0.00 0.00 0.00 0.00 0.00 0.00 0.00 0.00 0.00 0.00 0.00 0.00 0.00 0.00 0.00 0.00 0.00 0.00 0.00 0.00 0.01 0.01 0.02 0.02 0.02 0.02 0.02 0.03 0.04 0.06 0.08 0.09 0.11 0.12 0.13 0.13 0.14 0.14
0.00 0.00 0.00 0.00 0.00 0.00 0.00 0.00 0.00 0.00 0.00 0.00 0.00 0.00 0.00 0.00 0.00 0.00 0.00 0.01 0.01 0.01 0.01 0.01 0.01 0.02 0.04 0.06 0.07 0.08 0.09 0.09 0.10 0.12 0.14 0.16 0.16 0.16
0.00 0.00 0.00 0.00 0.00 0.00 0.00 0.00 0.00 0.00 0.00 0.01 0.00 0.00 0.00 0.00 0.00 0.00 0.00 0.00 0.00 0.00 0.00 0.01 0.02 0.03 0.04 0.05 0.06 0.08 0.10 0.12 0.13 0.13 0.13 0.13 0.14 0.15
0.00 0.00 0.00 0.00 0.00 0.00 0.00 0.00 0.00 0.00 0.01 0.01 0.00 0.00 0.00 0.00 0.01 0.00 0.00 0.00 0.00 0.00 0.00 0.00 0.01 0.03 0.04 0.06 0.07 0.08 0.08 0.07 0.06 0.05 0.06 0.06 0.06 0.07
0.00 0.00 0.00 0.00 0.00 0.00 0.00 0.00 0.00 0.00 0.00 0.02 0.03 0.02 0.01 0.01 0.00 0.00 0.00 0.00 0.00 0.00 0.00 0.00 0.01 0.01 0.02 0.02 0.02 0.02 0.02 0.02 0.03 0.03 0.04 0.04 0.05 0.05
0.00 0.00 0.00 0.00 0.00 0.00 0.01 0.01 0.01 0.02 0.05 0.08 0.06 0.03 0.01 0.00 0.00 0.00 0.01 0.01 0.00 0.00 0.00 0.00 0.00 0.00 0.00 0.00 0.00 0.01 0.01 0.02 0.04 0.06 0.08 0.09 0.10 0.11
0.00 0.00 0.00 0.00 0.00 0.00 0.01 0.01 0.05 0.10 0.11 0.09 0.05 0.02 0.00 0.00 0.01 0.02 0.03 0.03 0.02 0.00 0.00 0.00 0.00 0.00 0.00 0.00 0.00 0.01 0.02 0.04 0.05 0.07 0.08 0.08 0.09 0.09
0.00 0.00 0.00 0.00 0.00 0.00 0.00 0.04 0.07 0.06 0.05 0.03 0.01 0.00 0.01 0.02 0.04 0.05 0.03 0.03 0.03 0.01 0.01 0.01 0.00 0.00 0.00 0.00 0.00 0.01 0.01 0.03 0.04 0.06 0.07 0.08 0.08 0.07
0.00 0.00 0.00 0.00 0.00 0.02 0.06 0.09 0.04 0.01 0.00 0.00 0.00 0.01 0.02 0.02 0.02 0.03 0.03 0.04 0.02 0.00 0.00 0.01 0.00 0.00 0.00 0.00 0.00 0.00 0.01 0.02 0.04 0.05 0.07 0.08 0.10 0.11
0.00 0.00 0.00 0.01 0.02 0.06 0.07 0.04 0.01 0.00 0.00 0.01 0.02 0.01 0.01 0.01 0.01 0.04 0.07 0.06 0.03 0.00 0.00 0.00 0.00 0.00 0.00 0.00 0.00 0.00 0.00 0.01 0.02 0.03 0.04 0.05 0.06 0.07
0.00 0.00 0.00 0.01 0.04 0.06 0.03 0.01 0.00 0.00 0.01 0.01 0.00 0.00 0.00 0.00 0.00 0.02 0.08 0.15 0.09 0.04 0.00 0.02 0.03 0.04 0.06 0.01 0.00 0.00 0.00 0.00 0.00 0.01 0.02 0.03 0.05 0.06
0.00 0.00 0.00 0.02 0.04 0.03 0.01 0.00 0.01 0.03 0.02 0.00 0.00 0.00 0.00 0.00 0.00 0.00 0.03 0.16 0.21 0.12 0.02 0.10 0.12 0.06 0.08 0.03 0.00 0.00 0.00 0.00 0.01 0.01 0.01 0.03 0.06 0.13
0.01 0.00 0.01 0.02 0.02 0.01 0.00 0.00 0.02 0.02 0.00 0.00 0.00 0.00 0.00 0.00 0.00 0.00 0.01 0.03 0.10 0.15 0.08 0.13 0.19 0.12 0.13 0.07 0.01 0.00 0.00 0.00 0.02 0.03 0.04 0.06 0.11 0.16
0.01 0.01 0.01 0.01 0.00 0.00 0.00 0.00 0.00 0.00 0.00 0.01 0.01 0.00 0.00 0.00 0.00 0.00 0.00 0.00 0.00 0.01 0.02 0.04 0.12 0.14 0.14 0.14 0.08 0.02 0.02 0.01 0.01 0.05 0.10 0.13 0.16 0.20
0.01 0.00 0.00 0.00 0.00 0.00 0.00 0.00 0.00 0.00 0.01 0.02 0.01 0.00 0.00 0.00 0.00 0.01 0.02 0.01 0.01 0.00 0.00 0.01 0.04 0.12 0.13 0.08 0.12 0.10 0.08 0.10 0.08 0.12 0.15 0.14 0.16 0.24
0.01 0.00 0.00 0.00 0.00 0.00 0.00 0.00 0.00 0.00 0.00 0.01 0.01 0.01 0.01 0.00 0.00 0.00 0.02 0.03 0.03 0.02 0.01 0.00 0.00 0.03 0.06 0.06 0.07 0.06 0.07 0.12 0.18 0.24 0.22 0.15 0.12 0.20
0.00 0.00 0.00 0.00 0.00 0.00 0.00 0.00 0.00 0.00 0.01 0.01 0.02 0.02 0.03 0.02 0.02 0.01 0.01 0.03 0.03 0.02 0.02 0.02 0.01 0.01 0.00 0.01 0.05 0.13 0.15 0.18 0.18 0.18 0.21 0.25 0.19 0.19
0.00 0.00 0.00 0.00 0.00 0.00 0.01 0.01 0.01 0.01 0.01 0.02 0.03 0.05 0.06 0.04 0.02 0.02 0.02 0.02 0.02 0.02 0.02 0.03 0.04 0.06 0.05 0.03 0.02 0.10 0.22 0.20 0.16 0.19 0.27 0.40 0.49 0.38
0.00 0.00 0.00 0.00 0.01 0.01 0.02 0.02 0.02 0.01 0.01 0.02 0.03 0.05 0.06 0.05 0.04 0.03 0.03 0.04 0.04 0.03 0.01 0.01 0.03 0.08 0.14 0.14 0.10 0.07 0.11 0.20 0.24 0.30 0.32 0.30 0.32 0.27
0.00 0.00 0.00 0.01 0.01 0.02 0.02 0.02 0.02 0.03 0.03 0.04 0.05 0.06 0.07 0.07 0.05 0.04 0.04 0.03 0.03 0.03 0.03 0.02 0.03 0.06 0.07 0.05 0.04 0.04 0.05 0.09 0.22 0.32 0.29 0.19 0.13 0.11
0.00 0.00 0.00 0.01 0.02 0.03 0.02 0.02 0.02 0.02 0.03 0.04 0.05 0.06 0.07 0.08 0.07 0.05 0.05 0.05 0.04 0.03 0.03 0.02 0.01 0.01 0.01 0.02 0.03 0.02 0.02 0.02 0.05 0.10 0.19 0.33 0.41 0.55
0.00 0.01 0.01 0.01 0.02 0.03 0.02 0.02 0.02 0.03 0.04 0.06 0.07 0.07 0.07 0.07 0.05 0.05 0.05 0.06 0.05 0.03 0.01 0.01 0.01 0.01 0.01 0.01 0.02 0.01 0.01 0.02 0.03 0.05 0.12 0.21 0.36 0.52

GEFSNE_prec_meanprecacc_018.txt.gz
Total_Precipitation_Accumulation
0.00 0.00 0.00 0.00 0.00 0.00 0.00 0.00 0.00 0.00 0.00 0.00 0.00 0.00 0.00 0.00 0.00 0.00 0.00 0.00 0.00 0.01 0.02 0.02 0.02 0.03 0.03 0.04 0.06 0.07 0.08 0.09 0.10 0.11 0.11 0.11 0.11 0.11
0.00 0.00 0.00 0.00 0.00 0.00 0.00 0.00 0.00 0.00 0.00 0.00 0.00 0.00 0.00 0.00 0.00 0.00 0.00 0.00 0.01 0.01 0.02 0.02 0.02 0.02 0.03 0.04 0.06 0.08 0.10 0.12 0.14 0.16 0.17 0.19 0.19 0.19
0.00 0.00 0.00 0.00 0.00 0.00 0.00 0.00 0.00 0.00 0.00 0.00 0.00 0.00 0.00 0.00 0.00 0.00 0.00 0.01 0.01 0.01 0.01 0.01 0.01 0.03 0.04 0.07 0.08 0.10 0.11 0.11 0.13 0.16 0.18 0.21 0.23 0.24
0.00 0.00 0.00 0.00 0.00 0.00 0.00 0.00 0.00 0.00 0.00 0.01 0.00 0.00 0.00 0.00 0.00 0.00 0.00 0.00 0.00 0.00 0.00 0.01 0.02 0.03 0.05 0.06 0.07 0.09 0.12 0.14 0.16 0.16 0.17 0.18 0.19 0.21
0.00 0.00 0.00 0.00 0.00 0.00 0.00 0.00 0.00 0.00 0.01 0.01 0.00 0.00 0.00 0.01 0.01 0.00 0.00 0.00 0.00 0.00 0.00 0.00 0.01 0.03 0.05 0.06 0.08 0.09 0.09 0.08 0.08 0.08 0.08 0.09 0.09 0.11
0.00 0.00 0.00 0.00 0.00 0.00 0.00 0.00 0.00 0.00 0.01 0.02 0.04 0.03 0.02 0.01 0.00 0.00 0.00 0.00 0.00 0.00 0.00 0.00 0.01 0.02 0.02 0.02 0.02 0.02 0.02 0.03 0.04 0.05 0.06 0.07 0.07 0.08
0.00 0.00 0.00 0.00 0.00 0.00 0.01 0.01 0.01 0.03 0.06 0.09 0.08 0.05 0.02 0.00 0.00 0.00 0.01 0.01 0.00 0.00 0.00 0.00 0.00 0.00 0.00 0.00 0.00 0.01 0.01 0.03 0.05 0.08 0.10 0.12 0.13 0.14
0.00 0.00 0.00 0.00 0.00 0.00 0.01 0.02 0.05 0.11 0.13 0.12 0.08 0.03 0.01 0.00 0.01 0.02 0.04 0.04 0.02 0.00 0.00 0.00 0.00 0.00 0.00 0.00 0.00 0.01 0.02 0.04 0.06 0.08 0.10 0.11 0.12 0.12
0.00 0.00 0.00 0.00 0.00 0.00 0.00 0.04 0.08 0.08 0.07 0.05 0.02 0.01 0.01 0.02 0.04 0.06 0.05 0.05 0.03 0.01 0.01 0.01 0.00 0.00 0.00 0.00 0.00 0.01 0.02 0.03 0.05 0.06 0.08 0.10 0.10 0.10
0.00 0.00 0.00 0.00 0.00 0.02 0.06 0.10 0.05 0.02 0.01 0.01 0.01 0.01 0.02 0.02 0.03 0.06 0.06 0.05 0.02 0.00 0.00 0.01 0.00 0.00 0.00 0.00 0.00 0.00 0.01 0.02 0.04 0.06 0.08 0.10 0.12 0.14
0.00 0.00 0.00 0.01 0.02 0.06 0.08 0.05 0.01 0.00 0.00 0.01 0.02 0.01 0.01 0.01 0.02 0.04 0.07 0.08 0.04 0.00 0.00 0.00 0.00 0.00 0.00 0.00 0.00 0.00 0.00 0.01 0.02 0.03 0.05 0.06 0.08 0.10
0.00 0.00 0.00 0.01 0.04 0.07 0.04 0.02 0.01 0.00 0.01 0.01 0.00 0.00 0.00 0.00 0.00 0.02 0.09 0.19 0.13 0.06 0.00 0.03 0.04 0.05 0.09 0.01 0.00 0.00 0.00 0.00 0.00 0.01 0.02 0.04 0.06 0.10
0.00 0.00 0.00 0.02 0.04 0.04 0.03 0.01 0.01 0.03 0.02 0.01 0.00 0.00 0.00 0.00 0.00 0.00 0.03 0.21 0.28 0.15 0.02 0.12 0.17 0.08 0.12 0.05 0.00 0.00 0.00 0.00 0.01 0.01 0.01 0.03 0.07 0.16
0.01 0.00 0.01 0.02 0.03 0.01 0.00 0.01 0.02 0.02 0.00 0.00 0.00 0.00 0.00 0.00 0.00 0.00 0.01 0.03 0.12 0.17 0.08 0.17 0.28 0.18 0.18 0.11 0.02 0.00 0.00 0.00 0.02 0.03 0.04 0.07 0.12 0.18
0.01 0.02 0.01 0.01 0.01 0.00 0.00 0.00 0.00 0.00 0.00 0.01 0.01 0.00 0.00 0.00 0.00 0.00 0.01 0.00 0.01 0.01 0.02 0.05 0.16 0.19 0.22 0.20 0.11 0.03 0.02 0.01 0.01 0.05 0.10 0.14 0.18 0.23
0.01 0.01 0.00 0.00 0.00 0.00 0.00 0.00 0.00 0.00 0.01 0.03 0.02 0.00 0.00 0.00 0.00 0.01 0.02 0.02 0.02 0.00 0.00 0.01 0.05 0.17 0.20 0.13 0.16 0.12 0.08 0.11 0.08 0.12 0.16 0.14 0.16 0.25
0.01 0.00 0.00 0.00 0.00 0.00 0.00 0.00 0.00 0.00 0.00 0.01 0.02 0.02 0.01 0.00 0.00 0.01 0.03 0.04 0.04 0.02 0.01 0.00 0.00 0.03 0.08 0.09 0.10 0.07 0.07 0.12 0.19 0.24 0.24 0.18 0.12 0.21
0.01 0.00 0.00 0.00 0.00 0.00 0.00 0.00 0.00 0.00 0.01 0.02 0.03 0.04 0.04 0.03 0.02 0.01 0.02 0.04 0.05 0.03 0.03 0.02 0.02 0.03 0.01 0.01 0.06 0.13 0.15 0.18 0.19 0.19 0.24 0.31 0.22 0.19
0.00 0.00 0.00 0.00 0.00 0.00 0.01 0.02 0.01 0.01 0.02 0.03 0.05 0.06 0.08 0.05 0.03 0.03 0.03 0.03 0.03 0.02 0.02 0.03 0.06 0.12 0.11 0.05 0.02 0.10 0.23 0.21 0.17 0.20 0.28 0.45 0.54 0.40
0.00 0.00 0.00 0.00 0.01 0.01 0.02 0.02 0.02 0.02 0.02 0.03 0.05 0.07 0.09 0.08 0.06 0.05 0.05 0.06 0.07 0.04 0.02 0.02 0.05 0.14 0.25 0.22 0.13 0.08 0.11 0.21 0.29 0.35 0.34 0.31 0.33 0.28
0.00 0.00 0.00 0.01 0.01 0.02 0.03 0.03 0.03 0.04 0.04 0.06 0.07 0.08 0.11 0.12 0.08 0.06 0.06 0.05 0.05 0.06 0.05 0.03 0.03 0.07 0.11 0.10 0.07 0.05 0.05 0.10 0.25 0.42 0.39 0.26 0.17 0.13
0.00 0.00 0.00 0.01 0.02 0.03 0.03 0.03 0.03 0.03 0.04 0.06 0.08 0.09 0.11 0.13 0.13 0.09 0.07 0.08 0.06 0.07 0.06 0.03 0.02 0.02 0.03 0.06 0.06 0.04 0.03 0.02 0.06 0.11 0.25 0.46 0.61 0.74
0.00 0.01 0.01 0.01 0.03 0.04 0.04 0.03 0.03 0.04 0.06 0.09 0.10 0.10 0.12 0.12 0.09 0.08 0.08 0.11 0.11 0.08 0.04 0.02 0.01 0.01 0.01 0.03 0.04 0.04 0.03 0.03 0.03 0.05 0.12 0.25 0.46 0.67

GEFSNE_prec_meanprecacc_024.txt.gz
Total_Precipitation_Accumulation
0.00 0.00 0.00 0.00 0.00 0.00 0.00 0.00 0.00 0.00 0.00 0.00 0.00 0.00 0.00 0.00 0.00 0.00 0.00 0.00 0.00 0.01 0.02 0.02 0.02 0.03 0.04 0.05 0.07 0.09 0.11 0.12 0.14 0.15 0.15 0.15 0.16 0.17
0.00 0.00 0.00 0.00 0.00 0.00 0.00 0.00 0.00 0.00 0.00 0.00 0.00 0.00 0.00 0.00 0.00 0.00 0.00 0.00 0.01 0.01 0.02 0.02 0.02 0.03 0.04 0.05 0.07 0.10 0.12 0.15 0.17 0.20 0.23 0.25 0.27 0.28
0.00 0.00 0.00 0.00 0.00 0.00 0.00 0.00 0.00 0.00 0.00 0.00 0.00 0.00 0.00 0.00 0.00 0.00 0.00 0.01 0.01 0.01 0.01 0.01 0.02 0.03 0.05 0.07 0.09 0.11 0.13 0.14 0.17 0.20 0.24 0.27 0.29 0.31
0.00 0.00 0.00 0.00 0.00 0.00 0.00 0.00 0.00 0.00 0.00 0.01 0.00 0.00 0.00 0.00 0.00 0.00 0.00 0.00 0.00 0.00 0.00 0.01 0.02 0.03 0.05 0.07 0.08 0.11 0.14 0.17 0.18 0.19 0.20 0.21 0.23 0.25
0.00 0.00 0.00 0.00 0.00 0.00 0.00 0.00 0.00 0.00 0.01 0.01 0.00 0.00 0.00 0.01 0.01 0.00 0.00 0.00 0.00 0.00 0.00 0.00 0.01 0.03 0.05 0.07 0.09 0.10 0.10 0.09 0.09 0.09 0.10 0.11 0.12 0.13
0.00 0.00 0.00 0.00 0.00 0.00 0.00 0.00 0.00 0.00 0.01 0.02 0.04 0.03 0.02 0.01 0.00 0.00 0.00 0.00 0.00 0.00 0.00 0.00 0.01 0.02 0.02 0.02 0.02 0.02 0.02 0.03 0.04 0.06 0.07 0.09 0.10 0.11
0.00 0.00 0.00 0.00 0.00 0.00 0.01 0.01 0.01 0.03 0.06 0.10 0.08 0.05 0.02 0.00 0.00 0.00 0.01 0.01 0.00 0.00 0.00 0.00 0.00 0.00 0.00 0.00 0.00 0.01 0.02 0.03 0.06 0.09 0.12 0.14 0.16 0.17
0.00 0.00 0.00 0.00 0.00 0.00 0.01 0.02 0.05 0.11 0.14 0.13 0.08 0.04 0.01 0.00 0.01 0.02 0.04 0.04 0.03 0.00 0.00 0.00 0.00 0.00 0.00 0.00 0.00 0.01 0.03 0.05 0.07 0.09 0.11 0.13 0.14 0.15
0.00 0.00 0.00 0.00 0.00 0.00 0.00 0.04 0.08 0.08 0.08 0.06 0.03 0.01 0.01 0.02 0.05 0.07 0.06 0.07 0.05 0.01 0.01 0.01 0.00 0.00 0.00 0.00 0.00 0.01 0.02 0.03 0.05 0.07 0.09 0.11 0.12 0.12
0.00 0.00 0.00 0.00 0.00 0.02 0.06 0.10 0.05 0.02 0.01 0.01 0.01 0.01 0.02 0.02 0.04 0.08 0.08 0.06 0.02 0.00 0.00 0.01 0.00 0.00 0.00 0.00 0.00 0.00 0.01 0.02 0.04 0.06 0.08 0.10 0.13 0.15
0.00 0.00 0.00 0.01 0.02 0.07 0.08 0.05 0.02 0.00 0.00 0.01 0.02 0.02 0.02 0.02 0.02 0.05 0.07 0.09 0.05 0.00 0.00 0.00 0.00 0.00 0.00 0.00 0.00 0.00 0.00 0.01 0.02 0.03 0.05 0.06 0.08 0.11
0.00 0.00 0.00 0.01 0.04 0.07 0.05 0.03 0.01 0.00 0.01 0.01 0.00 0.00 0.00 0.00 0.00 0.02 0.09 0.22 0.17 0.07 0.00 0.03 0.05 0.07 0.11 0.01 0.00 0.00 0.00 0.00 0.00 0.01 0.02 0.04 0.06 0.10
0.00 0.00 0.00 0.02 0.05 0.05 0.04 0.01 0.01 0.04 0.03 0.01 0.00 0.00 0.00 0.00 0.00 0.00 0.03 0.22 0.33 0.18 0.02 0.14 0.22 0.11 0.16 0.06 0.00 0.00 0.00 0.00 0.01 0.01 0.01 0.03 0.08 0.17
0.01 0.00 0.01 0.03 0.03 0.02 0.01 0.01 0.02 0.02 0.00 0.00 0.00 0.00 0.00 0.00 0.00 0.00 0.01 0.03 0.12 0.19 0.09 0.20 0.36 0.23 0.24 0.14 0.02 0.00 0.00 0.00 0.02 0.03 0.04 0.07 0.12 0.18
0.01 0.02 0.02 0.02 0.01 0.00 0.00 0.00 0.00 0.00 0.00 0.01 0.01 0.00 0.00 0.00 0.00 0.00 0.01 0.00 0.01 0.01 0.02 0.05 0.19 0.24 0.28 0.25 0.13 0.03 0.02 0.01 0.01 0.05 0.10 0.14 0.18 0.23
0.01 0.01 0.01 0.00 0.00 0.00 0.00 0.00 0.00 0.00 0.01 0.03 0.02 0.01 0.00 0.00 0.00 0.01 0.02 0.02 0.03 0.00 0.00 0.01 0.05 0.19 0.25 0.16 0.19 0.13 0.09 0.11 0.08 0.12 0.16 0.14 0.16 0.25
0.02 0.00 0.00 0.00 0.00 0.00 0.00 0.00 0.00 0.00 0.00 0.01 0.02 0.02 0.01 0.01 0.00 0.01 0.03 0.05 0.06 0.03 0.01 0.00 0.00 0.03 0.09 0.11 0.12 0.08 0.07 0.12 0.19 0.24 0.25 0.19 0.12 0.21
0.01 0.00 0.00 0.00 0.00 0.00 0.00 0.00 0.00 0.00 0.01 0.03 0.03 0.04 0.05 0.04 0.03 0.01 0.02 0.05 0.06 0.04 0.03 0.02 0.02 0.04 0.02 0.01 0.06 0.13 0.15 0.19 0.19 0.19 0.24 0.33 0.23 0.19
0.00 0.00 0.00 0.00 0.00 0.00 0.01 0.02 0.02 0.01 0.02 0.04 0.05 0.08 0.09 0.07 0.04 0.04 0.03 0.04 0.04 0.03 0.03 0.03 0.08 0.18 0.18 0.07 0.02 0.10 0.24 0.25 0.20 0.21 0.29 0.46 0.56 0.40
0.00 0.00 0.00 0.00 0.01 0.01 0.02 0.03 0.02 0.02 0.02 0.03 0.05 0.08 0.11 0.11 0.08 0.06 0.06 0.07 0.09 0.06 0.03 0.02 0.06 0.22 0.38 0.31 0.17 0.08 0.11 0.23 0.36 0.42 0.37 0.32 0.34 0.28
0.00 0.00 0.00 0.01 0.01 0.02 0.03 0.03 0.04 0.04 0.04 0.07 0.08 0.10 0.13 0.15 0.11 0.07 0.07 0.06 0.07 0.07 0.07 0.04 0.04 0.09 0.18 0.17 0.11 0.05 0.05 0.10 0.28 0.49 0.48 0.33 0.20 0.14
0.00 0.00 0.00 0.01 0.02 0.03 0.04 0.04 0.04 0.04 0.05 0.07 0.09 0.11 0.12 0.16 0.16 0.11 0.09 0.10 0.08 0.09 0.09 0.04 0.02 0.03 0.07 0.12 0.11 0.05 0.03 0.02 0.06 0.12 0.29 0.55 0.74 0.84
0.00 0.01 0.01 0.01 0.03 0.04 0.04 0.04 0.04 0.04 0.07 0.10 0.11 0.12 0.13 0.13 0.11 0.10 0.10 0.13 0.15 0.11 0.08 0.04 0.02 0.02 0.03 0.05 0.07 0.05 0.03 0.03 0.03 0.06 0.12 0.25 0.49 0.72

GEFSNE_prec_meanprecacc_030.txt.gz
Total_Precipitation_Accumulation
0.00 0.00 0.00 0.00 0.00 0.00 0.00 0.00 0.00 0.00 0.00 0.00 0.00 0.00 0.00 0.00 0.00 0.00 0.00 0.00 0.00 0.01 0.02 0.02 0.03 0.03 0.04 0.06 0.08 0.10 0.12 0.14 0.15 0.17 0.18 0.18 0.19 0.21
0.02 0.02 0.02 0.01 0.01 0.00 0.00 0.00 0.00 0.00 0.00 0.00 0.00 0.00 0.00 0.00 0.00 0.00 0.00 0.00 0.01 0.01 0.02 0.02 0.02 0.03 0.04 0.06 0.08 0.11 0.14 0.16 0.19 0.23 0.26 0.29 0.31 0.33
0.03 0.03 0.02 0.02 0.01 0.01 0.00 0.00 0.00 0.00 0.00 0.00 0.00 0.00 0.00 0.00 0.00 0.00 0.00 0.01 0.01 0.01 0.01 0.01 0.02 0.03 0.06 0.08 0.10 0.12 0.14 0.16 0.19 0.23 0.27 0.30 0.33 0.34
0.05 0.05 0.04 0.02 0.01 0.01 0.00 0.00 0.00 0.00 0.00 0.01 0.00 0.00 0.00 0.00 0.00 0.00 0.00 0.00 0.00 0.00 0.00 0.01 0.02 0.04 0.05 0.07 0.09 0.12 0.16 0.18 0.20 0.20 0.21 0.23 0.25 0.27
0.06 0.05 0.03 0.02 0.01 0.01 0.00 0.00 0.00 0.00 0.01 0.01 0.00 0.00 0.00 0.01 0.01 0.00 0.00 0.00 0.00 0.00 0.00 0.00 0.01 0.03 0.05 0.07 0.09 0.11 0.10 0.10 0.10 0.10 0.11 0.11 0.13 0.15
0.03 0.03 0.02 0.02 0.01 0.01 0.01 0.01 0.01 0.01 0.01 0.02 0.04 0.03 0.02 0.01 0.00 0.00 0.00 0.00 0.00 0.00 0.00 0.00 0.01 0.02 0.02 0.02 0.03 0.02 0.03 0.03 0.05 0.06 0.08 0.10 0.11 0.13
0.04 0.04 0.04 0.03 0.02 0.01 0.01 0.01 0.01 0.03 0.06 0.10 0.08 0.05 0.02 0.00 0.00 0.00 0.01 0.01 0.00 0.00 0.00 0.00 0.00 0.00 0.00 0.00 0.00 0.01 0.02 0.04 0.07 0.10 0.13 0.16 0.18 0.19
0.07 0.05 0.03 0.02 0.01 0.01 0.01 0.02 0.05 0.11 0.14 0.13 0.09 0.04 0.01 0.00 0.01 0.02 0.04 0.05 0.03 0.00 0.00 0.00 0.00 0.00 0.00 0.00 0.00 0.01 0.03 0.05 0.07 0.10 0.12 0.14 0.15 0.17
0.04 0.02 0.01 0.01 0.00 0.00 0.00 0.04 0.08 0.08 0.08 0.06 0.03 0.01 0.01 0.02 0.05 0.08 0.07 0.08 0.05 0.01 0.01 0.01 0.00 0.00 0.00 0.00 0.00 0.01 0.02 0.03 0.05 0.08 0.10 0.12 0.13 0.14
0.02 0.01 0.00 0.00 0.00 0.02 0.06 0.10 0.05 0.02 0.01 0.01 0.01 0.01 0.02 0.03 0.06 0.10 0.10 0.07 0.02 0.00 0.00 0.01 0.00 0.00 0.00 0.00 0.00 0.00 0.01 0.02 0.04 0.06 0.09 0.11 0.14 0.16
0.00 0.00 0.00 0.01 0.02 0.07 0.08 0.05 0.02 0.00 0.00 0.01 0.02 0.02 0.02 0.02 0.02 0.05 0.07 0.09 0.05 0.00 0.00 0.00 0.00 0.00 0.00 0.00 0.00 0.00 0.00 0.01 0.02 0.03 0.05 0.07 0.09 0.12
0.00 0.00 0.00 0.01 0.04 0.07 0.05 0.03 0.01 0.00 0.01 0.01 0.00 0.00 0.00 0.00 0.00 0.02 0.09 0.23 0.18 0.09 0.00 0.03 0.05 0.07 0.12 0.01 0.00 0.00 0.00 0.00 0.00 0.01 0.02 0.04 0.07 0.10
0.00 0.00 0.00 0.02 0.05 0.06 0.04 0.01 0.01 0.04 0.03 0.01 0.00 0.00 0.00 0.00 0.00 0.00 0.03 0.23 0.35 0.20 0.03 0.17 0.25 0.12 0.19 0.08 0.00 0.00 0.00 0.00 0.01 0.01 0.01 0.03 0.08 0.17
0.01 0.00 0.01 0.03 0.04 0.03 0.01 0.01 0.02 0.02 0.00 0.00 0.00 0.00 0.00 0.00 0.00 0.00 0.01 0.03 0.13 0.19 0.09 0.23 0.44 0.27 0.28 0.17 0.03 0.00 0.00 0.00 0.02 0.03 0.04 0.07 0.12 0.18
0.01 0.02 0.02 0.02 0.01 0.00 0.00 0.00 0.00 0.00 0.00 0.01 0.01 0.00 0.00 0.00 0.00 0.00 0.01 0.00 0.01 0.01 0.02 0.06 0.23 0.28 0.33 0.30 0.15 0.04 0.02 0.01 0.01 0.05 0.10 0.14 0.18 0.23
0.01 0.01 0.01 0.00 0.00 0.00 0.00 0.00 0.00 0.00 0.01 0.03 0.02 0.01 0.00 0.00 0.00 0.01 0.02 0.03 0.04 0.01 0.00 0.01 0.06 0.21 0.29 0.19 0.21 0.15 0.09 0.11 0.08 0.12 0.16 0.14 0.16 0.25
0.02 0.00 0.00 0.00 0.00 0.00 0.00 0.00 0.00 0.00 0.00 0.01 0.02 0.03 0.01 0.01 0.00 0.01 0.03 0.06 0.07 0.03 0.01 0.00 0.00 0.03 0.10 0.14 0.15 0.09 0.07 0.12 0.19 0.24 0.25 0.20 0.12 0.21
0.01 0.00 0.00 0.00 0.00 0.00 0.00 0.00 0.00 0.01 0.01 0.03 0.04 0.05 0.06 0.05 0.03 0.01 0.03 0.06 0.07 0.04 0.03 0.02 0.03 0.05 0.02 0.01 0.06 0.13 0.16 0.19 0.19 0.19 0.25 0.36 0.24 0.19
0.00 0.00 0.00 0.00 0.00 0.00 0.01 0.02 0.02 0.01 0.02 0.04 0.06 0.08 0.11 0.08 0.05 0.04 0.04 0.05 0.05 0.03 0.03 0.04 0.09 0.24 0.24 0.09 0.02 0.10 0.26 0.30 0.24 0.24 0.30 0.48 0.57 0.41
0.00 0.00 0.00 0.00 0.01 0.01 0.02 0.03 0.03 0.02 0.02 0.04 0.06 0.09 0.12 0.12 0.09 0.07 0.07 0.08 0.10 0.07 0.04 0.02 0.07 0.28 0.50 0.40 0.22 0.08 0.11 0.27 0.45 0.50 0.39 0.33 0.35 0.28
0.00 0.00 0.00 0.01 0.02 0.03 0.03 0.04 0.04 0.05 0.05 0.07 0.09 0.11 0.14 0.17 0.12 0.08 0.08 0.07 0.08 0.09 0.08 0.05 0.04 0.11 0.24 0.26 0.17 0.06 0.05 0.10 0.32 0.60 0.60 0.43 0.25 0.15
0.00 0.00 0.00 0.01 0.02 0.04 0.04 0.05 0.05 0.04 0.06 0.08 0.09 0.11 0.13 0.17 0.17 0.13 0.10 0.11 0.10 0.10 0.10 0.05 0.02 0.04 0.10 0.21 0.18 0.07 0.03 0.02 0.06 0.13 0.34 0.67 0.92 0.94
0.00 0.01 0.01 0.02 0.03 0.05 0.05 0.05 0.04 0.05 0.07 0.11 0.12 0.12 0.14 0.15 0.12 0.11 0.12 0.16 0.18 0.14 0.10 0.06 0.02 0.02 0.04 0.08 0.11 0.08 0.04 0.03 0.03 0.06 0.13 0.26 0.51 0.76

GEFSNE_prec_meanprecacc_036.txt.gz
Total_Precipitation_Accumulation
0.10 0.07 0.05 0.04 0.03 0.02 0.01 0.01 0.01 0.01 0.01 0.01 0.01 0.01 0.01 0.01 0.00 0.00 0.00 0.00 0.00 0.01 0.02 0.02 0.03 0.03 0.04 0.06 0.08 0.10 0.13 0.15 0.16 0.18 0.19 0.19 0.21 0.23
0.11 0.09 0.08 0.06 0.05 0.04 0.04 0.04 0.04 0.05 0.05 0.04 0.03 0.02 0.01 0.01 0.00 0.00 0.00 0.00 0.01 0.01 0.02 0.02 0.02 0.03 0.04 0.06 0.09 0.11 0.14 0.17 0.20 0.24 0.28 0.31 0.33 0.35
0.11 0.11 0.11 0.10 0.09 0.08 0.07 0.07 0.08 0.07 0.06 0.04 0.03 0.02 0.01 0.01 0.01 0.01 0.01 0.01 0.01 0.01 0.01 0.01 0.02 0.04 0.06 0.08 0.10 0.13 0.15 0.17 0.20 0.24 0.28 0.32 0.35 0.36
0.12 0.14 0.14 0.14 0.13 0.12 0.12 0.12 0.11 0.09 0.07 0.06 0.03 0.02 0.02 0.01 0.01 0.01 0.00 0.00 0.00 0.00 0.00 0.01 0.02 0.04 0.05 0.07 0.09 0.13 0.16 0.19 0.21 0.21 0.22 0.24 0.26 0.28
0.13 0.14 0.14 0.14 0.14 0.13 0.13 0.12 0.10 0.08 0.07 0.05 0.03 0.02 0.01 0.01 0.01 0.00 0.00 0.00 0.00 0.00 0.00 0.00 0.01 0.03 0.05 0.07 0.09 0.11 0.11 0.10 0.10 0.10 0.11 0.12 0.13 0.16
0.11 0.11 0.12 0.13 0.14 0.14 0.14 0.12 0.10 0.08 0.06 0.05 0.05 0.04 0.02 0.01 0.01 0.00 0.00 0.00 0.00 0.00 0.00 0.00 0.01 0.02 0.02 0.02 0.03 0.02 0.03 0.03 0.05 0.07 0.09 0.10 0.12 0.14
0.14 0.16 0.17 0.18 0.17 0.15 0.12 0.10 0.07 0.07 0.09 0.11 0.09 0.05 0.02 0.00 0.00 0.00 0.01 0.01 0.00 0.00 0.00 0.00 0.00 0.00 0.00 0.00 0.00 0.01 0.02 0.04 0.07 0.10 0.14 0.17 0.19 0.21
0.19 0.18 0.18 0.17 0.14 0.10 0.08 0.06 0.09 0.13 0.15 0.14 0.09 0.04 0.01 0.00 0.01 0.02 0.04 0.05 0.04 0.00 0.00 0.00 0.00 0.00 0.00 0.00 0.00 0.01 0.03 0.05 0.07 0.10 0.13 0.15 0.16 0.18
0.19 0.17 0.14 0.10 0.08 0.05 0.04 0.06 0.09 0.09 0.08 0.06 0.03 0.01 0.01 0.02 0.05 0.08 0.07 0.09 0.06 0.01 0.01 0.01 0.00 0.00 0.00 0.00 0.00 0.01 0.02 0.03 0.05 0.08 0.10 0.13 0.14 0.15
0.14 0.10 0.07 0.05 0.04 0.04 0.07 0.10 0.05 0.02 0.01 0.01 0.01 0.01 0.02 0.03 0.06 0.12 0.11 0.08 0.03 0.00 0.00 0.01 0.00 0.00 0.00 0.00 0.00 0.00 0.01 0.02 0.04 0.06 0.09 0.12 0.14 0.17
0.07 0.04 0.03 0.02 0.03 0.07 0.09 0.06 0.02 0.00 0.00 0.01 0.02 0.02 0.02 0.02 0.03 0.05 0.08 0.09 0.06 0.00 0.00 0.00 0.00 0.00 0.00 0.00 0.00 0.00 0.00 0.01 0.02 0.03 0.05 0.07 0.09 0.12
0.02 0.01 0.01 0.02 0.05 0.08 0.06 0.04 0.02 0.00 0.01 0.01 0.00 0.00 0.00 0.00 0.00 0.02 0.09 0.23 0.19 0.09 0.00 0.03 0.05 0.07 0.13 0.01 0.00 0.00 0.00 0.00 0.00 0.01 0.02 0.04 0.07 0.11
0.01 0.00 0.00 0.02 0.05 0.06 0.05 0.02 0.01 0.04 0.03 0.01 0.00 0.00 0.00 0.00 0.00 0.00 0.03 0.23 0.36 0.21 0.03 0.17 0.26 0.13 0.20 0.08 0.00 0.00 0.00 0.00 0.01 0.01 0.01 0.03 0.08 0.18
0.01 0.00 0.01 0.03 0.04 0.03 0.01 0.01 0.02 0.02 0.00 0.00 0.00 0.00 0.00 0.00 0.00 0.00 0.01 0.03 0.13 0.20 0.09 0.24 0.47 0.28 0.31 0.19 0.03 0.00 0.00 0.00 0.02 0.03 0.04 0.07 0.12 0.18
0.01 0.02 0.02 0.02 0.01 0.00 0.00 0.00 0.00 0.00 0.00 0.01 0.01 0.00 0.00 0.00 0.00 0.00 0.01 0.00 0.01 0.01 0.02 0.06 0.24 0.29 0.37 0.33 0.16 0.04 0.02 0.01 0.01 0.05 0.10 0.14 0.18 0.23
0.01 0.01 0.01 0.00 0.00 0.00 0.00 0.00 0.00 0.00 0.01 0.03 0.02 0.01 0.00 0.00 0.00 0.01 0.02 0.03 0.04 0.01 0.00 0.01 0.06 0.22 0.32 0.20 0.23 0.16 0.09 0.11 0.08 0.12 0.16 0.14 0.17 0.26
0.02 0.00 0.00 0.00 0.00 0.00 0.00 0.00 0.00 0.00 0.00 0.01 0.02 0.03 0.01 0.01 0.00 0.01 0.03 0.06 0.08 0.04 0.01 0.00 0.01 0.04 0.11 0.16 0.17 0.09 0.07 0.12 0.19 0.24 0.26 0.21 0.13 0.21
0.01 0.00 0.00 0.00 0.00 0.00 0.00 0.00 0.00 0.01 0.01 0.03 0.04 0.05 0.06 0.05 0.03 0.02 0.03 0.07 0.08 0.05 0.03 0.02 0.03 0.06 0.03 0.02 0.07 0.13 0.16 0.19 0.19 0.19 0.26 0.38 0.26 0.19
0.00 0.00 0.00 0.00 0.00 0.00 0.01 0.02 0.02 0.01 0.02 0.05 0.06 0.09 0.11 0.08 0.05 0.05 0.04 0.06 0.05 0.04 0.03 0.04 0.10 0.28 0.28 0.11 0.02 0.10 0.27 0.31 0.25 0.25 0.30 0.49 0.59 0.41
0.00 0.00 0.00 0.00 0.01 0.01 0.02 0.03 0.03 0.02 0.03 0.04 0.06 0.09 0.13 0.13 0.10 0.07 0.07 0.09 0.11 0.08 0.04 0.02 0.07 0.30 0.56 0.46 0.25 0.09 0.12 0.29 0.51 0.56 0.42 0.34 0.35 0.29
0.00 0.00 0.00 0.01 0.02 0.03 0.03 0.04 0.04 0.05 0.05 0.07 0.09 0.11 0.15 0.18 0.13 0.09 0.09 0.07 0.09 0.10 0.09 0.05 0.04 0.11 0.26 0.32 0.22 0.07 0.05 0.10 0.35 0.69 0.70 0.52 0.29 0.16
0.00 0.00 0.00 0.01 0.02 0.04 0.05 0.05 0.05 0.04 0.06 0.08 0.10 0.12 0.14 0.18 0.18 0.13 0.11 0.12 0.11 0.11 0.12 0.06 0.02 0.04 0.13 0.27 0.22 0.09 0.03 0.02 0.06 0.13 0.38 0.77 1.06 1.02
0.00 0.01 0.01 0.02 0.03 0.05 0.05 0.05 0.05 0.05 0.07 0.12 0.13 0.13 0.15 0.15 0.13 0.12 0.13 0.17 0.19 0.16 0.11 0.07 0.03 0.03 0.05 0.10 0.14 0.10 0.05 0.03 0.03 0.06 0.13 0.26 0.54 0.79

GEFSNE_prec_meanprecacc_042.txt.gz
Total_Precipitation_Accumulation
0.24 0.21 0.17 0.15 0.14 0.14 0.14 0.16 0.18 0.18 0.14 0.11 0.10 0.09 0.07 0.05 0.04 0.03 0.02 0.02 0.01 0.01 0.02 0.03 0.03 0.03 0.04 0.06 0.08 0.10 0.13 0.15 0.16 0.18 0.19 0.20 0.22 0.24
0.24 0.23 0.21 0.19 0.18 0.17 0.18 0.21 0.24 0.27 0.26 0.20 0.16 0.15 0.13 0.11 0.08 0.05 0.03 0.02 0.02 0.02 0.02 0.03 0.03 0.03 0.04 0.06 0.09 0.11 0.14 0.17 0.20 0.24 0.28 0.32 0.35 0.37
0.21 0.22 0.23 0.22 0.22 0.22 0.23 0.26 0.29 0.31 0.33 0.29 0.25 0.23 0.19 0.15 0.11 0.07 0.04 0.03 0.02 0.02 0.02 0.01 0.02 0.04 0.06 0.08 0.10 0.13 0.15 0.17 0.20 0.24 0.29 0.33 0.36 0.38
0.21 0.23 0.24 0.24 0.26 0.26 0.28 0.30 0.32 0.32 0.33 0.32 0.26 0.21 0.17 0.12 0.08 0.05 0.03 0.02 0.01 0.01 0.00 0.01 0.02 0.04 0.05 0.07 0.09 0.13 0.16 0.19 0.21 0.21 0.23 0.24 0.26 0.29
0.19 0.21 0.22 0.23 0.24 0.25 0.26 0.28 0.27 0.26 0.25 0.23 0.19 0.14 0.11 0.08 0.06 0.04 0.02 0.01 0.00 0.00 0.00 0.00 0.01 0.03 0.05 0.07 0.09 0.11 0.11 0.10 0.10 0.10 0.11 0.12 0.14 0.16
0.17 0.18 0.19 0.22 0.25 0.26 0.27 0.27 0.25 0.22 0.19 0.17 0.16 0.12 0.08 0.06 0.04 0.02 0.01 0.01 0.00 0.00 0.00 0.01 0.01 0.02 0.02 0.02 0.03 0.02 0.03 0.03 0.05 0.07 0.09 0.10 0.12 0.14
0.23 0.26 0.29 0.33 0.32 0.29 0.25 0.22 0.18 0.17 0.18 0.19 0.15 0.10 0.06 0.04 0.02 0.01 0.01 0.01 0.00 0.00 0.00 0.00 0.00 0.00 0.00 0.00 0.00 0.01 0.02 0.04 0.07 0.10 0.14 0.17 0.19 0.21
0.29 0.31 0.32 0.34 0.29 0.24 0.19 0.16 0.16 0.20 0.21 0.19 0.13 0.07 0.02 0.01 0.01 0.02 0.04 0.05 0.04 0.00 0.00 0.00 0.00 0.00 0.00 0.00 0.00 0.01 0.03 0.05 0.07 0.10 0.13 0.15 0.17 0.18
0.28 0.26 0.23 0.20 0.16 0.12 0.11 0.13 0.15 0.14 0.12 0.09 0.05 0.02 0.01 0.02 0.05 0.08 0.07 0.09 0.06 0.01 0.01 0.01 0.00 0.00 0.00 0.00 0.00 0.01 0.02 0.03 0.05 0.08 0.10 0.13 0.15 0.16
0.22 0.17 0.13 0.09 0.07 0.06 0.09 0.12 0.06 0.03 0.02 0.01 0.01 0.01 0.02 0.03 0.06 0.12 0.11 0.08 0.03 0.00 0.00 0.01 0.00 0.00 0.00 0.00 0.00 0.00 0.01 0.02 0.04 0.06 0.09 0.12 0.15 0.17
0.11 0.07 0.05 0.03 0.04 0.08 0.09 0.06 0.02 0.00 0.00 0.01 0.02 0.02 0.02 0.03 0.03 0.05 0.08 0.10 0.06 0.00 0.00 0.00 0.00 0.00 0.00 0.00 0.00 0.00 0.00 0.01 0.02 0.03 0.05 0.07 0.09 0.13
0.03 0.02 0.01 0.02 0.05 0.08 0.06 0.04 0.02 0.00 0.01 0.01 0.00 0.00 0.00 0.00 0.00 0.02 0.09 0.23 0.19 0.09 0.00 0.03 0.05 0.07 0.13 0.01 0.00 0.00 0.00 0.00 0.00 0.01 0.02 0.04 0.07 0.11
0.01 0.00 0.00 0.02 0.05 0.06 0.05 0.02 0.01 0.04 0.03 0.01 0.00 0.00 0.00 0.00 0.00 0.00 0.03 0.23 0.36 0.21 0.03 0.17 0.27 0.13 0.21 0.09 0.00 0.00 0.00 0.00 0.01 0.01 0.01 0.03 0.08 0.18
0.01 0.00 0.01 0.03 0.04 0.03 0.01 0.01 0.02 0.02 0.00 0.00 0.00 0.00 0.00 0.00 0.00 0.00 0.01 0.03 0.13 0.20 0.09 0.25 0.48 0.29 0.32 0.20 0.03 0.00 0.00 0.00 0.02 0.03 0.04 0.07 0.12 0.18
0.01 0.02 0.02 0.02 0.01 0.00 0.00 0.00 0.00 0.00 0.00 0.01 0.01 0.00 0.00 0.00 0.00 0.00 0.01 0.01 0.01 0.01 0.02 0.06 0.25 0.30 0.39 0.35 0.17 0.04 0.02 0.01 0.01 0.05 0.10 0.14 0.18 0.23
0.01 0.01 0.01 0.00 0.00 0.00 0.00 0.00 0.00 0.00 0.01 0.03 0.02 0.01 0.00 0.00 0.00 0.01 0.03 0.03 0.04 0.01 0.00 0.01 0.06 0.23 0.34 0.22 0.25 0.17 0.09 0.12 0.08 0.12 0.16 0.15 0.17 0.26
0.02 0.00 0.00 0.00 0.00 0.00 0.00 0.00 0.00 0.00 0.00 0.01 0.02 0.03 0.01 0.01 0.00 0.01 0.04 0.07 0.08 0.04 0.01 0.00 0.01 0.04 0.13 0.18 0.19 0.10 0.07 0.12 0.19 0.24 0.26 0.22 0.13 0.21
0.01 0.00 0.00 0.00 0.00 0.00 0.00 0.00 0.00 0.01 0.01 0.03 0.04 0.05 0.06 0.05 0.04 0.02 0.03 0.07 0.08 0.05 0.04 0.02 0.03 0.07 0.04 0.03 0.07 0.14 0.16 0.19 0.19 0.20 0.27 0.40 0.27 0.20
0.00 0.00 0.00 0.00 0.00 0.00 0.01 0.02 0.02 0.01 0.02 0.05 0.07 0.09 0.12 0.09 0.06 0.05 0.05 0.06 0.06 0.04 0.03 0.04 0.11 0.30 0.31 0.12 0.02 0.10 0.27 0.32 0.26 0.25 0.31 0.50 0.60 0.41
0.00 0.00 0.00 0.00 0.01 0.01 0.02 0.03 0.03 0.02 0.03 0.04 0.06 0.10 0.14 0.14 0.10 0.08 0.08 0.10 0.12 0.09 0.05 0.03 0.08 0.31 0.59 0.49 0.27 0.09 0.12 0.29 0.51 0.58 0.42 0.34 0.35 0.29
0.00 0.00 0.00 0.01 0.02 0.03 0.03 0.04 0.04 0.05 0.05 0.08 0.09 0.11 0.15 0.19 0.14 0.09 0.10 0.08 0.10 0.11 0.10 0.05 0.04 0.11 0.27 0.37 0.27 0.08 0.05 0.10 0.36 0.70 0.72 0.55 0.32 0.17
0.00 0.00 0.00 0.01 0.02 0.04 0.05 0.05 0.05 0.04 0.06 0.08 0.10 0.12 0.15 0.19 0.20 0.15 0.12 0.13 0.12 0.12 0.12 0.06 0.02 0.05 0.15 0.31 0.26 0.09 0.03 0.02 0.06 0.14 0.38 0.80 1.14 1.08
0.00 0.01 0.01 0.02 0.03 0.05 0.05 0.05 0.05 0.05 0.08 0.12 0.13 0.13 0.16 0.17 0.14 0.13 0.14 0.18 0.21 0.17 0.12 0.08 0.03 0.03 0.06 0.12 0.17 0.11 0.05 0.03 0.03 0.06 0.13 0.26 0.54 0.80

GEFSNE_prec_meanprecacc_048.txt.gz
Total_Precipitation_Accumulation
0.39 0.38 0.34 0.31 0.30 0.30 0.32 0.36 0.41 0.39 0.30 0.24 0.23 0.23 0.23 0.25 0.27 0.27 0.27 0.30 0.29 0.27 0.25 0.22 0.18 0.15 0.13 0.12 0.12 0.13 0.14 0.15 0.17 0.18 0.19 0.20 0.22 0.25
0.37 0.38 0.38 0.36 0.36 0.37 0.40 0.45 0.50 0.56 0.52 0.39 0.33 0.33 0.35 0.35 0.37 0.34 0.32 0.32 0.29 0.26 0.24 0.20 0.15 0.12 0.10 0.10 0.12 0.13 0.16 0.18 0.20 0.24 0.28 0.32 0.35 0.37
0.31 0.34 0.37 0.37 0.39 0.41 0.45 0.51 0.57 0.62 0.65 0.55 0.46 0.43 0.42 0.38 0.34 0.28 0.23 0.20 0.17 0.17 0.15 0.12 0.10 0.09 0.10 0.11 0.12 0.14 0.16 0.17 0.21 0.24 0.29 0.33 0.36 0.38
0.29 0.33 0.36 0.37 0.39 0.41 0.44 0.50 0.54 0.57 0.58 0.55 0.46 0.39 0.34 0.29 0.24 0.19 0.14 0.11 0.09 0.08 0.08 0.07 0.07 0.07 0.08 0.09 0.11 0.13 0.17 0.19 0.21 0.22 0.23 0.25 0.27 0.30
0.24 0.27 0.29 0.31 0.34 0.35 0.37 0.41 0.42 0.42 0.41 0.39 0.34 0.29 0.24 0.21 0.17 0.13 0.09 0.07 0.04 0.04 0.03 0.03 0.03 0.05 0.06 0.08 0.10 0.11 0.11 0.11 0.10 0.10 0.11 0.12 0.14 0.17
0.19 0.21 0.23 0.27 0.31 0.34 0.36 0.37 0.36 0.34 0.32 0.30 0.29 0.24 0.20 0.15 0.12 0.08 0.06 0.04 0.03 0.02 0.01 0.01 0.01 0.02 0.02 0.02 0.03 0.02 0.03 0.03 0.05 0.07 0.09 0.11 0.12 0.14
0.25 0.29 0.33 0.38 0.39 0.35 0.32 0.29 0.26 0.26 0.27 0.28 0.25 0.19 0.14 0.10 0.07 0.05 0.05 0.04 0.02 0.01 0.01 0.00 0.00 0.00 0.00 0.00 0.00 0.01 0.02 0.04 0.07 0.10 0.14 0.17 0.19 0.21
0.30 0.33 0.36 0.38 0.34 0.31 0.26 0.23 0.22 0.26 0.27 0.24 0.18 0.12 0.07 0.05 0.04 0.05 0.05 0.06 0.04 0.00 0.01 0.00 0.00 0.00 0.00 0.00 0.00 0.01 0.03 0.05 0.07 0.10 0.13 0.15 0.17 0.19
0.29 0.28 0.25 0.22 0.20 0.16 0.16 0.17 0.19 0.18 0.15 0.11 0.07 0.04 0.03 0.03 0.06 0.08 0.08 0.09 0.06 0.01 0.01 0.01 0.00 0.00 0.00 0.00 0.00 0.01 0.02 0.03 0.05 0.08 0.10 0.13 0.15 0.16
0.23 0.19 0.15 0.11 0.08 0.08 0.11 0.13 0.07 0.04 0.02 0.02 0.02 0.02 0.02 0.03 0.06 0.12 0.11 0.08 0.03 0.00 0.00 0.01 0.00 0.00 0.00 0.00 0.00 0.00 0.01 0.02 0.04 0.06 0.09 0.12 0.15 0.18
0.12 0.09 0.06 0.04 0.04 0.08 0.09 0.06 0.02 0.01 0.00 0.01 0.02 0.02 0.02 0.03 0.03 0.05 0.08 0.10 0.06 0.00 0.00 0.00 0.00 0.00 0.00 0.00 0.00 0.00 0.00 0.01 0.02 0.03 0.05 0.07 0.09 0.13
0.03 0.02 0.02 0.02 0.05 0.08 0.06 0.04 0.02 0.00 0.01 0.01 0.00 0.00 0.00 0.00 0.00 0.02 0.09 0.23 0.19 0.09 0.00 0.03 0.05 0.07 0.13 0.01 0.00 0.00 0.00 0.00 0.00 0.01 0.02 0.04 0.07 0.11
0.01 0.01 0.01 0.03 0.05 0.06 0.05 0.02 0.01 0.04 0.03 0.01 0.00 0.00 0.00 0.00 0.00 0.00 0.03 0.23 0.36 0.21 0.03 0.17 0.27 0.13 0.21 0.09 0.00 0.00 0.00 0.00 0.01 0.01 0.01 0.03 0.08 0.18
0.01 0.00 0.01 0.03 0.04 0.03 0.01 0.01 0.03 0.02 0.00 0.00 0.00 0.00 0.00 0.00 0.00 0.00 0.01 0.03 0.13 0.20 0.09 0.25 0.49 0.30 0.33 0.21 0.04 0.00 0.00 0.00 0.02 0.03 0.04 0.07 0.12 0.18
0.01 0.02 0.02 0.02 0.01 0.00 0.00 0.00 0.00 0.00 0.00 0.01 0.01 0.00 0.00 0.00 0.00 0.00 0.01 0.01 0.01 0.01 0.02 0.06 0.25 0.31 0.40 0.37 0.18 0.04 0.03 0.01 0.01 0.05 0.10 0.14 0.18 0.23
0.01 0.01 0.01 0.00 0.00 0.00 0.00 0.00 0.00 0.00 0.01 0.03 0.02 0.01 0.00 0.00 0.00 0.01 0.03 0.03 0.04 0.01 0.00 0.01 0.06 0.24 0.35 0.23 0.26 0.18 0.09 0.12 0.08 0.12 0.16 0.15 0.17 0.26
0.02 0.00 0.00 0.00 0.00 0.00 0.00 0.00 0.00 0.00 0.00 0.01 0.02 0.03 0.01 0.01 0.00 0.01 0.04 0.07 0.09 0.04 0.01 0.00 0.01 0.04 0.13 0.19 0.21 0.11 0.07 0.12 0.19 0.24 0.26 0.22 0.13 0.21
0.01 0.00 0.00 0.00 0.00 0.00 0.00 0.00 0.00 0.01 0.01 0.03 0.04 0.05 0.07 0.06 0.04 0.02 0.03 0.08 0.09 0.05 0.04 0.02 0.04 0.08 0.05 0.03 0.08 0.14 0.16 0.19 0.19 0.20 0.27 0.41 0.27 0.20
0.00 0.00 0.00 0.00 0.00 0.00 0.01 0.02 0.02 0.01 0.02 0.05 0.07 0.09 0.12 0.09 0.06 0.06 0.05 0.07 0.07 0.05 0.04 0.04 0.12 0.32 0.34 0.13 0.02 0.10 0.27 0.32 0.26 0.25 0.31 0.51 0.60 0.41
0.00 0.00 0.00 0.00 0.01 0.01 0.02 0.03 0.03 0.02 0.03 0.04 0.06 0.10 0.14 0.15 0.11 0.09 0.08 0.11 0.13 0.09 0.05 0.03 0.08 0.33 0.63 0.51 0.28 0.09 0.12 0.29 0.51 0.58 0.42 0.34 0.36 0.29
0.00 0.00 0.00 0.01 0.02 0.03 0.03 0.04 0.04 0.05 0.05 0.08 0.09 0.11 0.15 0.19 0.15 0.10 0.10 0.09 0.11 0.12 0.11 0.06 0.04 0.12 0.30 0.42 0.31 0.08 0.05 0.10 0.36 0.70 0.72 0.56 0.34 0.18
0.00 0.00 0.00 0.01 0.02 0.04 0.05 0.05 0.05 0.04 0.06 0.08 0.10 0.12 0.15 0.20 0.21 0.15 0.13 0.14 0.13 0.13 0.13 0.06 0.02 0.06 0.17 0.35 0.28 0.10 0.03 0.02 0.06 0.14 0.39 0.81 1.17 1.11
0.00 0.01 0.01 0.02 0.03 0.05 0.05 0.05 0.05 0.05 0.08 0.12 0.13 0.14 0.16 0.17 0.14 0.14 0.15 0.19 0.22 0.18 0.13 0.08 0.04 0.04 0.07 0.14 0.18 0.12 0.06 0.03 0.03 0.06 0.13 0.26 0.54 0.81

GEFSNE_prec_meanprecacc_054.txt.gz
Total_Precipitation_Accumulation
0.39 0.39 0.35 0.32 0.32 0.32 0.35 0.40 0.47 0.45 0.35 0.29 0.29 0.32 0.35 0.39 0.45 0.46 0.45 0.52 0.54 0.53 0.53 0.51 0.46 0.37 0.31 0.28 0.27 0.26 0.26 0.26 0.25 0.25 0.24 0.24 0.24 0.26
0.38 0.39 0.39 0.37 0.37 0.38 0.42 0.48 0.55 0.62 0.59 0.46 0.40 0.42 0.48 0.52 0.58 0.55 0.52 0.56 0.53 0.51 0.49 0.46 0.39 0.32 0.27 0.24 0.23 0.23 0.24 0.26 0.27 0.30 0.33 0.36 0.38 0.40
0.31 0.34 0.37 0.37 0.39 0.41 0.45 0.52 0.60 0.68 0.73 0.65 0.56 0.54 0.55 0.53 0.52 0.45 0.41 0.40 0.37 0.39 0.37 0.34 0.28 0.24 0.22 0.21 0.21 0.21 0.22 0.23 0.25 0.29 0.32 0.37 0.39 0.41
0.29 0.33 0.36 0.37 0.39 0.41 0.45 0.51 0.57 0.62 0.65 0.63 0.55 0.49 0.45 0.41 0.37 0.32 0.27 0.23 0.21 0.25 0.25 0.23 0.20 0.18 0.17 0.17 0.17 0.18 0.21 0.23 0.24 0.24 0.25 0.26 0.28 0.31
0.24 0.27 0.29 0.31 0.34 0.36 0.38 0.42 0.45 0.46 0.47 0.45 0.40 0.35 0.31 0.28 0.25 0.21 0.17 0.14 0.12 0.13 0.13 0.13 0.12 0.12 0.12 0.12 0.13 0.14 0.13 0.12 0.12 0.11 0.12 0.13 0.15 0.17
0.19 0.21 0.23 0.27 0.31 0.35 0.37 0.38 0.38 0.36 0.34 0.34 0.32 0.28 0.23 0.19 0.16 0.13 0.10 0.09 0.07 0.06 0.06 0.05 0.05 0.05 0.05 0.05 0.04 0.04 0.04 0.04 0.05 0.07 0.09 0.11 0.12 0.14
0.25 0.29 0.33 0.38 0.39 0.36 0.32 0.29 0.27 0.27 0.28 0.30 0.26 0.20 0.16 0.12 0.10 0.08 0.07 0.06 0.04 0.03 0.02 0.01 0.01 0.01 0.01 0.01 0.01 0.01 0.02 0.04 0.07 0.10 0.14 0.17 0.20 0.22
0.30 0.33 0.36 0.38 0.34 0.31 0.27 0.23 0.23 0.26 0.27 0.25 0.19 0.13 0.08 0.06 0.06 0.06 0.07 0.07 0.05 0.01 0.01 0.00 0.00 0.00 0.00 0.00 0.00 0.01 0.03 0.05 0.07 0.10 0.13 0.15 0.17 0.19
0.29 0.28 0.25 0.22 0.20 0.16 0.16 0.17 0.19 0.18 0.15 0.12 0.07 0.04 0.03 0.03 0.06 0.09 0.08 0.09 0.06 0.01 0.01 0.01 0.00 0.00 0.00 0.00 0.00 0.01 0.02 0.03 0.05 0.08 0.10 0.13 0.15 0.16
0.23 0.19 0.15 0.11 0.08 0.08 0.11 0.14 0.08 0.04 0.03 0.02 0.02 0.02 0.02 0.03 0.06 0.12 0.11 0.08 0.03 0.00 0.00 0.01 0.00 0.00 0.00 0.00 0.00 0.00 0.01 0.02 0.04 0.07 0.09 0.12 0.15 0.18
0.12 0.09 0.06 0.04 0.04 0.08 0.10 0.07 0.02 0.01 0.00 0.01 0.02 0.02 0.02 0.03 0.03 0.05 0.08 0.10 0.06 0.00 0.00 0.00 0.00 0.00 0.00 0.00 0.00 0.00 0.00 0.01 0.02 0.03 0.05 0.07 0.09 0.13
0.03 0.02 0.02 0.02 0.05 0.08 0.06 0.04 0.02 0.00 0.01 0.01 0.00 0.00 0.00 0.00 0.00 0.02 0.09 0.23 0.19 0.09 0.00 0.03 0.05 0.07 0.13 0.01 0.00 0.00 0.00 0.00 0.00 0.01 0.02 0.04 0.07 0.11
0.01 0.01 0.01 0.03 0.05 0.06 0.05 0.02 0.01 0.04 0.03 0.01 0.00 0.00 0.00 0.00 0.00 0.00 0.03 0.23 0.36 0.21 0.03 0.17 0.27 0.13 0.21 0.09 0.00 0.00 0.00 0.00 0.01 0.01 0.01 0.03 0.08 0.18
0.01 0.00 0.01 0.03 0.04 0.03 0.01 0.01 0.03 0.02 0.00 0.00 0.00 0.00 0.00 0.00 0.00 0.00 0.01 0.03 0.13 0.20 0.09 0.25 0.49 0.30 0.34 0.22 0.04 0.00 0.00 0.00 0.02 0.03 0.04 0.07 0.12 0.18
0.01 0.02 0.02 0.02 0.01 0.00 0.00 0.00 0.00 0.00 0.00 0.01 0.01 0.00 0.00 0.00 0.00 0.00 0.01 0.01 0.01 0.01 0.02 0.06 0.25 0.32 0.41 0.38 0.19 0.04 0.03 0.01 0.01 0.05 0.10 0.14 0.18 0.23
0.01 0.01 0.01 0.00 0.00 0.00 0.00 0.00 0.00 0.00 0.01 0.03 0.02 0.01 0.00 0.00 0.00 0.01 0.03 0.03 0.04 0.01 0.00 0.01 0.06 0.25 0.37 0.24 0.27 0.18 0.09 0.12 0.08 0.12 0.16 0.15 0.17 0.26
0.02 0.00 0.00 0.00 0.00 0.00 0.00 0.00 0.00 0.00 0.00 0.01 0.02 0.03 0.01 0.01 0.00 0.01 0.04 0.07 0.09 0.04 0.01 0.00 0.01 0.05 0.14 0.20 0.22 0.11 0.07 0.12 0.19 0.24 0.26 0.22 0.13 0.21
0.01 0.00 0.00 0.00 0.00 0.00 0.00 0.00 0.00 0.01 0.01 0.03 0.04 0.05 0.07 0.06 0.04 0.02 0.04 0.08 0.09 0.06 0.04 0.02 0.04 0.08 0.05 0.03 0.08 0.14 0.16 0.19 0.19 0.20 0.27 0.41 0.27 0.20
0.00 0.00 0.00 0.00 0.00 0.00 0.01 0.02 0.02 0.01 0.02 0.05 0.07 0.09 0.12 0.09 0.07 0.06 0.05 0.07 0.07 0.05 0.04 0.04 0.12 0.33 0.35 0.13 0.02 0.10 0.27 0.32 0.26 0.25 0.31 0.51 0.60 0.41
0.00 0.00 0.00 0.00 0.01 0.01 0.02 0.03 0.03 0.02 0.03 0.04 0.06 0.10 0.14 0.15 0.11 0.09 0.09 0.11 0.13 0.10 0.05 0.03 0.09 0.34 0.64 0.52 0.29 0.09 0.12 0.29 0.51 0.58 0.42 0.34 0.36 0.29
0.00 0.00 0.00 0.01 0.02 0.03 0.03 0.04 0.04 0.05 0.05 0.08 0.09 0.11 0.15 0.20 0.15 0.10 0.10 0.09 0.12 0.13 0.11 0.06 0.04 0.12 0.32 0.46 0.33 0.08 0.05 0.10 0.36 0.70 0.73 0.57 0.34 0.18
0.00 0.00 0.00 0.01 0.02 0.04 0.05 0.05 0.05 0.04 0.06 0.08 0.10 0.12 0.15 0.20 0.21 0.16 0.13 0.14 0.13 0.13 0.13 0.06 0.02 0.06 0.19 0.38 0.29 0.10 0.03 0.02 0.06 0.14 0.39 0.82 1.18 1.12
0.00 0.01 0.01 0.02 0.03 0.05 0.05 0.05 0.05 0.05 0.08 0.12 0.13 0.14 0.16 0.18 0.15 0.15 0.16 0.20 0.23 0.18 0.14 0.09 0.04 0.04 0.08 0.15 0.20 0.13 0.06 0.03 0.03 0.06 0.13 0.26 0.54 0.81

GEFSNE_prec_meanprecacc_060.txt.gz
Total_Precipitation_Accumulation
0.40 0.39 0.36 0.33 0.32 0.33 0.36 0.41 0.48 0.46 0.36 0.29 0.29 0.32 0.35 0.39 0.45 0.47 0.47 0.56 0.61 0.63 0.67 0.69 0.68 0.61 0.54 0.50 0.50 0.51 0.50 0.45 0.40 0.37 0.34 0.32 0.31 0.32
0.38 0.39 0.39 0.37 0.37 0.38 0.42 0.48 0.56 0.63 0.60 0.46 0.40 0.42 0.48 0.52 0.59 0.56 0.53 0.59 0.60 0.60 0.63 0.62 0.55 0.48 0.43 0.41 0.42 0.44 0.44 0.43 0.43 0.43 0.44 0.45 0.47 0.47
0.31 0.34 0.37 0.37 0.39 0.41 0.45 0.52 0.60 0.68 0.74 0.65 0.56 0.54 0.55 0.53 0.52 0.47 0.43 0.43 0.42 0.48 0.49 0.47 0.41 0.37 0.35 0.35 0.36 0.36 0.35 0.36 0.37 0.39 0.42 0.45 0.47 0.47
0.29 0.33 0.36 0.37 0.39 0.41 0.45 0.51 0.57 0.62 0.65 0.64 0.55 0.49 0.45 0.41 0.37 0.33 0.29 0.27 0.25 0.32 0.34 0.35 0.32 0.29 0.28 0.28 0.28 0.29 0.30 0.31 0.31 0.30 0.31 0.32 0.33 0.36
0.24 0.27 0.29 0.31 0.34 0.36 0.38 0.42 0.45 0.46 0.47 0.45 0.41 0.36 0.32 0.29 0.26 0.21 0.18 0.16 0.14 0.16 0.18 0.18 0.19 0.19 0.18 0.19 0.20 0.21 0.20 0.18 0.16 0.16 0.16 0.17 0.18 0.20
0.19 0.21 0.23 0.27 0.31 0.35 0.37 0.38 0.38 0.36 0.34 0.34 0.33 0.28 0.23 0.19 0.16 0.13 0.11 0.09 0.08 0.07 0.08 0.08 0.08 0.08 0.08 0.08 0.07 0.07 0.06 0.07 0.08 0.10 0.11 0.13 0.14 0.16
0.25 0.29 0.33 0.38 0.39 0.36 0.32 0.29 0.27 0.27 0.28 0.30 0.26 0.20 0.16 0.12 0.10 0.08 0.08 0.07 0.05 0.03 0.03 0.02 0.02 0.01 0.01 0.02 0.02 0.02 0.03 0.05 0.08 0.11 0.15 0.18 0.20 0.22
0.30 0.33 0.36 0.38 0.34 0.31 0.27 0.23 0.23 0.26 0.27 0.25 0.19 0.13 0.08 0.06 0.06 0.06 0.07 0.08 0.05 0.01 0.01 0.01 0.00 0.00 0.00 0.00 0.00 0.01 0.03 0.05 0.08 0.11 0.13 0.16 0.17 0.19
0.29 0.28 0.25 0.22 0.20 0.16 0.16 0.17 0.19 0.18 0.15 0.12 0.07 0.04 0.03 0.03 0.06 0.09 0.08 0.09 0.06 0.01 0.01 0.01 0.00 0.00 0.00 0.00 0.00 0.01 0.02 0.03 0.05 0.08 0.10 0.13 0.15 0.16
0.23 0.19 0.15 0.11 0.08 0.08 0.11 0.14 0.08 0.04 0.03 0.02 0.02 0.02 0.02 0.03 0.06 0.12 0.11 0.08 0.03 0.00 0.00 0.01 0.00 0.00 0.00 0.00 0.00 0.00 0.01 0.02 0.04 0.07 0.09 0.12 0.15 0.18
0.12 0.09 0.06 0.04 0.04 0.08 0.10 0.07 0.02 0.01 0.00 0.01 0.02 0.02 0.02 0.03 0.03 0.05 0.08 0.10 0.06 0.00 0.00 0.00 0.00 0.00 0.00 0.00 0.00 0.00 0.00 0.01 0.02 0.03 0.05 0.07 0.10 0.13
0.03 0.02 0.02 0.02 0.05 0.08 0.06 0.04 0.02 0.00 0.01 0.01 0.00 0.00 0.00 0.00 0.00 0.02 0.09 0.24 0.19 0.09 0.00 0.03 0.05 0.07 0.13 0.01 0.00 0.00 0.00 0.00 0.00 0.01 0.02 0.04 0.07 0.11
0.01 0.01 0.01 0.03 0.05 0.06 0.05 0.02 0.01 0.04 0.03 0.01 0.00 0.00 0.00 0.00 0.00 0.00 0.03 0.23 0.36 0.21 0.03 0.17 0.27 0.13 0.21 0.09 0.00 0.00 0.00 0.00 0.01 0.01 0.01 0.03 0.08 0.18
0.01 0.00 0.01 0.03 0.04 0.03 0.01 0.01 0.03 0.02 0.00 0.00 0.00 0.00 0.00 0.00 0.00 0.00 0.01 0.03 0.13 0.20 0.09 0.25 0.49 0.30 0.34 0.22 0.04 0.00 0.00 0.00 0.02 0.03 0.04 0.07 0.12 0.18
0.01 0.02 0.02 0.02 0.01 0.00 0.00 0.00 0.00 0.00 0.00 0.01 0.01 0.00 0.00 0.00 0.00 0.00 0.01 0.01 0.01 0.01 0.02 0.06 0.25 0.32 0.42 0.39 0.19 0.04 0.03 0.01 0.01 0.05 0.10 0.14 0.18 0.23
0.01 0.01 0.01 0.00 0.00 0.00 0.00 0.00 0.00 0.00 0.01 0.03 0.02 0.01 0.00 0.00 0.00 0.01 0.03 0.03 0.04 0.01 0.00 0.01 0.06 0.25 0.37 0.25 0.27 0.18 0.09 0.12 0.08 0.12 0.16 0.15 0.17 0.26
0.02 0.00 0.00 0.00 0.00 0.00 0.00 0.00 0.00 0.00 0.00 0.01 0.02 0.03 0.01 0.01 0.00 0.01 0.04 0.07 0.09 0.04 0.01 0.00 0.01 0.05 0.14 0.20 0.22 0.11 0.07 0.12 0.19 0.24 0.26 0.22 0.13 0.21
0.01 0.00 0.00 0.00 0.00 0.00 0.00 0.00 0.00 0.01 0.01 0.03 0.04 0.05 0.07 0.06 0.04 0.02 0.04 0.08 0.10 0.06 0.04 0.02 0.04 0.08 0.06 0.03 0.08 0.14 0.16 0.19 0.19 0.20 0.27 0.41 0.27 0.20
0.00 0.00 0.00 0.00 0.00 0.00 0.01 0.02 0.02 0.01 0.02 0.05 0.07 0.09 0.12 0.09 0.07 0.06 0.05 0.07 0.07 0.05 0.04 0.04 0.12 0.34 0.36 0.14 0.02 0.10 0.27 0.32 0.26 0.26 0.31 0.51 0.60 0.41
0.00 0.00 0.00 0.00 0.01 0.01 0.02 0.03 0.03 0.02 0.03 0.04 0.06 0.10 0.14 0.15 0.11 0.09 0.09 0.11 0.13 0.10 0.05 0.03 0.09 0.35 0.65 0.52 0.29 0.09 0.12 0.29 0.51 0.58 0.42 0.34 0.36 0.29
0.00 0.00 0.00 0.01 0.02 0.03 0.03 0.04 0.04 0.05 0.05 0.08 0.09 0.11 0.16 0.20 0.15 0.10 0.11 0.09 0.12 0.13 0.12 0.06 0.04 0.12 0.33 0.49 0.35 0.08 0.05 0.10 0.36 0.70 0.73 0.58 0.35 0.19
0.00 0.00 0.00 0.01 0.02 0.04 0.05 0.05 0.05 0.04 0.06 0.08 0.10 0.13 0.15 0.21 0.21 0.16 0.13 0.15 0.13 0.14 0.13 0.06 0.03 0.06 0.20 0.41 0.31 0.10 0.03 0.02 0.06 0.14 0.39 0.82 1.20 1.13
0.00 0.01 0.01 0.02 0.03 0.05 0.05 0.05 0.05 0.05 0.08 0.12 0.13 0.14 0.17 0.18 0.15 0.15 0.16 0.20 0.23 0.19 0.14 0.09 0.04 0.05 0.10 0.16 0.21 0.14 0.06 0.03 0.03 0.06 0.13 0.26 0.54 0.81

GEFSNE_prec_meanprecacc_066.txt.gz
Total_Precipitation_Accumulation
0.40 0.39 0.36 0.33 0.33 0.34 0.36 0.42 0.50 0.47 0.37 0.29 0.29 0.32 0.35 0.39 0.45 0.47 0.47 0.56 0.62 0.64 0.68 0.70 0.70 0.65 0.61 0.60 0.60 0.61 0.63 0.61 0.58 0.56 0.51 0.44 0.41 0.42
0.38 0.39 0.39 0.37 0.37 0.38 0.42 0.48 0.56 0.64 0.61 0.46 0.40 0.42 0.48 0.52 0.59 0.56 0.53 0.60 0.60 0.61 0.63 0.63 0.57 0.52 0.48 0.47 0.48 0.51 0.54 0.55 0.55 0.57 0.60 0.60 0.60 0.59
0.32 0.34 0.37 0.37 0.39 0.41 0.46 0.52 0.60 0.68 0.74 0.65 0.56 0.54 0.55 0.53 0.52 0.47 0.43 0.43 0.42 0.49 0.50 0.48 0.43 0.40 0.39 0.40 0.41 0.42 0.43 0.44 0.46 0.50 0.54 0.58 0.59 0.58
0.29 0.33 0.36 0.37 0.39 0.41 0.45 0.51 0.57 0.62 0.65 0.64 0.55 0.49 0.45 0.41 0.37 0.33 0.29 0.27 0.26 0.32 0.35 0.36 0.35 0.33 0.33 0.33 0.33 0.35 0.38 0.39 0.39 0.39 0.40 0.41 0.42 0.44
0.24 0.27 0.29 0.31 0.34 0.36 0.38 0.42 0.45 0.46 0.47 0.45 0.41 0.36 0.32 0.29 0.26 0.21 0.18 0.16 0.14 0.17 0.19 0.20 0.21 0.21 0.22 0.23 0.24 0.25 0.24 0.24 0.23 0.22 0.23 0.24 0.26 0.27
0.19 0.21 0.23 0.27 0.31 0.35 0.37 0.38 0.38 0.36 0.34 0.34 0.33 0.28 0.23 0.19 0.16 0.13 0.11 0.09 0.08 0.07 0.08 0.08 0.08 0.09 0.09 0.09 0.09 0.08 0.08 0.09 0.11 0.13 0.15 0.17 0.19 0.21
0.25 0.29 0.33 0.38 0.39 0.36 0.32 0.29 0.27 0.27 0.28 0.30 0.26 0.20 0.16 0.12 0.10 0.08 0.08 0.07 0.05 0.03 0.03 0.02 0.02 0.02 0.02 0.02 0.02 0.02 0.03 0.05 0.08 0.12 0.16 0.19 0.22 0.24
0.30 0.33 0.36 0.38 0.34 0.31 0.27 0.23 0.23 0.26 0.27 0.25 0.19 0.13 0.08 0.06 0.06 0.06 0.07 0.08 0.05 0.01 0.01 0.01 0.00 0.00 0.00 0.00 0.00 0.01 0.03 0.05 0.08 0.11 0.13 0.16 0.18 0.20
0.29 0.28 0.25 0.22 0.20 0.16 0.16 0.17 0.19 0.18 0.15 0.12 0.07 0.04 0.03 0.03 0.06 0.09 0.08 0.09 0.06 0.01 0.01 0.01 0.00 0.00 0.00 0.00 0.00 0.01 0.02 0.03 0.05 0.08 0.10 0.13 0.15 0.16
0.23 0.19 0.15 0.11 0.08 0.08 0.11 0.14 0.08 0.04 0.03 0.02 0.02 0.02 0.02 0.03 0.06 0.12 0.11 0.08 0.03 0.00 0.00 0.01 0.00 0.00 0.00 0.00 0.00 0.00 0.01 0.02 0.04 0.07 0.09 0.12 0.15 0.18
0.12 0.09 0.06 0.04 0.04 0.08 0.10 0.07 0.02 0.01 0.00 0.01 0.02 0.02 0.02 0.03 0.03 0.05 0.08 0.10 0.06 0.00 0.00 0.00 0.00 0.00 0.00 0.00 0.00 0.00 0.00 0.01 0.02 0.03 0.05 0.07 0.10 0.13
0.03 0.02 0.02 0.02 0.05 0.08 0.06 0.04 0.02 0.00 0.01 0.01 0.00 0.00 0.00 0.00 0.00 0.02 0.09 0.24 0.19 0.09 0.00 0.03 0.05 0.07 0.13 0.01 0.00 0.00 0.00 0.00 0.00 0.01 0.02 0.04 0.07 0.11
0.01 0.01 0.01 0.03 0.05 0.06 0.05 0.02 0.01 0.04 0.03 0.01 0.00 0.00 0.00 0.00 0.00 0.00 0.03 0.23 0.36 0.21 0.03 0.17 0.27 0.13 0.21 0.09 0.00 0.00 0.00 0.00 0.01 0.01 0.01 0.03 0.08 0.18
0.01 0.00 0.01 0.03 0.04 0.03 0.01 0.01 0.03 0.02 0.00 0.00 0.00 0.00 0.00 0.00 0.00 0.00 0.01 0.03 0.13 0.20 0.09 0.25 0.49 0.30 0.34 0.22 0.04 0.00 0.00 0.00 0.02 0.03 0.04 0.07 0.12 0.18
0.01 0.02 0.02 0.02 0.01 0.00 0.00 0.00 0.00 0.00 0.00 0.01 0.01 0.00 0.00 0.00 0.00 0.00 0.01 0.01 0.01 0.01 0.02 0.06 0.25 0.32 0.42 0.39 0.19 0.04 0.03 0.01 0.01 0.05 0.10 0.14 0.18 0.23
0.01 0.01 0.01 0.00 0.00 0.00 0.00 0.00 0.00 0.00 0.01 0.03 0.02 0.01 0.00 0.00 0.00 0.01 0.03 0.03 0.04 0.01 0.00 0.01 0.06 0.25 0.37 0.25 0.28 0.19 0.09 0.12 0.08 0.12 0.16 0.15 0.17 0.26
0.02 0.00 0.00 0.00 0.00 0.00 0.00 0.00 0.00 0.00 0.00 0.01 0.02 0.03 0.01 0.01 0.00 0.01 0.04 0.07 0.09 0.04 0.01 0.00 0.01 0.05 0.14 0.20 0.22 0.11 0.07 0.12 0.19 0.24 0.26 0.22 0.13 0.21
0.01 0.00 0.00 0.00 0.00 0.00 0.00 0.00 0.00 0.01 0.01 0.03 0.04 0.05 0.07 0.06 0.04 0.02 0.04 0.08 0.10 0.06 0.04 0.02 0.04 0.09 0.06 0.04 0.08 0.14 0.16 0.19 0.19 0.20 0.27 0.41 0.27 0.20
0.00 0.00 0.00 0.00 0.00 0.00 0.01 0.02 0.02 0.01 0.02 0.05 0.07 0.09 0.12 0.09 0.07 0.06 0.06 0.07 0.07 0.05 0.04 0.05 0.13 0.35 0.37 0.14 0.02 0.10 0.27 0.32 0.26 0.26 0.31 0.51 0.60 0.41
0.00 0.00 0.00 0.00 0.01 0.01 0.02 0.03 0.03 0.02 0.03 0.04 0.06 0.10 0.14 0.15 0.11 0.09 0.09 0.11 0.13 0.10 0.06 0.03 0.09 0.35 0.66 0.53 0.29 0.09 0.12 0.29 0.52 0.58 0.42 0.34 0.36 0.29
0.00 0.00 0.00 0.01 0.02 0.03 0.03 0.04 0.04 0.05 0.05 0.08 0.09 0.11 0.16 0.20 0.15 0.10 0.11 0.10 0.12 0.14 0.12 0.06 0.04 0.13 0.34 0.52 0.37 0.09 0.05 0.10 0.36 0.71 0.73 0.58 0.36 0.19
0.00 0.00 0.00 0.01 0.03 0.04 0.05 0.05 0.05 0.04 0.06 0.08 0.10 0.13 0.15 0.21 0.22 0.16 0.14 0.15 0.14 0.14 0.14 0.07 0.03 0.07 0.22 0.43 0.32 0.10 0.03 0.02 0.06 0.14 0.39 0.83 1.21 1.14
0.01 0.01 0.01 0.02 0.04 0.05 0.05 0.05 0.05 0.05 0.08 0.12 0.14 0.14 0.17 0.18 0.16 0.16 0.16 0.20 0.24 0.19 0.14 0.10 0.05 0.06 0.11 0.18 0.23 0.14 0.06 0.03 0.03 0.06 0.13 0.27 0.55 0.81

GEFSNE_prec_meanprecacc_072.txt.gz
Total_Precipitation_Accumulation
0.40 0.39 0.36 0.33 0.33 0.34 0.37 0.42 0.51 0.48 0.37 0.30 0.29 0.32 0.35 0.40 0.46 0.47 0.47 0.57 0.62 0.65 0.69 0.71 0.71 0.66 0.62 0.61 0.63 0.64 0.66 0.65 0.64 0.64 0.62 0.56 0.53 0.55
0.38 0.39 0.39 0.37 0.37 0.38 0.42 0.49 0.56 0.65 0.61 0.47 0.41 0.42 0.48 0.52 0.59 0.56 0.53 0.60 0.60 0.62 0.64 0.63 0.58 0.52 0.49 0.48 0.51 0.55 0.57 0.58 0.59 0.62 0.66 0.68 0.69 0.71
0.32 0.34 0.37 0.37 0.39 0.41 0.46 0.52 0.60 0.68 0.74 0.65 0.56 0.54 0.55 0.53 0.52 0.47 0.43 0.43 0.43 0.49 0.50 0.49 0.44 0.40 0.40 0.41 0.43 0.44 0.47 0.49 0.51 0.55 0.60 0.65 0.66 0.67
0.29 0.33 0.36 0.37 0.39 0.41 0.45 0.51 0.57 0.62 0.66 0.64 0.55 0.49 0.45 0.41 0.37 0.33 0.29 0.27 0.26 0.32 0.35 0.36 0.35 0.33 0.34 0.34 0.35 0.37 0.41 0.44 0.44 0.45 0.46 0.48 0.50 0.51
0.24 0.27 0.29 0.31 0.34 0.36 0.38 0.42 0.45 0.46 0.47 0.45 0.41 0.36 0.32 0.29 0.26 0.21 0.18 0.16 0.14 0.17 0.19 0.20 0.21 0.22 0.23 0.25 0.25 0.26 0.26 0.27 0.26 0.26 0.28 0.31 0.33 0.35
0.19 0.21 0.23 0.27 0.31 0.35 0.37 0.38 0.38 0.36 0.34 0.34 0.33 0.28 0.23 0.19 0.16 0.13 0.11 0.09 0.08 0.07 0.08 0.08 0.09 0.09 0.09 0.10 0.09 0.09 0.09 0.10 0.13 0.15 0.17 0.19 0.22 0.25
0.25 0.29 0.33 0.38 0.39 0.36 0.32 0.29 0.27 0.27 0.28 0.30 0.26 0.20 0.16 0.12 0.10 0.08 0.08 0.07 0.05 0.03 0.03 0.02 0.02 0.02 0.02 0.02 0.02 0.02 0.03 0.06 0.09 0.13 0.17 0.21 0.23 0.26
0.30 0.33 0.36 0.38 0.34 0.31 0.27 0.23 0.23 0.26 0.27 0.25 0.19 0.13 0.08 0.06 0.06 0.06 0.07 0.08 0.05 0.01 0.01 0.01 0.00 0.00 0.00 0.00 0.00 0.01 0.03 0.05 0.08 0.11 0.14 0.16 0.18 0.20
0.29 0.28 0.25 0.23 0.20 0.16 0.16 0.17 0.19 0.18 0.15 0.12 0.07 0.04 0.03 0.03 0.06 0.09 0.08 0.09 0.06 0.01 0.01 0.01 0.00 0.00 0.00 0.00 0.00 0.01 0.02 0.03 0.05 0.08 0.10 0.13 0.15 0.17
0.23 0.19 0.15 0.11 0.08 0.08 0.11 0.14 0.08 0.04 0.03 0.02 0.02 0.02 0.02 0.03 0.06 0.12 0.11 0.08 0.03 0.00 0.00 0.01 0.00 0.00 0.00 0.00 0.00 0.00 0.01 0.02 0.04 0.07 0.09 0.12 0.15 0.18
0.12 0.09 0.06 0.04 0.04 0.08 0.10 0.07 0.02 0.01 0.00 0.01 0.02 0.02 0.02 0.03 0.03 0.05 0.08 0.10 0.06 0.00 0.00 0.00 0.00 0.00 0.00 0.00 0.00 0.00 0.00 0.01 0.02 0.03 0.05 0.07 0.10 0.13
0.03 0.02 0.02 0.02 0.05 0.08 0.06 0.04 0.02 0.00 0.01 0.01 0.00 0.00 0.00 0.00 0.00 0.02 0.09 0.24 0.19 0.09 0.00 0.03 0.05 0.07 0.13 0.01 0.00 0.00 0.00 0.00 0.00 0.01 0.02 0.04 0.07 0.11
0.01 0.01 0.01 0.03 0.05 0.06 0.05 0.02 0.01 0.04 0.03 0.01 0.00 0.00 0.00 0.00 0.00 0.00 0.03 0.23 0.36 0.21 0.03 0.17 0.27 0.13 0.21 0.09 0.00 0.00 0.00 0.00 0.01 0.01 0.01 0.03 0.08 0.18
0.01 0.00 0.01 0.03 0.04 0.03 0.01 0.01 0.03 0.02 0.00 0.00 0.00 0.00 0.00 0.00 0.00 0.00 0.01 0.03 0.13 0.20 0.09 0.25 0.49 0.30 0.34 0.22 0.04 0.00 0.00 0.00 0.02 0.03 0.04 0.07 0.12 0.18
0.01 0.02 0.02 0.02 0.01 0.00 0.00 0.00 0.00 0.00 0.00 0.01 0.01 0.00 0.00 0.00 0.00 0.00 0.01 0.01 0.01 0.01 0.02 0.06 0.25 0.32 0.42 0.39 0.19 0.05 0.03 0.01 0.01 0.05 0.10 0.14 0.18 0.23
0.01 0.01 0.01 0.00 0.00 0.00 0.00 0.00 0.00 0.00 0.01 0.03 0.02 0.01 0.00 0.00 0.00 0.01 0.03 0.03 0.04 0.01 0.00 0.01 0.06 0.25 0.38 0.25 0.28 0.19 0.09 0.12 0.08 0.12 0.16 0.15 0.17 0.26
0.02 0.00 0.00 0.00 0.00 0.00 0.00 0.00 0.00 0.00 0.00 0.01 0.02 0.03 0.01 0.01 0.00 0.01 0.04 0.07 0.09 0.04 0.01 0.00 0.01 0.05 0.14 0.20 0.23 0.12 0.07 0.12 0.19 0.24 0.27 0.22 0.13 0.21
0.01 0.00 0.00 0.00 0.00 0.00 0.00 0.00 0.00 0.01 0.01 0.03 0.04 0.05 0.07 0.06 0.04 0.02 0.04 0.08 0.10 0.06 0.04 0.02 0.04 0.09 0.06 0.04 0.08 0.14 0.16 0.19 0.19 0.20 0.27 0.42 0.27 0.20
0.00 0.00 0.00 0.00 0.00 0.01 0.01 0.02 0.02 0.01 0.03 0.05 0.07 0.09 0.12 0.09 0.07 0.06 0.06 0.07 0.07 0.05 0.04 0.05 0.13 0.35 0.38 0.14 0.02 0.10 0.27 0.32 0.26 0.26 0.31 0.51 0.60 0.41
0.00 0.00 0.00 0.00 0.01 0.02 0.02 0.03 0.03 0.02 0.03 0.04 0.06 0.10 0.14 0.15 0.11 0.09 0.09 0.11 0.13 0.10 0.06 0.03 0.09 0.36 0.67 0.53 0.30 0.09 0.12 0.29 0.52 0.58 0.42 0.34 0.36 0.29
0.00 0.00 0.00 0.01 0.02 0.03 0.03 0.04 0.05 0.05 0.05 0.08 0.09 0.11 0.16 0.20 0.15 0.10 0.11 0.10 0.13 0.14 0.12 0.06 0.04 0.13 0.34 0.53 0.38 0.09 0.05 0.10 0.36 0.71 0.73 0.59 0.36 0.19
0.00 0.01 0.01 0.01 0.03 0.04 0.05 0.05 0.06 0.05 0.06 0.09 0.10 0.13 0.15 0.21 0.22 0.16 0.14 0.15 0.14 0.14 0.14 0.07 0.03 0.07 0.23 0.45 0.33 0.10 0.03 0.02 0.06 0.14 0.39 0.84 1.22 1.15
0.02 0.02 0.02 0.02 0.04 0.06 0.06 0.06 0.06 0.06 0.08 0.13 0.14 0.14 0.17 0.19 0.16 0.16 0.17 0.21 0.24 0.20 0.15 0.10 0.05 0.06 0.11 0.19 0.23 0.15 0.06 0.03 0.03 0.06 0.13 0.27 0.55 0.81

GEFSNE_prec_meanprecacc_078.txt.gz
Total_Precipitation_Accumulation
0.40 0.39 0.37 0.33 0.33 0.34 0.37 0.43 0.51 0.49 0.38 0.30 0.29 0.32 0.36 0.40 0.46 0.48 0.47 0.58 0.63 0.65 0.69 0.72 0.71 0.66 0.63 0.62 0.63 0.65 0.68 0.68 0.68 0.69 0.67 0.62 0.61 0.68
0.38 0.39 0.39 0.37 0.37 0.38 0.42 0.49 0.57 0.65 0.62 0.47 0.41 0.42 0.48 0.53 0.60 0.56 0.54 0.61 0.61 0.62 0.65 0.64 0.58 0.53 0.50 0.49 0.52 0.56 0.59 0.60 0.63 0.67 0.72 0.74 0.76 0.79
0.32 0.35 0.37 0.37 0.39 0.41 0.46 0.53 0.61 0.69 0.75 0.65 0.56 0.54 0.55 0.54 0.53 0.47 0.44 0.44 0.43 0.49 0.51 0.49 0.44 0.41 0.40 0.42 0.44 0.46 0.48 0.51 0.54 0.59 0.65 0.70 0.72 0.73
0.29 0.33 0.36 0.37 0.39 0.41 0.45 0.51 0.57 0.62 0.66 0.64 0.56 0.49 0.45 0.41 0.38 0.33 0.29 0.27 0.26 0.32 0.35 0.37 0.35 0.34 0.34 0.34 0.35 0.38 0.42 0.46 0.46 0.46 0.49 0.51 0.53 0.56
0.24 0.27 0.29 0.31 0.34 0.36 0.38 0.42 0.45 0.46 0.47 0.45 0.41 0.36 0.32 0.29 0.26 0.22 0.18 0.16 0.14 0.17 0.19 0.20 0.21 0.22 0.23 0.25 0.25 0.26 0.27 0.28 0.27 0.27 0.30 0.34 0.36 0.40
0.19 0.21 0.23 0.27 0.31 0.35 0.37 0.38 0.38 0.36 0.35 0.34 0.33 0.28 0.24 0.20 0.17 0.13 0.11 0.09 0.08 0.07 0.08 0.08 0.09 0.09 0.09 0.10 0.10 0.09 0.09 0.11 0.14 0.16 0.19 0.21 0.25 0.29
0.25 0.29 0.33 0.38 0.39 0.36 0.32 0.29 0.27 0.27 0.28 0.30 0.26 0.20 0.16 0.13 0.10 0.08 0.08 0.07 0.05 0.03 0.03 0.02 0.02 0.02 0.02 0.02 0.03 0.02 0.04 0.06 0.10 0.14 0.18 0.22 0.24 0.27
0.30 0.33 0.36 0.38 0.34 0.31 0.27 0.23 0.23 0.26 0.27 0.25 0.19 0.13 0.08 0.06 0.06 0.06 0.07 0.08 0.05 0.01 0.01 0.01 0.00 0.00 0.00 0.00 0.01 0.01 0.03 0.05 0.08 0.12 0.15 0.17 0.19 0.21
0.29 0.28 0.25 0.23 0.20 0.16 0.16 0.18 0.19 0.18 0.15 0.12 0.07 0.04 0.03 0.03 0.06 0.09 0.08 0.09 0.06 0.01 0.01 0.01 0.00 0.00 0.00 0.00 0.00 0.01 0.02 0.03 0.05 0.08 0.11 0.13 0.16 0.17
0.23 0.19 0.15 0.11 0.09 0.08 0.11 0.14 0.08 0.04 0.03 0.02 0.02 0.02 0.02 0.03 0.06 0.12 0.11 0.08 0.03 0.00 0.00 0.01 0.00 0.00 0.00 0.00 0.00 0.00 0.01 0.02 0.04 0.07 0.09 0.12 0.15 0.18
0.12 0.09 0.06 0.04 0.04 0.08 0.10 0.07 0.02 0.01 0.00 0.01 0.02 0.02 0.02 0.03 0.03 0.05 0.08 0.10 0.06 0.00 0.00 0.00 0.00 0.00 0.00 0.00 0.00 0.00 0.00 0.01 0.02 0.03 0.05 0.07 0.10 0.13
0.03 0.02 0.02 0.02 0.05 0.08 0.06 0.04 0.02 0.00 0.01 0.01 0.00 0.00 0.00 0.00 0.00 0.02 0.09 0.24 0.19 0.09 0.00 0.03 0.05 0.07 0.13 0.01 0.00 0.00 0.00 0.00 0.00 0.01 0.02 0.04 0.07 0.11
0.01 0.01 0.01 0.03 0.05 0.06 0.05 0.02 0.01 0.04 0.03 0.01 0.00 0.00 0.00 0.00 0.00 0.00 0.03 0.23 0.36 0.21 0.03 0.17 0.27 0.13 0.21 0.09 0.00 0.00 0.00 0.00 0.01 0.01 0.01 0.03 0.08 0.18
0.01 0.00 0.01 0.03 0.04 0.03 0.01 0.01 0.03 0.02 0.00 0.00 0.00 0.00 0.00 0.00 0.00 0.00 0.01 0.03 0.13 0.20 0.09 0.25 0.49 0.30 0.34 0.22 0.04 0.00 0.00 0.00 0.02 0.03 0.04 0.07 0.12 0.18
0.01 0.02 0.02 0.02 0.01 0.00 0.00 0.00 0.00 0.00 0.00 0.01 0.01 0.00 0.00 0.00 0.00 0.00 0.01 0.01 0.01 0.01 0.02 0.06 0.25 0.32 0.43 0.39 0.19 0.05 0.03 0.01 0.01 0.05 0.10 0.14 0.18 0.23
0.01 0.01 0.01 0.00 0.00 0.00 0.00 0.00 0.00 0.00 0.01 0.03 0.02 0.01 0.00 0.00 0.00 0.01 0.03 0.03 0.04 0.01 0.00 0.01 0.06 0.25 0.38 0.25 0.28 0.19 0.09 0.12 0.08 0.12 0.16 0.15 0.17 0.26
0.02 0.00 0.00 0.00 0.00 0.00 0.00 0.00 0.00 0.00 0.00 0.01 0.02 0.03 0.01 0.01 0.00 0.01 0.04 0.07 0.09 0.04 0.01 0.00 0.01 0.05 0.14 0.20 0.23 0.12 0.07 0.12 0.19 0.24 0.27 0.22 0.13 0.21
0.01 0.00 0.00 0.00 0.00 0.00 0.00 0.00 0.00 0.01 0.01 0.03 0.04 0.05 0.07 0.06 0.04 0.02 0.04 0.08 0.10 0.06 0.04 0.02 0.04 0.09 0.06 0.04 0.08 0.14 0.16 0.19 0.19 0.20 0.27 0.42 0.27 0.20
0.00 0.00 0.00 0.00 0.00 0.01 0.01 0.02 0.02 0.01 0.03 0.05 0.07 0.09 0.12 0.09 0.07 0.06 0.06 0.07 0.07 0.05 0.04 0.05 0.13 0.36 0.38 0.14 0.02 0.10 0.27 0.32 0.26 0.26 0.31 0.51 0.60 0.41
0.00 0.00 0.01 0.01 0.01 0.02 0.03 0.04 0.03 0.03 0.03 0.05 0.07 0.10 0.14 0.15 0.11 0.09 0.09 0.11 0.14 0.10 0.06 0.03 0.09 0.36 0.67 0.54 0.30 0.09 0.12 0.29 0.52 0.58 0.42 0.34 0.36 0.29
0.01 0.01 0.01 0.02 0.03 0.04 0.05 0.05 0.06 0.06 0.06 0.08 0.10 0.12 0.16 0.20 0.16 0.11 0.11 0.10 0.13 0.14 0.12 0.06 0.04 0.13 0.35 0.54 0.39 0.09 0.05 0.10 0.36 0.71 0.73 0.59 0.36 0.19
0.01 0.01 0.02 0.02 0.04 0.05 0.06 0.07 0.07 0.06 0.07 0.10 0.11 0.14 0.16 0.22 0.22 0.17 0.14 0.16 0.14 0.14 0.14 0.07 0.03 0.07 0.24 0.46 0.33 0.10 0.03 0.02 0.06 0.14 0.39 0.84 1.23 1.15
0.03 0.03 0.03 0.04 0.05 0.07 0.08 0.08 0.07 0.07 0.09 0.14 0.16 0.16 0.18 0.20 0.17 0.17 0.17 0.21 0.25 0.20 0.15 0.10 0.05 0.07 0.12 0.19 0.24 0.15 0.06 0.03 0.03 0.06 0.13 0.27 0.55 0.81

GEFSNE_prec_meanprecacc_084.txt.gz
Total_Precipitation_Accumulation
0.42 0.41 0.37 0.34 0.33 0.34 0.37 0.43 0.52 0.49 0.38 0.30 0.29 0.32 0.36 0.40 0.47 0.48 0.48 0.59 0.64 0.66 0.70 0.73 0.72 0.67 0.63 0.63 0.64 0.66 0.69 0.69 0.70 0.71 0.70 0.66 0.67 0.76
0.39 0.40 0.40 0.38 0.37 0.38 0.42 0.49 0.57 0.66 0.62 0.47 0.41 0.42 0.48 0.53 0.60 0.56 0.54 0.62 0.61 0.62 0.65 0.64 0.58 0.53 0.50 0.49 0.52 0.57 0.60 0.62 0.65 0.70 0.76 0.78 0.82 0.87
0.33 0.36 0.38 0.37 0.39 0.41 0.46 0.53 0.61 0.69 0.75 0.65 0.56 0.54 0.55 0.54 0.53 0.48 0.44 0.44 0.43 0.50 0.51 0.49 0.45 0.41 0.41 0.42 0.44 0.46 0.49 0.53 0.56 0.62 0.69 0.75 0.78 0.79
0.31 0.34 0.37 0.37 0.40 0.41 0.45 0.51 0.57 0.62 0.66 0.64 0.56 0.50 0.45 0.42 0.38 0.34 0.30 0.27 0.26 0.33 0.36 0.37 0.36 0.34 0.34 0.35 0.36 0.39 0.43 0.47 0.48 0.49 0.53 0.57 0.59 0.60
0.25 0.28 0.30 0.32 0.34 0.36 0.38 0.42 0.45 0.46 0.47 0.46 0.41 0.36 0.32 0.30 0.27 0.22 0.18 0.16 0.15 0.17 0.19 0.20 0.21 0.22 0.23 0.25 0.26 0.27 0.28 0.29 0.28 0.29 0.33 0.38 0.41 0.44
0.20 0.22 0.24 0.27 0.31 0.35 0.37 0.38 0.38 0.36 0.35 0.34 0.33 0.29 0.24 0.20 0.17 0.14 0.11 0.10 0.08 0.07 0.08 0.08 0.09 0.09 0.09 0.10 0.10 0.09 0.10 0.12 0.16 0.18 0.20 0.24 0.27 0.31
0.25 0.29 0.33 0.39 0.39 0.36 0.32 0.29 0.27 0.27 0.28 0.30 0.26 0.20 0.16 0.13 0.11 0.09 0.08 0.07 0.05 0.03 0.03 0.02 0.02 0.02 0.02 0.02 0.03 0.03 0.04 0.07 0.11 0.15 0.20 0.23 0.26 0.29
0.31 0.33 0.36 0.38 0.34 0.31 0.27 0.23 0.23 0.26 0.27 0.25 0.19 0.13 0.08 0.06 0.06 0.06 0.07 0.08 0.05 0.01 0.01 0.01 0.00 0.00 0.00 0.00 0.01 0.01 0.03 0.06 0.09 0.13 0.16 0.18 0.20 0.22
0.29 0.28 0.25 0.23 0.20 0.16 0.16 0.18 0.19 0.18 0.15 0.12 0.07 0.04 0.03 0.03 0.06 0.09 0.08 0.09 0.06 0.01 0.01 0.01 0.00 0.00 0.00 0.00 0.00 0.01 0.02 0.03 0.06 0.09 0.11 0.14 0.17 0.18
0.23 0.19 0.15 0.11 0.09 0.08 0.11 0.14 0.08 0.04 0.03 0.02 0.02 0.02 0.02 0.03 0.06 0.12 0.11 0.08 0.03 0.00 0.00 0.01 0.00 0.00 0.00 0.00 0.00 0.00 0.01 0.02 0.04 0.07 0.10 0.13 0.16 0.19
0.12 0.09 0.06 0.04 0.04 0.09 0.10 0.07 0.02 0.01 0.00 0.01 0.02 0.02 0.02 0.03 0.03 0.05 0.08 0.10 0.06 0.00 0.00 0.00 0.00 0.00 0.00 0.00 0.00 0.00 0.00 0.01 0.02 0.03 0.05 0.07 0.10 0.13
0.04 0.02 0.02 0.02 0.05 0.08 0.06 0.04 0.02 0.00 0.01 0.01 0.00 0.00 0.00 0.00 0.00 0.02 0.09 0.24 0.19 0.09 0.00 0.03 0.05 0.07 0.13 0.01 0.00 0.00 0.00 0.00 0.00 0.01 0.02 0.04 0.07 0.11
0.01 0.01 0.01 0.03 0.05 0.06 0.05 0.02 0.01 0.04 0.03 0.01 0.00 0.00 0.00 0.00 0.00 0.00 0.03 0.23 0.36 0.21 0.03 0.17 0.27 0.13 0.21 0.09 0.00 0.00 0.00 0.00 0.01 0.01 0.01 0.03 0.08 0.18
0.01 0.00 0.01 0.03 0.04 0.03 0.01 0.01 0.03 0.02 0.00 0.00 0.00 0.00 0.00 0.00 0.00 0.00 0.01 0.03 0.13 0.20 0.09 0.25 0.49 0.30 0.34 0.22 0.04 0.00 0.00 0.00 0.02 0.03 0.04 0.07 0.12 0.18
0.01 0.02 0.02 0.02 0.01 0.00 0.00 0.00 0.00 0.00 0.00 0.01 0.01 0.00 0.00 0.00 0.00 0.00 0.01 0.01 0.01 0.01 0.02 0.06 0.25 0.32 0.43 0.39 0.19 0.05 0.03 0.01 0.01 0.05 0.10 0.14 0.18 0.23
0.01 0.01 0.01 0.00 0.00 0.00 0.00 0.00 0.00 0.00 0.01 0.03 0.02 0.01 0.00 0.00 0.00 0.01 0.03 0.03 0.04 0.01 0.00 0.01 0.06 0.25 0.38 0.25 0.28 0.19 0.09 0.12 0.08 0.12 0.16 0.15 0.17 0.26
0.02 0.01 0.00 0.00 0.00 0.00 0.00 0.00 0.00 0.00 0.00 0.01 0.02 0.03 0.01 0.01 0.00 0.01 0.04 0.07 0.09 0.04 0.01 0.00 0.01 0.05 0.14 0.21 0.23 0.12 0.07 0.12 0.19 0.24 0.27 0.22 0.13 0.21
0.02 0.01 0.00 0.00 0.00 0.00 0.00 0.00 0.00 0.01 0.01 0.03 0.04 0.06 0.07 0.06 0.04 0.02 0.04 0.08 0.10 0.06 0.04 0.02 0.04 0.09 0.06 0.04 0.08 0.14 0.16 0.19 0.19 0.20 0.27 0.42 0.27 0.20
0.02 0.01 0.01 0.01 0.01 0.01 0.01 0.02 0.02 0.01 0.03 0.05 0.07 0.09 0.12 0.10 0.07 0.06 0.06 0.07 0.07 0.05 0.04 0.05 0.13 0.36 0.38 0.14 0.02 0.10 0.27 0.32 0.26 0.26 0.31 0.51 0.60 0.41
0.01 0.01 0.01 0.01 0.01 0.02 0.03 0.04 0.04 0.03 0.04 0.05 0.07 0.10 0.14 0.15 0.12 0.09 0.09 0.11 0.14 0.10 0.06 0.03 0.10 0.36 0.67 0.54 0.30 0.09 0.12 0.29 0.52 0.58 0.42 0.34 0.36 0.29
0.01 0.01 0.02 0.02 0.04 0.05 0.05 0.06 0.07 0.07 0.07 0.09 0.11 0.13 0.17 0.21 0.16 0.11 0.12 0.10 0.13 0.14 0.12 0.06 0.05 0.13 0.36 0.55 0.39 0.09 0.05 0.10 0.36 0.71 0.73 0.59 0.36 0.19
0.03 0.03 0.03 0.04 0.06 0.07 0.08 0.08 0.09 0.07 0.09 0.11 0.13 0.15 0.18 0.23 0.23 0.17 0.15 0.16 0.15 0.15 0.14 0.07 0.03 0.08 0.25 0.47 0.33 0.10 0.03 0.02 0.06 0.14 0.39 0.84 1.23 1.15
0.06 0.05 0.05 0.06 0.08 0.09 0.10 0.09 0.09 0.08 0.11 0.15 0.17 0.17 0.20 0.21 0.17 0.17 0.18 0.22 0.25 0.21 0.16 0.11 0.06 0.07 0.12 0.20 0.24 0.15 0.06 0.03 0.03 0.06 0.13 0.27 0.55 0.81

GEFSNE_prec_meanprecacc_090.txt.gz
Total_Precipitation_Accumulation
0.50 0.47 0.42 0.37 0.35 0.35 0.38 0.44 0.53 0.50 0.38 0.30 0.29 0.32 0.36 0.40 0.47 0.48 0.48 0.59 0.64 0.67 0.71 0.73 0.72 0.67 0.64 0.63 0.64 0.67 0.69 0.70 0.71 0.73 0.73 0.72 0.78 0.86
0.47 0.47 0.45 0.42 0.40 0.40 0.43 0.49 0.58 0.66 0.62 0.47 0.41 0.42 0.48 0.53 0.60 0.56 0.54 0.62 0.62 0.63 0.65 0.64 0.59 0.54 0.51 0.50 0.52 0.57 0.60 0.62 0.65 0.71 0.78 0.82 0.89 0.97
0.38 0.40 0.42 0.41 0.41 0.43 0.47 0.53 0.61 0.69 0.75 0.65 0.56 0.54 0.55 0.54 0.53 0.48 0.44 0.44 0.44 0.51 0.51 0.49 0.45 0.41 0.41 0.43 0.45 0.47 0.50 0.53 0.58 0.64 0.72 0.78 0.81 0.83
0.35 0.38 0.40 0.40 0.42 0.42 0.46 0.52 0.58 0.62 0.66 0.64 0.56 0.50 0.45 0.42 0.38 0.34 0.30 0.28 0.26 0.34 0.36 0.37 0.36 0.34 0.34 0.35 0.37 0.39 0.43 0.48 0.50 0.51 0.55 0.60 0.62 0.64
0.28 0.30 0.32 0.34 0.36 0.37 0.39 0.43 0.45 0.47 0.47 0.46 0.41 0.36 0.32 0.30 0.27 0.22 0.18 0.16 0.15 0.18 0.20 0.20 0.21 0.22 0.24 0.25 0.26 0.28 0.28 0.30 0.30 0.30 0.35 0.42 0.48 0.49
0.22 0.23 0.25 0.28 0.33 0.36 0.38 0.39 0.38 0.37 0.35 0.34 0.33 0.29 0.24 0.20 0.17 0.14 0.11 0.10 0.09 0.07 0.09 0.08 0.09 0.09 0.09 0.10 0.10 0.10 0.11 0.13 0.17 0.20 0.22 0.26 0.33 0.40
0.28 0.31 0.35 0.41 0.42 0.38 0.34 0.31 0.28 0.27 0.29 0.30 0.27 0.21 0.16 0.13 0.11 0.09 0.08 0.07 0.05 0.03 0.03 0.02 0.02 0.02 0.02 0.02 0.03 0.03 0.04 0.08 0.14 0.18 0.22 0.25 0.28 0.32
0.33 0.36 0.38 0.40 0.37 0.33 0.29 0.24 0.23 0.26 0.27 0.25 0.19 0.13 0.08 0.06 0.06 0.06 0.07 0.08 0.05 0.01 0.01 0.01 0.00 0.00 0.00 0.00 0.01 0.02 0.03 0.06 0.11 0.15 0.18 0.20 0.22 0.24
0.32 0.30 0.28 0.25 0.22 0.18 0.17 0.18 0.20 0.18 0.15 0.12 0.08 0.04 0.03 0.03 0.06 0.09 0.08 0.09 0.06 0.01 0.01 0.01 0.00 0.00 0.00 0.00 0.00 0.01 0.02 0.03 0.07 0.10 0.13 0.16 0.18 0.20
0.26 0.21 0.17 0.13 0.11 0.10 0.12 0.15 0.08 0.04 0.03 0.02 0.02 0.02 0.02 0.03 0.06 0.12 0.11 0.08 0.03 0.00 0.00 0.01 0.00 0.00 0.00 0.00 0.00 0.00 0.01 0.02 0.04 0.07 0.11 0.14 0.17 0.20
0.14 0.11 0.08 0.06 0.06 0.10 0.11 0.07 0.03 0.01 0.00 0.01 0.02 0.02 0.02 0.03 0.03 0.05 0.08 0.10 0.06 0.00 0.00 0.00 0.00 0.00 0.00 0.00 0.00 0.00 0.00 0.01 0.02 0.03 0.05 0.08 0.10 0.14
0.05 0.04 0.04 0.04 0.06 0.09 0.06 0.04 0.02 0.01 0.02 0.01 0.00 0.00 0.00 0.00 0.00 0.02 0.09 0.24 0.19 0.09 0.00 0.03 0.05 0.07 0.13 0.01 0.00 0.00 0.00 0.00 0.00 0.01 0.02 0.04 0.07 0.11
0.04 0.03 0.02 0.04 0.06 0.07 0.05 0.02 0.02 0.04 0.03 0.01 0.00 0.00 0.00 0.00 0.00 0.00 0.03 0.23 0.36 0.21 0.03 0.17 0.27 0.13 0.21 0.09 0.00 0.00 0.00 0.00 0.01 0.01 0.01 0.03 0.08 0.18
0.03 0.02 0.02 0.05 0.05 0.04 0.02 0.01 0.03 0.03 0.00 0.00 0.00 0.00 0.00 0.00 0.00 0.00 0.01 0.03 0.13 0.20 0.09 0.25 0.49 0.30 0.34 0.22 0.04 0.00 0.00 0.00 0.02 0.03 0.04 0.07 0.12 0.18
0.04 0.05 0.05 0.05 0.03 0.02 0.01 0.01 0.01 0.00 0.01 0.01 0.01 0.00 0.00 0.00 0.00 0.00 0.01 0.01 0.01 0.01 0.02 0.06 0.25 0.32 0.43 0.39 0.19 0.05 0.03 0.01 0.01 0.05 0.10 0.14 0.18 0.23
0.06 0.05 0.05 0.04 0.03 0.01 0.01 0.01 0.00 0.00 0.01 0.03 0.02 0.01 0.00 0.00 0.00 0.01 0.03 0.03 0.04 0.01 0.00 0.01 0.06 0.25 0.38 0.25 0.28 0.19 0.09 0.12 0.08 0.12 0.16 0.15 0.17 0.26
0.09 0.06 0.05 0.04 0.03 0.02 0.01 0.00 0.00 0.00 0.01 0.01 0.02 0.03 0.01 0.01 0.00 0.01 0.04 0.07 0.09 0.04 0.01 0.00 0.01 0.05 0.14 0.21 0.23 0.12 0.07 0.12 0.19 0.24 0.27 0.22 0.13 0.21
0.14 0.09 0.05 0.03 0.02 0.02 0.01 0.01 0.01 0.01 0.02 0.03 0.04 0.06 0.07 0.06 0.04 0.02 0.04 0.08 0.10 0.06 0.04 0.02 0.04 0.09 0.06 0.04 0.08 0.14 0.16 0.19 0.19 0.20 0.27 0.42 0.27 0.20
0.14 0.08 0.05 0.04 0.03 0.03 0.03 0.03 0.02 0.01 0.03 0.05 0.07 0.10 0.12 0.10 0.07 0.06 0.06 0.08 0.08 0.05 0.04 0.05 0.13 0.36 0.38 0.15 0.02 0.10 0.27 0.32 0.26 0.26 0.31 0.51 0.60 0.41
0.10 0.05 0.04 0.05 0.05 0.05 0.05 0.05 0.04 0.04 0.04 0.05 0.07 0.11 0.15 0.16 0.12 0.10 0.09 0.12 0.14 0.11 0.06 0.03 0.10 0.36 0.67 0.54 0.30 0.09 0.12 0.29 0.52 0.58 0.42 0.34 0.36 0.29
0.06 0.04 0.04 0.06 0.07 0.08 0.08 0.08 0.08 0.08 0.07 0.10 0.11 0.13 0.17 0.22 0.17 0.12 0.12 0.11 0.14 0.15 0.13 0.06 0.05 0.13 0.36 0.55 0.40 0.09 0.05 0.10 0.36 0.71 0.73 0.59 0.36 0.19
0.07 0.06 0.07 0.08 0.10 0.11 0.12 0.11 0.11 0.09 0.10 0.12 0.13 0.16 0.19 0.24 0.24 0.18 0.16 0.17 0.15 0.15 0.14 0.07 0.03 0.08 0.25 0.47 0.34 0.10 0.03 0.02 0.06 0.14 0.39 0.84 1.23 1.15
0.10 0.10 0.10 0.12 0.14 0.15 0.15 0.14 0.12 0.10 0.12 0.17 0.18 0.18 0.21 0.23 0.19 0.19 0.19 0.23 0.26 0.22 0.17 0.12 0.06 0.08 0.13 0.20 0.24 0.15 0.06 0.03 0.04 0.06 0.13 0.27 0.55 0.81

GEFSNE_prec_meanprecacc_096.txt.gz
Total_Precipitation_Accumulation
0.62 0.56 0.48 0.42 0.40 0.40 0.42 0.47 0.56 0.52 0.40 0.30 0.30 0.32 0.36 0.40 0.47 0.48 0.48 0.59 0.64 0.67 0.71 0.73 0.72 0.68 0.64 0.63 0.65 0.67 0.69 0.70 0.71 0.73 0.74 0.73 0.80 0.92
0.58 0.57 0.53 0.48 0.46 0.45 0.48 0.53 0.61 0.69 0.65 0.48 0.41 0.43 0.48 0.53 0.60 0.56 0.54 0.62 0.62 0.63 0.65 0.64 0.59 0.54 0.51 0.50 0.52 0.57 0.60 0.62 0.66 0.72 0.79 0.82 0.91 1.04
0.50 0.50 0.51 0.48 0.48 0.48 0.52 0.58 0.65 0.73 0.78 0.67 0.58 0.55 0.56 0.54 0.53 0.48 0.44 0.44 0.44 0.51 0.51 0.49 0.45 0.41 0.41 0.43 0.45 0.47 0.50 0.54 0.58 0.65 0.72 0.78 0.82 0.86
0.46 0.48 0.49 0.48 0.49 0.49 0.51 0.56 0.61 0.65 0.68 0.66 0.57 0.51 0.46 0.42 0.38 0.34 0.30 0.28 0.27 0.34 0.37 0.37 0.36 0.34 0.34 0.35 0.37 0.39 0.44 0.48 0.50 0.52 0.56 0.61 0.63 0.66
0.41 0.41 0.42 0.42 0.43 0.44 0.45 0.48 0.49 0.49 0.49 0.47 0.42 0.37 0.33 0.30 0.27 0.22 0.18 0.16 0.15 0.18 0.20 0.20 0.21 0.22 0.24 0.25 0.27 0.28 0.29 0.30 0.31 0.31 0.36 0.43 0.51 0.53
0.35 0.36 0.37 0.38 0.40 0.43 0.44 0.43 0.42 0.39 0.37 0.36 0.35 0.29 0.25 0.20 0.17 0.14 0.11 0.10 0.09 0.07 0.09 0.08 0.09 0.09 0.09 0.10 0.10 0.10 0.11 0.14 0.18 0.21 0.23 0.28 0.35 0.43
0.37 0.41 0.44 0.49 0.49 0.44 0.38 0.34 0.31 0.29 0.30 0.31 0.27 0.21 0.16 0.13 0.11 0.09 0.08 0.07 0.05 0.03 0.03 0.02 0.02 0.02 0.02 0.02 0.03 0.03 0.05 0.09 0.15 0.19 0.23 0.26 0.30 0.35
0.39 0.41 0.43 0.46 0.43 0.40 0.34 0.28 0.26 0.28 0.29 0.26 0.20 0.13 0.09 0.07 0.06 0.07 0.07 0.08 0.05 0.01 0.01 0.01 0.00 0.00 0.00 0.00 0.01 0.02 0.04 0.07 0.12 0.16 0.19 0.21 0.23 0.25
0.37 0.35 0.31 0.28 0.26 0.22 0.22 0.23 0.23 0.21 0.17 0.13 0.08 0.05 0.04 0.04 0.07 0.10 0.09 0.10 0.07 0.01 0.02 0.01 0.00 0.00 0.00 0.00 0.00 0.01 0.02 0.04 0.07 0.11 0.15 0.18 0.20 0.21
0.32 0.27 0.21 0.16 0.13 0.13 0.15 0.18 0.11 0.07 0.04 0.03 0.03 0.02 0.03 0.04 0.07 0.13 0.12 0.09 0.03 0.00 0.00 0.01 0.00 0.00 0.00 0.00 0.00 0.00 0.01 0.02 0.05 0.08 0.12 0.16 0.19 0.22
0.21 0.17 0.14 0.10 0.10 0.14 0.14 0.10 0.06 0.03 0.03 0.03 0.04 0.04 0.04 0.04 0.04 0.06 0.09 0.10 0.06 0.00 0.00 0.00 0.00 0.00 0.00 0.00 0.00 0.00 0.00 0.01 0.02 0.04 0.06 0.09 0.12 0.15
0.11 0.09 0.09 0.08 0.11 0.14 0.10 0.07 0.05 0.04 0.04 0.03 0.02 0.01 0.01 0.01 0.01 0.02 0.09 0.24 0.20 0.09 0.00 0.03 0.05 0.07 0.13 0.01 0.00 0.00 0.00 0.00 0.00 0.01 0.02 0.05 0.08 0.12
0.07 0.06 0.06 0.10 0.12 0.12 0.10 0.06 0.06 0.08 0.07 0.04 0.03 0.02 0.02 0.01 0.01 0.01 0.04 0.23 0.36 0.21 0.03 0.17 0.27 0.13 0.21 0.09 0.00 0.00 0.00 0.00 0.01 0.01 0.01 0.03 0.08 0.18
0.07 0.06 0.06 0.10 0.12 0.11 0.08 0.07 0.08 0.08 0.05 0.04 0.04 0.03 0.02 0.02 0.01 0.01 0.01 0.03 0.13 0.20 0.09 0.25 0.49 0.30 0.34 0.22 0.04 0.00 0.00 0.00 0.02 0.03 0.04 0.07 0.12 0.18
0.09 0.09 0.10 0.11 0.11 0.10 0.09 0.08 0.07 0.05 0.04 0.04 0.03 0.02 0.02 0.02 0.01 0.01 0.01 0.01 0.01 0.01 0.02 0.06 0.25 0.32 0.43 0.39 0.19 0.05 0.03 0.01 0.01 0.05 0.10 0.14 0.18 0.23
0.13 0.11 0.12 0.11 0.11 0.10 0.09 0.08 0.06 0.05 0.05 0.05 0.04 0.02 0.01 0.01 0.01 0.01 0.03 0.03 0.04 0.01 0.00 0.01 0.06 0.25 0.38 0.25 0.28 0.19 0.09 0.12 0.08 0.12 0.16 0.15 0.17 0.26
0.18 0.14 0.12 0.11 0.10 0.08 0.07 0.07 0.05 0.04 0.04 0.04 0.05 0.05 0.03 0.01 0.01 0.01 0.04 0.07 0.09 0.04 0.01 0.00 0.01 0.05 0.14 0.21 0.23 0.12 0.07 0.12 0.19 0.24 0.27 0.22 0.13 0.21
0.26 0.19 0.14 0.11 0.09 0.08 0.07 0.07 0.06 0.06 0.05 0.06 0.06 0.07 0.08 0.06 0.04 0.02 0.04 0.09 0.10 0.06 0.04 0.02 0.04 0.09 0.06 0.04 0.08 0.14 0.16 0.19 0.19 0.20 0.27 0.42 0.27 0.20
0.26 0.18 0.13 0.11 0.10 0.10 0.10 0.10 0.09 0.07 0.08 0.09 0.10 0.11 0.13 0.10 0.07 0.07 0.06 0.08 0.08 0.05 0.04 0.05 0.13 0.36 0.38 0.15 0.02 0.10 0.27 0.32 0.26 0.26 0.31 0.51 0.60 0.41
0.19 0.13 0.10 0.10 0.11 0.13 0.13 0.13 0.12 0.11 0.10 0.10 0.11 0.13 0.16 0.17 0.13 0.10 0.10 0.12 0.14 0.11 0.06 0.04 0.10 0.36 0.67 0.54 0.30 0.09 0.12 0.29 0.52 0.58 0.42 0.34 0.36 0.29
0.12 0.10 0.10 0.12 0.14 0.16 0.16 0.17 0.18 0.17 0.14 0.15 0.15 0.16 0.19 0.23 0.18 0.12 0.13 0.11 0.15 0.15 0.13 0.07 0.05 0.14 0.36 0.56 0.40 0.09 0.05 0.11 0.36 0.71 0.74 0.60 0.37 0.19
0.13 0.12 0.13 0.15 0.17 0.19 0.20 0.20 0.21 0.19 0.18 0.19 0.18 0.19 0.21 0.26 0.25 0.19 0.17 0.18 0.16 0.16 0.15 0.08 0.04 0.09 0.26 0.48 0.34 0.11 0.04 0.02 0.06 0.14 0.39 0.84 1.24 1.16
0.18 0.18 0.18 0.20 0.22 0.24 0.24 0.23 0.21 0.18 0.19 0.22 0.23 0.22 0.24 0.25 0.20 0.20 0.20 0.24 0.27 0.23 0.18 0.13 0.08 0.09 0.14 0.21 0.25 0.16 0.07 0.04 0.04 0.06 0.13 0.27 0.55 0.81

GEFSNE_prec_meanprecacc_102.txt.gz
Total_Precipitation_Accumulation
0.79 0.73 0.63 0.53 0.49 0.48 0.49 0.54 0.62 0.57 0.43 0.32 0.31 0.33 0.37 0.41 0.48 0.49 0.48 0.60 0.65 0.67 0.71 0.73 0.72 0.68 0.64 0.63 0.65 0.67 0.70 0.70 0.71 0.74 0.74 0.74 0.81 0.94
0.76 0.74 0.70 0.62 0.57 0.54 0.56 0.61 0.68 0.75 0.69 0.51 0.43 0.45 0.50 0.54 0.62 0.58 0.55 0.63 0.62 0.63 0.65 0.64 0.59 0.54 0.51 0.50 0.52 0.57 0.60 0.63 0.66 0.73 0.79 0.83 0.92 1.05
0.71 0.69 0.69 0.65 0.63 0.61 0.63 0.67 0.74 0.80 0.84 0.72 0.61 0.58 0.58 0.56 0.55 0.49 0.45 0.45 0.44 0.51 0.52 0.50 0.45 0.41 0.41 0.43 0.45 0.47 0.50 0.54 0.59 0.65 0.73 0.79 0.83 0.87
0.66 0.69 0.70 0.68 0.68 0.65 0.66 0.68 0.72 0.74 0.77 0.74 0.63 0.55 0.50 0.45 0.41 0.36 0.32 0.29 0.27 0.35 0.37 0.37 0.36 0.34 0.34 0.35 0.37 0.39 0.44 0.48 0.51 0.53 0.57 0.61 0.64 0.67
0.59 0.60 0.60 0.61 0.63 0.61 0.61 0.62 0.62 0.61 0.60 0.56 0.50 0.43 0.38 0.34 0.30 0.25 0.20 0.17 0.16 0.18 0.21 0.21 0.22 0.22 0.24 0.25 0.27 0.28 0.29 0.30 0.31 0.32 0.36 0.44 0.52 0.54
0.55 0.56 0.57 0.58 0.60 0.61 0.62 0.61 0.59 0.56 0.53 0.49 0.45 0.38 0.31 0.26 0.22 0.17 0.14 0.11 0.09 0.08 0.09 0.09 0.09 0.09 0.09 0.10 0.10 0.10 0.11 0.14 0.19 0.22 0.24 0.28 0.36 0.44
0.58 0.62 0.65 0.71 0.71 0.66 0.59 0.54 0.50 0.49 0.48 0.46 0.39 0.31 0.24 0.19 0.15 0.12 0.11 0.09 0.07 0.04 0.04 0.03 0.03 0.02 0.02 0.02 0.03 0.03 0.05 0.09 0.15 0.20 0.24 0.28 0.30 0.36
0.59 0.60 0.62 0.67 0.64 0.62 0.56 0.50 0.47 0.48 0.46 0.40 0.31 0.22 0.14 0.11 0.10 0.10 0.11 0.11 0.07 0.02 0.02 0.01 0.01 0.01 0.00 0.00 0.01 0.02 0.04 0.08 0.12 0.17 0.21 0.24 0.24 0.26
0.56 0.52 0.46 0.42 0.42 0.37 0.40 0.43 0.43 0.40 0.34 0.27 0.20 0.14 0.11 0.10 0.12 0.14 0.12 0.12 0.08 0.02 0.03 0.02 0.00 0.00 0.00 0.00 0.00 0.01 0.02 0.04 0.08 0.12 0.15 0.18 0.21 0.22
0.48 0.43 0.36 0.29 0.24 0.23 0.27 0.31 0.24 0.19 0.17 0.15 0.12 0.11 0.11 0.11 0.13 0.17 0.16 0.12 0.05 0.02 0.01 0.02 0.00 0.00 0.00 0.00 0.00 0.00 0.01 0.03 0.05 0.08 0.12 0.16 0.20 0.23
0.37 0.33 0.30 0.25 0.26 0.27 0.23 0.19 0.15 0.13 0.13 0.13 0.14 0.14 0.14 0.12 0.10 0.11 0.13 0.14 0.09 0.03 0.02 0.01 0.00 0.00 0.00 0.00 0.00 0.00 0.00 0.01 0.02 0.04 0.07 0.10 0.13 0.17
0.25 0.24 0.25 0.24 0.28 0.29 0.21 0.16 0.13 0.10 0.11 0.11 0.10 0.09 0.09 0.08 0.08 0.08 0.14 0.28 0.22 0.11 0.02 0.05 0.06 0.08 0.13 0.02 0.00 0.00 0.00 0.00 0.00 0.01 0.03 0.05 0.09 0.13
0.20 0.19 0.19 0.25 0.26 0.25 0.22 0.16 0.15 0.16 0.13 0.11 0.10 0.10 0.08 0.07 0.06 0.05 0.08 0.27 0.39 0.24 0.04 0.19 0.28 0.14 0.22 0.09 0.00 0.00 0.00 0.00 0.01 0.01 0.01 0.04 0.08 0.19
0.16 0.16 0.17 0.24 0.27 0.26 0.22 0.19 0.20 0.19 0.13 0.12 0.12 0.11 0.09 0.07 0.06 0.05 0.05 0.07 0.16 0.22 0.11 0.26 0.50 0.31 0.35 0.22 0.04 0.00 0.00 0.00 0.02 0.03 0.04 0.07 0.13 0.19
0.18 0.19 0.20 0.22 0.23 0.22 0.22 0.23 0.21 0.16 0.13 0.12 0.11 0.09 0.08 0.08 0.08 0.08 0.06 0.05 0.04 0.04 0.05 0.08 0.27 0.33 0.43 0.40 0.19 0.05 0.03 0.01 0.01 0.05 0.10 0.14 0.18 0.23
0.24 0.23 0.23 0.22 0.22 0.20 0.20 0.20 0.18 0.15 0.13 0.13 0.11 0.10 0.10 0.10 0.09 0.08 0.09 0.08 0.08 0.04 0.02 0.02 0.07 0.26 0.38 0.25 0.28 0.19 0.09 0.12 0.08 0.12 0.16 0.15 0.17 0.26
0.29 0.26 0.24 0.21 0.19 0.17 0.16 0.17 0.16 0.14 0.13 0.12 0.14 0.14 0.12 0.10 0.08 0.07 0.10 0.12 0.12 0.07 0.04 0.02 0.02 0.05 0.14 0.21 0.23 0.12 0.07 0.12 0.19 0.24 0.27 0.22 0.13 0.21
0.38 0.30 0.23 0.19 0.17 0.16 0.16 0.16 0.15 0.14 0.13 0.14 0.15 0.15 0.16 0.14 0.11 0.08 0.08 0.12 0.13 0.08 0.06 0.04 0.05 0.10 0.07 0.04 0.08 0.14 0.16 0.19 0.19 0.20 0.27 0.42 0.27 0.20
0.35 0.26 0.21 0.18 0.17 0.18 0.19 0.20 0.18 0.15 0.16 0.18 0.19 0.20 0.21 0.18 0.14 0.12 0.10 0.11 0.10 0.07 0.06 0.06 0.14 0.36 0.39 0.15 0.02 0.10 0.27 0.32 0.26 0.26 0.31 0.51 0.60 0.41
0.25 0.19 0.17 0.17 0.19 0.21 0.22 0.23 0.23 0.22 0.21 0.19 0.20 0.22 0.25 0.24 0.19 0.15 0.14 0.15 0.16 0.13 0.08 0.05 0.10 0.36 0.68 0.54 0.30 0.09 0.12 0.29 0.52 0.58 0.42 0.34 0.36 0.29
0.16 0.14 0.16 0.19 0.21 0.24 0.25 0.27 0.28 0.28 0.26 0.26 0.25 0.25 0.28 0.31 0.24 0.17 0.17 0.15 0.17 0.17 0.14 0.07 0.05 0.14 0.37 0.56 0.40 0.09 0.05 0.11 0.36 0.71 0.74 0.60 0.37 0.19
0.17 0.17 0.18 0.21 0.24 0.26 0.28 0.29 0.31 0.30 0.30 0.31 0.30 0.29 0.30 0.34 0.32 0.24 0.21 0.21 0.18 0.17 0.16 0.09 0.06 0.11 0.27 0.48 0.34 0.11 0.04 0.03 0.06 0.14 0.40 0.84 1.24 1.16
0.22 0.22 0.23 0.26 0.29 0.30 0.31 0.31 0.29 0.27 0.28 0.32 0.32 0.31 0.32 0.33 0.28 0.26 0.25 0.27 0.30 0.24 0.20 0.15 0.10 0.11 0.15 0.22 0.26 0.17 0.07 0.04 0.04 0.06 0.13 0.27 0.55 0.81

GEFSNE_prec_meanprecacc_108.txt.gz
Total_Precipitation_Accumulation
0.94 0.86 0.76 0.65 0.61 0.59 0.59 0.63 0.70 0.64 0.48 0.35 0.33 0.35 0.38 0.43 0.51 0.51 0.50 0.62 0.67 0.69 0.72 0.74 0.73 0.68 0.64 0.64 0.65 0.67 0.70 0.71 0.72 0.74 0.75 0.75 0.82 0.94
0.92 0.91 0.86 0.76 0.71 0.67 0.68 0.71 0.77 0.84 0.75 0.53 0.45 0.47 0.52 0.57 0.66 0.61 0.57 0.66 0.65 0.66 0.67 0.65 0.60 0.54 0.51 0.50 0.53 0.57 0.60 0.63 0.66 0.73 0.80 0.84 0.93 1.06
0.83 0.85 0.86 0.82 0.81 0.78 0.79 0.82 0.86 0.91 0.94 0.77 0.63 0.60 0.61 0.60 0.59 0.53 0.49 0.48 0.47 0.55 0.54 0.51 0.46 0.42 0.41 0.43 0.45 0.47 0.50 0.54 0.59 0.65 0.73 0.79 0.83 0.88
0.78 0.81 0.82 0.83 0.86 0.85 0.86 0.88 0.89 0.89 0.90 0.83 0.69 0.60 0.54 0.50 0.46 0.42 0.37 0.34 0.31 0.40 0.41 0.40 0.39 0.36 0.35 0.36 0.37 0.40 0.44 0.49 0.51 0.53 0.57 0.62 0.65 0.67
0.70 0.72 0.72 0.74 0.77 0.77 0.79 0.82 0.81 0.79 0.77 0.71 0.60 0.50 0.44 0.40 0.38 0.34 0.28 0.25 0.22 0.24 0.26 0.25 0.25 0.25 0.25 0.26 0.27 0.28 0.29 0.30 0.31 0.32 0.37 0.44 0.52 0.54
0.67 0.69 0.70 0.72 0.74 0.77 0.78 0.78 0.78 0.76 0.73 0.69 0.61 0.50 0.40 0.35 0.32 0.29 0.25 0.21 0.18 0.16 0.18 0.16 0.15 0.14 0.13 0.12 0.11 0.11 0.11 0.14 0.19 0.22 0.25 0.29 0.36 0.45
0.73 0.77 0.79 0.85 0.85 0.80 0.74 0.69 0.67 0.68 0.67 0.65 0.56 0.46 0.37 0.30 0.26 0.22 0.20 0.19 0.16 0.13 0.12 0.10 0.08 0.07 0.06 0.06 0.05 0.04 0.06 0.10 0.15 0.20 0.25 0.28 0.30 0.36
0.75 0.75 0.76 0.83 0.79 0.76 0.70 0.64 0.62 0.65 0.64 0.57 0.46 0.35 0.25 0.19 0.18 0.20 0.22 0.22 0.19 0.10 0.09 0.08 0.07 0.06 0.04 0.03 0.03 0.04 0.05 0.08 0.12 0.18 0.21 0.24 0.25 0.26
0.72 0.69 0.64 0.60 0.60 0.54 0.57 0.60 0.59 0.55 0.49 0.42 0.35 0.27 0.22 0.19 0.23 0.27 0.24 0.23 0.17 0.09 0.10 0.10 0.07 0.06 0.04 0.03 0.03 0.03 0.03 0.05 0.08 0.12 0.16 0.19 0.22 0.23
0.60 0.56 0.52 0.46 0.42 0.41 0.44 0.49 0.40 0.34 0.31 0.27 0.23 0.21 0.21 0.22 0.26 0.30 0.29 0.26 0.18 0.13 0.11 0.11 0.08 0.06 0.05 0.04 0.04 0.03 0.03 0.04 0.06 0.08 0.12 0.17 0.21 0.23
0.45 0.43 0.41 0.38 0.41 0.46 0.41 0.36 0.31 0.28 0.29 0.30 0.29 0.28 0.28 0.28 0.26 0.28 0.30 0.32 0.24 0.14 0.11 0.09 0.07 0.06 0.05 0.04 0.03 0.03 0.02 0.03 0.03 0.04 0.07 0.10 0.14 0.17
0.30 0.30 0.34 0.34 0.40 0.44 0.37 0.32 0.28 0.24 0.24 0.26 0.26 0.24 0.22 0.22 0.23 0.21 0.27 0.41 0.34 0.21 0.09 0.10 0.11 0.13 0.19 0.05 0.03 0.02 0.02 0.02 0.02 0.02 0.03 0.05 0.09 0.13
0.26 0.25 0.26 0.34 0.36 0.37 0.35 0.29 0.28 0.30 0.28 0.26 0.26 0.26 0.24 0.21 0.19 0.16 0.19 0.39 0.50 0.32 0.10 0.24 0.33 0.19 0.26 0.12 0.02 0.02 0.01 0.01 0.01 0.01 0.02 0.04 0.09 0.19
0.24 0.23 0.25 0.33 0.36 0.36 0.33 0.31 0.35 0.35 0.29 0.30 0.30 0.28 0.25 0.21 0.18 0.16 0.16 0.18 0.27 0.32 0.19 0.33 0.56 0.36 0.39 0.26 0.07 0.02 0.02 0.01 0.03 0.04 0.05 0.08 0.13 0.19
0.26 0.27 0.29 0.32 0.33 0.32 0.33 0.34 0.33 0.28 0.27 0.28 0.27 0.24 0.22 0.22 0.23 0.22 0.21 0.19 0.17 0.15 0.15 0.16 0.33 0.39 0.48 0.44 0.23 0.07 0.05 0.03 0.03 0.07 0.12 0.15 0.18 0.23
0.30 0.30 0.31 0.31 0.31 0.31 0.31 0.31 0.28 0.25 0.25 0.25 0.23 0.23 0.25 0.28 0.28 0.26 0.25 0.23 0.22 0.16 0.12 0.11 0.14 0.33 0.44 0.30 0.32 0.22 0.12 0.14 0.10 0.14 0.17 0.15 0.17 0.26
0.36 0.34 0.32 0.30 0.28 0.26 0.26 0.26 0.25 0.25 0.26 0.24 0.26 0.27 0.27 0.27 0.25 0.24 0.26 0.27 0.25 0.18 0.14 0.11 0.10 0.13 0.21 0.25 0.27 0.15 0.10 0.14 0.20 0.25 0.27 0.22 0.13 0.22
0.43 0.36 0.30 0.26 0.24 0.23 0.23 0.24 0.24 0.24 0.24 0.26 0.27 0.29 0.31 0.30 0.27 0.24 0.24 0.27 0.25 0.19 0.15 0.13 0.13 0.16 0.13 0.08 0.11 0.17 0.19 0.22 0.21 0.21 0.28 0.42 0.28 0.20
0.40 0.31 0.26 0.24 0.24 0.24 0.25 0.27 0.25 0.23 0.26 0.29 0.31 0.33 0.35 0.33 0.30 0.28 0.25 0.25 0.22 0.18 0.16 0.15 0.21 0.42 0.43 0.18 0.05 0.12 0.29 0.34 0.28 0.27 0.32 0.52 0.61 0.41
0.29 0.23 0.22 0.23 0.25 0.28 0.29 0.30 0.30 0.30 0.31 0.31 0.32 0.35 0.39 0.39 0.35 0.30 0.27 0.27 0.27 0.22 0.17 0.13 0.17 0.41 0.71 0.56 0.32 0.12 0.14 0.31 0.53 0.59 0.44 0.35 0.37 0.29
0.19 0.18 0.21 0.24 0.28 0.30 0.32 0.34 0.36 0.37 0.35 0.38 0.37 0.37 0.41 0.45 0.39 0.32 0.30 0.27 0.28 0.27 0.22 0.14 0.11 0.19 0.41 0.60 0.43 0.12 0.07 0.13 0.38 0.72 0.75 0.61 0.38 0.20
0.20 0.21 0.23 0.26 0.30 0.33 0.35 0.37 0.39 0.38 0.39 0.41 0.41 0.41 0.42 0.46 0.45 0.38 0.35 0.34 0.29 0.26 0.25 0.18 0.15 0.19 0.33 0.52 0.37 0.14 0.07 0.05 0.08 0.16 0.41 0.85 1.25 1.16
0.26 0.26 0.27 0.31 0.35 0.38 0.39 0.39 0.38 0.36 0.37 0.41 0.41 0.41 0.43 0.44 0.39 0.39 0.38 0.39 0.41 0.35 0.30 0.26 0.20 0.19 0.21 0.26 0.30 0.20 0.11 0.07 0.06 0.08 0.14 0.28 0.55 0.82

GEFSNE_prec_meanprecacc_114.txt.gz
Total_Precipitation_Accumulation
1.05 0.97 0.87 0.75 0.71 0.70 0.70 0.73 0.81 0.73 0.53 0.37 0.34 0.36 0.39 0.44 0.52 0.52 0.51 0.63 0.68 0.70 0.74 0.76 0.75 0.70 0.67 0.66 0.68 0.70 0.73 0.74 0.74 0.76 0.76 0.75 0.83 0.95
1.01 1.01 0.96 0.86 0.82 0.79 0.81 0.85 0.91 0.95 0.83 0.57 0.47 0.48 0.54 0.59 0.67 0.62 0.59 0.67 0.67 0.67 0.69 0.68 0.62 0.57 0.55 0.54 0.56 0.60 0.63 0.65 0.69 0.76 0.82 0.86 0.93 1.07
0.92 0.94 0.96 0.93 0.93 0.90 0.91 0.95 1.00 1.05 1.07 0.84 0.67 0.63 0.65 0.64 0.63 0.56 0.51 0.51 0.49 0.57 0.57 0.54 0.49 0.46 0.45 0.46 0.48 0.50 0.53 0.57 0.61 0.67 0.75 0.81 0.84 0.89
0.86 0.90 0.92 0.93 0.97 0.97 0.99 1.00 1.00 0.99 1.01 0.93 0.75 0.65 0.59 0.53 0.50 0.45 0.40 0.37 0.34 0.43 0.44 0.44 0.42 0.39 0.39 0.39 0.40 0.42 0.46 0.51 0.53 0.55 0.58 0.63 0.65 0.68
0.77 0.79 0.80 0.85 0.89 0.90 0.93 0.96 0.94 0.91 0.88 0.82 0.69 0.57 0.50 0.45 0.43 0.39 0.33 0.30 0.26 0.28 0.30 0.29 0.28 0.28 0.29 0.30 0.30 0.31 0.31 0.32 0.33 0.34 0.38 0.45 0.53 0.55
0.73 0.74 0.76 0.79 0.83 0.88 0.92 0.92 0.91 0.91 0.87 0.83 0.74 0.61 0.49 0.42 0.41 0.38 0.34 0.28 0.25 0.21 0.24 0.22 0.20 0.18 0.16 0.16 0.15 0.14 0.14 0.17 0.21 0.24 0.26 0.30 0.37 0.46
0.79 0.83 0.86 0.94 0.94 0.90 0.86 0.83 0.81 0.84 0.84 0.81 0.71 0.58 0.48 0.41 0.37 0.32 0.30 0.29 0.27 0.22 0.21 0.19 0.16 0.14 0.11 0.11 0.10 0.09 0.09 0.13 0.18 0.22 0.27 0.30 0.32 0.37
0.83 0.82 0.84 0.93 0.90 0.88 0.82 0.76 0.76 0.80 0.80 0.73 0.61 0.48 0.35 0.28 0.27 0.31 0.34 0.36 0.33 0.21 0.18 0.18 0.15 0.14 0.11 0.09 0.10 0.09 0.10 0.12 0.16 0.20 0.24 0.26 0.26 0.28
0.81 0.78 0.73 0.70 0.71 0.64 0.68 0.71 0.71 0.68 0.62 0.55 0.49 0.38 0.31 0.28 0.33 0.40 0.38 0.35 0.27 0.17 0.19 0.22 0.18 0.15 0.11 0.10 0.11 0.10 0.10 0.11 0.13 0.16 0.19 0.21 0.24 0.24
0.66 0.63 0.59 0.54 0.51 0.51 0.53 0.59 0.51 0.46 0.43 0.38 0.35 0.31 0.30 0.32 0.39 0.45 0.45 0.43 0.34 0.26 0.24 0.25 0.20 0.16 0.12 0.11 0.13 0.12 0.11 0.11 0.12 0.13 0.16 0.19 0.23 0.25
0.48 0.46 0.46 0.43 0.49 0.55 0.50 0.45 0.41 0.38 0.41 0.42 0.42 0.40 0.41 0.42 0.42 0.46 0.51 0.55 0.46 0.32 0.24 0.20 0.18 0.16 0.14 0.12 0.13 0.14 0.12 0.12 0.11 0.10 0.11 0.14 0.16 0.19
0.31 0.32 0.37 0.38 0.46 0.51 0.44 0.40 0.37 0.32 0.33 0.35 0.36 0.35 0.33 0.35 0.41 0.39 0.44 0.59 0.52 0.36 0.19 0.19 0.20 0.24 0.31 0.17 0.13 0.13 0.12 0.11 0.10 0.08 0.07 0.09 0.12 0.15
0.27 0.26 0.28 0.37 0.41 0.42 0.41 0.36 0.35 0.38 0.36 0.35 0.36 0.36 0.35 0.33 0.33 0.32 0.36 0.56 0.66 0.46 0.19 0.32 0.43 0.30 0.39 0.25 0.13 0.11 0.10 0.09 0.09 0.08 0.07 0.08 0.11 0.20
0.26 0.25 0.27 0.37 0.41 0.40 0.37 0.37 0.42 0.43 0.38 0.39 0.41 0.39 0.36 0.33 0.30 0.30 0.32 0.35 0.43 0.45 0.31 0.45 0.68 0.48 0.51 0.38 0.18 0.12 0.11 0.10 0.10 0.11 0.11 0.13 0.17 0.22
0.28 0.30 0.32 0.36 0.37 0.37 0.38 0.39 0.40 0.36 0.35 0.36 0.36 0.33 0.32 0.33 0.35 0.38 0.39 0.39 0.38 0.36 0.34 0.34 0.49 0.52 0.63 0.58 0.34 0.16 0.14 0.12 0.10 0.14 0.18 0.21 0.23 0.26
0.32 0.33 0.35 0.35 0.35 0.35 0.36 0.36 0.34 0.32 0.33 0.32 0.30 0.31 0.35 0.40 0.42 0.44 0.46 0.43 0.44 0.38 0.33 0.28 0.31 0.48 0.60 0.44 0.45 0.34 0.22 0.23 0.18 0.21 0.24 0.21 0.22 0.30
0.38 0.36 0.35 0.33 0.32 0.31 0.30 0.30 0.31 0.32 0.33 0.31 0.34 0.36 0.37 0.38 0.39 0.39 0.43 0.46 0.45 0.36 0.31 0.28 0.27 0.30 0.38 0.40 0.41 0.28 0.23 0.26 0.30 0.33 0.34 0.29 0.19 0.26
0.46 0.38 0.32 0.28 0.27 0.28 0.28 0.29 0.30 0.30 0.30 0.33 0.35 0.37 0.40 0.41 0.39 0.37 0.39 0.44 0.43 0.35 0.31 0.29 0.30 0.34 0.31 0.25 0.26 0.30 0.30 0.33 0.31 0.29 0.35 0.48 0.33 0.24
0.41 0.32 0.28 0.27 0.27 0.28 0.30 0.32 0.31 0.29 0.31 0.35 0.38 0.41 0.44 0.44 0.42 0.41 0.39 0.41 0.40 0.35 0.32 0.31 0.38 0.58 0.58 0.31 0.16 0.22 0.38 0.42 0.36 0.35 0.39 0.57 0.65 0.45
0.30 0.24 0.23 0.25 0.28 0.31 0.33 0.35 0.35 0.36 0.36 0.36 0.38 0.42 0.47 0.50 0.46 0.42 0.41 0.42 0.43 0.38 0.33 0.30 0.33 0.56 0.84 0.66 0.41 0.20 0.21 0.38 0.60 0.66 0.49 0.40 0.41 0.34
0.20 0.19 0.22 0.26 0.30 0.33 0.36 0.38 0.41 0.42 0.41 0.44 0.44 0.45 0.49 0.55 0.50 0.42 0.42 0.41 0.42 0.41 0.37 0.28 0.24 0.33 0.56 0.75 0.58 0.24 0.17 0.20 0.44 0.78 0.80 0.66 0.43 0.24
0.22 0.22 0.24 0.28 0.33 0.37 0.39 0.42 0.44 0.44 0.45 0.49 0.49 0.49 0.49 0.55 0.54 0.47 0.45 0.46 0.42 0.39 0.38 0.32 0.30 0.35 0.49 0.68 0.51 0.26 0.17 0.15 0.17 0.23 0.47 0.90 1.29 1.20
0.28 0.28 0.29 0.33 0.37 0.41 0.43 0.44 0.43 0.41 0.43 0.48 0.49 0.49 0.51 0.53 0.48 0.48 0.47 0.49 0.52 0.48 0.45 0.41 0.37 0.35 0.36 0.40 0.43 0.32 0.21 0.16 0.15 0.16 0.21 0.32 0.58 0.84

GEFSNE_prec_meanprecacc_120.txt.gz
Total_Precipitation_Accumulation
1.11 1.04 0.94 0.83 0.81 0.81 0.82 0.86 0.94 0.84 0.62 0.44 0.39 0.41 0.44 0.48 0.57 0.57 0.55 0.67 0.72 0.74 0.78 0.81 0.80 0.75 0.71 0.70 0.72 0.74 0.77 0.78 0.79 0.82 0.83 0.82 0.89 1.01
1.07 1.08 1.03 0.93 0.89 0.88 0.91 0.95 1.01 1.05 0.91 0.61 0.50 0.52 0.59 0.65 0.73 0.68 0.63 0.71 0.70 0.71 0.73 0.72 0.67 0.62 0.59 0.57 0.59 0.64 0.67 0.69 0.73 0.81 0.89 0.93 1.00 1.12
1.00 1.03 1.04 1.01 1.01 0.99 1.02 1.06 1.11 1.16 1.16 0.89 0.70 0.67 0.70 0.70 0.69 0.62 0.57 0.56 0.54 0.62 0.61 0.59 0.54 0.50 0.49 0.50 0.52 0.53 0.56 0.60 0.64 0.71 0.80 0.87 0.90 0.93
0.93 0.98 1.01 1.02 1.06 1.05 1.08 1.10 1.11 1.11 1.12 1.01 0.81 0.71 0.65 0.61 0.58 0.54 0.49 0.44 0.40 0.48 0.49 0.49 0.47 0.44 0.43 0.43 0.44 0.46 0.50 0.55 0.56 0.58 0.61 0.66 0.69 0.72
0.82 0.85 0.86 0.91 0.96 0.96 1.00 1.04 1.04 1.04 1.02 0.94 0.78 0.64 0.56 0.52 0.52 0.49 0.43 0.38 0.33 0.35 0.36 0.35 0.35 0.35 0.35 0.35 0.35 0.36 0.36 0.37 0.37 0.37 0.41 0.48 0.56 0.59
0.75 0.77 0.80 0.84 0.88 0.92 0.97 0.97 0.98 0.99 0.99 0.96 0.86 0.71 0.58 0.50 0.50 0.48 0.44 0.37 0.32 0.28 0.32 0.30 0.28 0.27 0.24 0.23 0.21 0.19 0.19 0.22 0.26 0.28 0.30 0.34 0.41 0.49
0.80 0.84 0.89 0.98 0.99 0.95 0.91 0.89 0.88 0.92 0.93 0.91 0.82 0.69 0.57 0.51 0.48 0.42 0.40 0.37 0.35 0.30 0.30 0.28 0.25 0.23 0.20 0.19 0.17 0.15 0.15 0.18 0.23 0.27 0.31 0.33 0.35 0.40
0.85 0.85 0.87 0.97 0.94 0.93 0.87 0.82 0.82 0.88 0.88 0.82 0.70 0.57 0.44 0.36 0.35 0.40 0.44 0.48 0.46 0.30 0.27 0.27 0.24 0.24 0.20 0.17 0.18 0.17 0.16 0.18 0.21 0.26 0.29 0.30 0.30 0.31
0.83 0.81 0.77 0.74 0.76 0.68 0.73 0.77 0.76 0.75 0.70 0.63 0.58 0.46 0.39 0.35 0.41 0.50 0.49 0.46 0.36 0.24 0.27 0.33 0.28 0.24 0.19 0.18 0.22 0.20 0.18 0.18 0.20 0.22 0.25 0.27 0.29 0.28
0.68 0.66 0.62 0.56 0.54 0.55 0.57 0.63 0.56 0.52 0.50 0.45 0.42 0.39 0.38 0.39 0.46 0.54 0.55 0.55 0.46 0.39 0.37 0.40 0.32 0.26 0.20 0.19 0.23 0.22 0.21 0.21 0.22 0.22 0.24 0.27 0.29 0.31
0.49 0.48 0.47 0.45 0.51 0.57 0.53 0.49 0.44 0.43 0.46 0.48 0.48 0.47 0.50 0.53 0.54 0.59 0.67 0.73 0.63 0.47 0.37 0.33 0.29 0.25 0.24 0.22 0.23 0.26 0.25 0.24 0.23 0.22 0.22 0.24 0.25 0.27
0.32 0.32 0.38 0.39 0.47 0.52 0.45 0.42 0.40 0.35 0.36 0.40 0.41 0.40 0.39 0.42 0.52 0.50 0.57 0.75 0.66 0.47 0.28 0.29 0.32 0.36 0.45 0.29 0.23 0.24 0.26 0.27 0.25 0.22 0.20 0.20 0.22 0.24
0.27 0.26 0.28 0.37 0.41 0.43 0.43 0.37 0.37 0.40 0.38 0.38 0.40 0.41 0.40 0.40 0.41 0.42 0.46 0.67 0.79 0.57 0.27 0.41 0.55 0.44 0.54 0.38 0.24 0.22 0.22 0.23 0.25 0.24 0.22 0.22 0.23 0.30
0.26 0.25 0.27 0.37 0.41 0.41 0.39 0.38 0.43 0.45 0.40 0.42 0.44 0.43 0.41 0.38 0.36 0.36 0.40 0.44 0.52 0.53 0.38 0.55 0.81 0.61 0.66 0.52 0.30 0.23 0.23 0.23 0.25 0.25 0.24 0.28 0.31 0.33
0.28 0.31 0.33 0.37 0.38 0.38 0.39 0.41 0.41 0.38 0.37 0.39 0.38 0.36 0.34 0.36 0.40 0.44 0.46 0.47 0.47 0.45 0.43 0.44 0.60 0.64 0.77 0.73 0.48 0.28 0.26 0.25 0.24 0.28 0.33 0.35 0.36 0.38
0.33 0.34 0.35 0.36 0.36 0.36 0.38 0.38 0.36 0.35 0.36 0.36 0.34 0.34 0.38 0.43 0.46 0.48 0.51 0.50 0.53 0.48 0.42 0.38 0.42 0.62 0.77 0.59 0.57 0.46 0.34 0.35 0.30 0.34 0.38 0.36 0.35 0.40
0.39 0.37 0.35 0.33 0.32 0.32 0.32 0.32 0.33 0.34 0.36 0.35 0.37 0.40 0.41 0.42 0.43 0.44 0.49 0.53 0.53 0.44 0.39 0.37 0.38 0.44 0.54 0.56 0.56 0.42 0.36 0.39 0.42 0.47 0.50 0.45 0.34 0.38
0.47 0.40 0.33 0.29 0.28 0.29 0.30 0.31 0.32 0.33 0.34 0.36 0.39 0.41 0.44 0.45 0.43 0.42 0.45 0.51 0.50 0.42 0.38 0.37 0.40 0.48 0.47 0.42 0.41 0.43 0.43 0.45 0.43 0.43 0.49 0.63 0.46 0.35
0.42 0.33 0.29 0.27 0.28 0.29 0.32 0.34 0.33 0.31 0.35 0.39 0.42 0.45 0.49 0.48 0.47 0.46 0.46 0.48 0.47 0.43 0.40 0.40 0.48 0.70 0.72 0.44 0.28 0.32 0.49 0.54 0.49 0.49 0.54 0.70 0.76 0.55
0.30 0.25 0.24 0.26 0.29 0.32 0.35 0.37 0.37 0.38 0.38 0.39 0.41 0.46 0.52 0.54 0.51 0.48 0.47 0.49 0.51 0.47 0.43 0.39 0.43 0.66 0.95 0.76 0.51 0.30 0.31 0.50 0.72 0.79 0.63 0.53 0.54 0.47
0.21 0.20 0.23 0.27 0.31 0.35 0.37 0.40 0.43 0.44 0.44 0.47 0.48 0.48 0.53 0.60 0.55 0.48 0.48 0.47 0.50 0.50 0.47 0.38 0.34 0.43 0.67 0.87 0.70 0.36 0.29 0.34 0.57 0.90 0.92 0.79 0.56 0.38
0.22 0.23 0.25 0.29 0.34 0.38 0.41 0.43 0.46 0.46 0.48 0.52 0.53 0.53 0.54 0.60 0.60 0.53 0.51 0.53 0.49 0.46 0.47 0.41 0.41 0.47 0.61 0.81 0.64 0.38 0.30 0.29 0.33 0.39 0.60 1.02 1.38 1.28
0.29 0.29 0.30 0.34 0.38 0.42 0.45 0.46 0.45 0.43 0.46 0.52 0.52 0.53 0.55 0.58 0.53 0.54 0.54 0.56 0.59 0.56 0.53 0.51 0.48 0.48 0.49 0.53 0.56 0.45 0.33 0.29 0.28 0.30 0.35 0.44 0.67 0.91

GEFSNE_prec_meanprecacc_126.txt.gz
Total_Precipitation_Accumulation
1.15 1.07 0.97 0.86 0.85 0.85 0.87 0.92 1.01 0.92 0.69 0.51 0.47 0.49 0.53 0.57 0.65 0.65 0.61 0.74 0.79 0.80 0.84 0.87 0.87 0.83 0.79 0.77 0.79 0.83 0.86 0.86 0.86 0.88 0.89 0.87 0.93 1.05
1.09 1.09 1.05 0.96 0.92 0.92 0.95 1.00 1.07 1.12 0.97 0.66 0.55 0.56 0.65 0.72 0.81 0.76 0.69 0.79 0.78 0.77 0.79 0.79 0.74 0.69 0.67 0.67 0.68 0.71 0.73 0.75 0.78 0.86 0.95 0.99 1.06 1.17
1.04 1.07 1.08 1.05 1.05 1.03 1.06 1.11 1.16 1.22 1.22 0.93 0.74 0.71 0.75 0.75 0.76 0.71 0.66 0.65 0.63 0.70 0.68 0.66 0.62 0.58 0.57 0.58 0.61 0.62 0.63 0.65 0.69 0.75 0.85 0.92 0.96 0.99
0.98 1.03 1.06 1.07 1.11 1.11 1.14 1.17 1.17 1.17 1.17 1.05 0.84 0.75 0.70 0.65 0.63 0.61 0.58 0.54 0.49 0.57 0.57 0.56 0.54 0.52 0.51 0.51 0.51 0.54 0.57 0.60 0.61 0.62 0.65 0.70 0.73 0.77
0.85 0.89 0.90 0.95 1.00 1.01 1.04 1.09 1.10 1.10 1.08 0.99 0.82 0.68 0.60 0.57 0.58 0.56 0.50 0.47 0.43 0.44 0.45 0.43 0.42 0.42 0.43 0.44 0.44 0.44 0.42 0.42 0.41 0.42 0.45 0.52 0.60 0.63
0.77 0.79 0.82 0.87 0.91 0.96 1.00 1.01 1.02 1.04 1.04 1.02 0.92 0.77 0.64 0.56 0.56 0.55 0.51 0.43 0.39 0.35 0.40 0.38 0.36 0.34 0.32 0.32 0.30 0.28 0.27 0.28 0.31 0.33 0.35 0.38 0.45 0.53
0.81 0.85 0.90 0.99 1.01 0.97 0.94 0.91 0.91 0.95 0.97 0.96 0.87 0.75 0.64 0.57 0.55 0.49 0.47 0.44 0.42 0.37 0.38 0.36 0.32 0.30 0.28 0.28 0.26 0.24 0.24 0.27 0.31 0.34 0.37 0.39 0.40 0.45
0.85 0.85 0.88 0.97 0.96 0.94 0.88 0.84 0.85 0.90 0.92 0.85 0.74 0.61 0.48 0.41 0.41 0.47 0.52 0.56 0.53 0.36 0.35 0.35 0.31 0.31 0.26 0.23 0.26 0.26 0.25 0.27 0.31 0.35 0.37 0.38 0.38 0.38
0.83 0.81 0.77 0.74 0.76 0.69 0.73 0.78 0.78 0.78 0.73 0.66 0.61 0.50 0.42 0.38 0.46 0.55 0.55 0.53 0.43 0.30 0.35 0.42 0.36 0.33 0.25 0.24 0.29 0.27 0.26 0.28 0.29 0.32 0.33 0.35 0.37 0.37
0.68 0.66 0.62 0.57 0.55 0.55 0.58 0.64 0.57 0.53 0.52 0.48 0.45 0.41 0.41 0.42 0.49 0.58 0.61 0.62 0.53 0.46 0.45 0.50 0.40 0.33 0.27 0.26 0.31 0.29 0.29 0.31 0.32 0.32 0.34 0.36 0.38 0.40
0.50 0.49 0.49 0.46 0.52 0.59 0.54 0.50 0.46 0.45 0.49 0.50 0.51 0.51 0.54 0.56 0.57 0.63 0.71 0.78 0.70 0.53 0.43 0.41 0.36 0.32 0.31 0.30 0.31 0.35 0.33 0.33 0.34 0.34 0.33 0.34 0.34 0.37
0.32 0.33 0.39 0.40 0.49 0.54 0.47 0.45 0.42 0.37 0.38 0.42 0.44 0.43 0.41 0.45 0.54 0.53 0.61 0.80 0.71 0.52 0.32 0.35 0.38 0.43 0.55 0.38 0.30 0.31 0.35 0.37 0.36 0.34 0.32 0.32 0.34 0.36
0.28 0.26 0.28 0.38 0.42 0.44 0.44 0.38 0.38 0.41 0.40 0.39 0.41 0.42 0.41 0.41 0.43 0.44 0.49 0.71 0.83 0.61 0.30 0.46 0.62 0.52 0.64 0.47 0.32 0.30 0.30 0.33 0.36 0.37 0.36 0.36 0.38 0.44
0.27 0.25 0.27 0.37 0.42 0.42 0.39 0.39 0.44 0.45 0.40 0.42 0.44 0.43 0.41 0.39 0.37 0.37 0.41 0.46 0.55 0.57 0.41 0.59 0.89 0.70 0.76 0.62 0.39 0.31 0.32 0.33 0.35 0.37 0.37 0.44 0.48 0.49
0.28 0.31 0.33 0.37 0.39 0.38 0.39 0.42 0.42 0.38 0.37 0.40 0.39 0.36 0.35 0.36 0.41 0.45 0.47 0.49 0.49 0.47 0.45 0.48 0.66 0.72 0.87 0.84 0.56 0.35 0.34 0.36 0.35 0.40 0.45 0.48 0.50 0.54
0.33 0.34 0.35 0.36 0.36 0.36 0.38 0.38 0.37 0.36 0.37 0.37 0.35 0.35 0.38 0.44 0.46 0.49 0.53 0.52 0.55 0.50 0.45 0.41 0.47 0.70 0.86 0.68 0.67 0.56 0.44 0.46 0.41 0.45 0.50 0.48 0.46 0.52
0.39 0.38 0.35 0.34 0.32 0.32 0.32 0.32 0.33 0.35 0.37 0.36 0.39 0.41 0.42 0.43 0.44 0.45 0.50 0.55 0.55 0.46 0.41 0.40 0.41 0.49 0.61 0.65 0.65 0.51 0.46 0.50 0.53 0.59 0.64 0.60 0.47 0.49
0.48 0.40 0.33 0.29 0.28 0.29 0.30 0.31 0.32 0.33 0.34 0.37 0.40 0.43 0.46 0.47 0.45 0.44 0.47 0.53 0.53 0.45 0.41 0.40 0.44 0.53 0.53 0.50 0.49 0.51 0.52 0.55 0.55 0.56 0.64 0.78 0.60 0.47
0.42 0.33 0.29 0.27 0.28 0.30 0.32 0.34 0.34 0.32 0.36 0.40 0.44 0.47 0.51 0.50 0.49 0.49 0.48 0.51 0.50 0.45 0.42 0.43 0.53 0.76 0.79 0.51 0.34 0.39 0.58 0.64 0.60 0.63 0.69 0.84 0.88 0.64
0.30 0.25 0.24 0.26 0.30 0.33 0.35 0.37 0.38 0.38 0.39 0.41 0.43 0.48 0.54 0.57 0.54 0.51 0.50 0.53 0.54 0.49 0.45 0.42 0.47 0.72 1.01 0.83 0.57 0.35 0.38 0.59 0.83 0.91 0.76 0.66 0.66 0.59
0.21 0.20 0.23 0.28 0.32 0.36 0.38 0.41 0.44 0.45 0.45 0.49 0.50 0.50 0.55 0.62 0.58 0.51 0.51 0.50 0.54 0.54 0.50 0.41 0.37 0.47 0.72 0.94 0.77 0.43 0.37 0.43 0.68 1.01 1.03 0.91 0.70 0.53
0.23 0.24 0.26 0.29 0.34 0.39 0.42 0.44 0.47 0.47 0.49 0.54 0.54 0.55 0.56 0.62 0.63 0.56 0.55 0.57 0.53 0.50 0.50 0.45 0.45 0.52 0.67 0.88 0.71 0.44 0.38 0.39 0.44 0.50 0.72 1.14 1.50 1.38
0.30 0.30 0.31 0.35 0.39 0.43 0.46 0.47 0.46 0.44 0.47 0.53 0.54 0.54 0.57 0.60 0.56 0.57 0.57 0.60 0.63 0.59 0.57 0.55 0.52 0.53 0.55 0.58 0.62 0.50 0.40 0.37 0.38 0.41 0.47 0.55 0.77 0.98

GEFSNE_prec_meanprecacc_132.txt.gz
Total_Precipitation_Accumulation
1.18 1.10 0.99 0.88 0.87 0.89 0.92 0.98 1.07 0.97 0.73 0.54 0.50 0.51 0.55 0.60 0.69 0.70 0.67 0.81 0.87 0.88 0.92 0.96 0.96 0.90 0.86 0.86 0.90 0.95 0.99 0.98 0.98 1.00 0.99 0.96 1.02 1.14
1.12 1.12 1.06 0.97 0.94 0.94 0.98 1.04 1.11 1.16 1.00 0.68 0.58 0.59 0.68 0.75 0.84 0.79 0.74 0.85 0.84 0.83 0.85 0.85 0.81 0.76 0.74 0.73 0.75 0.80 0.84 0.86 0.88 0.96 1.05 1.08 1.14 1.26
1.05 1.08 1.09 1.06 1.07 1.05 1.08 1.13 1.19 1.25 1.25 0.96 0.77 0.74 0.77 0.78 0.79 0.74 0.69 0.70 0.68 0.76 0.74 0.71 0.67 0.65 0.63 0.64 0.66 0.69 0.71 0.74 0.78 0.84 0.94 1.01 1.03 1.06
0.99 1.04 1.07 1.08 1.12 1.13 1.16 1.19 1.20 1.19 1.20 1.08 0.88 0.79 0.74 0.70 0.68 0.66 0.63 0.60 0.56 0.64 0.64 0.62 0.61 0.59 0.58 0.58 0.58 0.59 0.64 0.68 0.69 0.70 0.72 0.77 0.80 0.83
0.86 0.89 0.91 0.96 1.02 1.03 1.06 1.11 1.12 1.11 1.11 1.03 0.86 0.71 0.65 0.63 0.66 0.64 0.58 0.55 0.50 0.51 0.53 0.51 0.50 0.51 0.51 0.52 0.52 0.52 0.50 0.49 0.48 0.49 0.52 0.58 0.66 0.68
0.78 0.80 0.83 0.87 0.92 0.98 1.02 1.03 1.04 1.06 1.07 1.05 0.96 0.80 0.68 0.61 0.63 0.63 0.58 0.50 0.45 0.41 0.48 0.47 0.45 0.44 0.42 0.41 0.38 0.36 0.36 0.38 0.40 0.41 0.43 0.46 0.51 0.58
0.82 0.86 0.91 1.00 1.02 0.98 0.95 0.92 0.92 0.96 0.99 0.99 0.91 0.78 0.68 0.61 0.61 0.56 0.54 0.51 0.49 0.44 0.44 0.42 0.39 0.39 0.37 0.37 0.35 0.31 0.31 0.36 0.41 0.43 0.46 0.48 0.48 0.51
0.85 0.85 0.88 0.98 0.96 0.95 0.89 0.85 0.86 0.91 0.93 0.87 0.76 0.63 0.51 0.44 0.44 0.51 0.56 0.61 0.59 0.42 0.41 0.41 0.38 0.39 0.34 0.31 0.34 0.33 0.32 0.34 0.39 0.44 0.46 0.47 0.46 0.45
0.84 0.82 0.78 0.75 0.76 0.69 0.74 0.79 0.79 0.78 0.74 0.67 0.62 0.51 0.43 0.40 0.48 0.58 0.59 0.58 0.48 0.35 0.40 0.47 0.42 0.39 0.32 0.31 0.36 0.34 0.33 0.35 0.37 0.40 0.42 0.44 0.46 0.46
0.69 0.67 0.63 0.58 0.56 0.56 0.59 0.65 0.57 0.54 0.53 0.48 0.45 0.42 0.41 0.43 0.51 0.61 0.64 0.65 0.57 0.50 0.50 0.55 0.45 0.39 0.33 0.32 0.38 0.36 0.36 0.38 0.40 0.40 0.42 0.45 0.47 0.49
0.50 0.49 0.49 0.47 0.53 0.60 0.55 0.51 0.47 0.45 0.49 0.51 0.52 0.51 0.55 0.57 0.59 0.65 0.73 0.81 0.74 0.57 0.48 0.46 0.42 0.38 0.37 0.37 0.39 0.43 0.41 0.41 0.42 0.42 0.42 0.43 0.44 0.46
0.33 0.33 0.39 0.41 0.49 0.55 0.48 0.45 0.43 0.38 0.39 0.43 0.45 0.44 0.42 0.46 0.55 0.55 0.63 0.83 0.74 0.55 0.36 0.39 0.43 0.49 0.61 0.44 0.37 0.39 0.42 0.44 0.44 0.43 0.41 0.40 0.43 0.46
0.28 0.27 0.29 0.38 0.42 0.44 0.44 0.39 0.39 0.42 0.40 0.40 0.41 0.42 0.42 0.42 0.44 0.45 0.50 0.73 0.86 0.64 0.32 0.49 0.66 0.56 0.69 0.52 0.37 0.36 0.37 0.40 0.43 0.44 0.44 0.45 0.46 0.54
0.27 0.25 0.27 0.38 0.42 0.42 0.39 0.39 0.44 0.46 0.40 0.42 0.44 0.43 0.41 0.39 0.37 0.38 0.41 0.47 0.56 0.58 0.41 0.61 0.93 0.74 0.80 0.66 0.42 0.36 0.38 0.38 0.41 0.44 0.44 0.53 0.57 0.58
0.29 0.31 0.34 0.37 0.39 0.38 0.39 0.42 0.42 0.39 0.38 0.40 0.39 0.36 0.35 0.36 0.41 0.45 0.48 0.49 0.49 0.47 0.45 0.48 0.68 0.75 0.91 0.88 0.60 0.38 0.38 0.41 0.41 0.47 0.53 0.56 0.59 0.64
0.33 0.34 0.36 0.36 0.36 0.36 0.38 0.38 0.37 0.36 0.37 0.38 0.36 0.35 0.38 0.44 0.47 0.49 0.53 0.52 0.55 0.50 0.45 0.42 0.48 0.72 0.90 0.72 0.70 0.58 0.46 0.50 0.46 0.52 0.58 0.57 0.54 0.60
0.40 0.38 0.36 0.34 0.32 0.32 0.32 0.32 0.33 0.35 0.37 0.36 0.39 0.41 0.42 0.44 0.44 0.45 0.51 0.56 0.56 0.47 0.42 0.40 0.42 0.50 0.64 0.68 0.69 0.54 0.49 0.54 0.57 0.65 0.72 0.70 0.57 0.58
0.48 0.41 0.33 0.29 0.28 0.29 0.30 0.32 0.32 0.33 0.35 0.37 0.40 0.44 0.47 0.48 0.46 0.44 0.48 0.55 0.54 0.45 0.41 0.40 0.45 0.55 0.55 0.52 0.52 0.54 0.56 0.60 0.59 0.62 0.72 0.87 0.71 0.57
0.42 0.34 0.29 0.28 0.28 0.30 0.32 0.34 0.34 0.32 0.36 0.41 0.44 0.48 0.52 0.52 0.51 0.50 0.50 0.52 0.51 0.46 0.43 0.44 0.54 0.79 0.83 0.53 0.35 0.41 0.61 0.68 0.65 0.69 0.75 0.92 0.97 0.72
0.30 0.25 0.24 0.26 0.30 0.33 0.35 0.38 0.38 0.38 0.40 0.41 0.44 0.49 0.55 0.58 0.56 0.52 0.52 0.54 0.55 0.51 0.46 0.43 0.49 0.75 1.05 0.86 0.59 0.37 0.41 0.63 0.88 0.97 0.82 0.72 0.73 0.67
0.21 0.20 0.23 0.28 0.32 0.36 0.38 0.41 0.44 0.46 0.45 0.49 0.50 0.51 0.56 0.64 0.60 0.52 0.53 0.52 0.55 0.55 0.52 0.42 0.39 0.49 0.76 0.99 0.82 0.46 0.40 0.47 0.73 1.07 1.09 0.99 0.78 0.62
0.23 0.24 0.26 0.30 0.35 0.39 0.42 0.45 0.48 0.48 0.50 0.54 0.55 0.56 0.57 0.64 0.64 0.58 0.57 0.58 0.54 0.52 0.51 0.46 0.46 0.54 0.71 0.94 0.76 0.47 0.41 0.43 0.49 0.56 0.79 1.23 1.59 1.47
0.30 0.31 0.31 0.35 0.40 0.44 0.47 0.48 0.47 0.45 0.47 0.54 0.55 0.55 0.59 0.61 0.57 0.59 0.59 0.62 0.65 0.61 0.58 0.57 0.54 0.55 0.58 0.63 0.66 0.54 0.44 0.41 0.42 0.46 0.53 0.62 0.83 1.05

GEFSNE_prec_meanprecacc_138.txt.gz
Total_Precipitation_Accumulation
1.18 1.10 0.99 0.88 0.87 0.89 0.93 1.00 1.10 1.00 0.76 0.58 0.56 0.58 0.62 0.67 0.77 0.76 0.71 0.86 0.91 0.92 0.96 1.00 1.01 0.97 0.95 0.96 1.00 1.06 1.12 1.16 1.18 1.17 1.12 1.08 1.13 1.24
1.12 1.12 1.07 0.97 0.94 0.95 0.99 1.05 1.14 1.19 1.03 0.72 0.63 0.65 0.75 0.83 0.93 0.86 0.80 0.91 0.88 0.87 0.89 0.88 0.85 0.82 0.81 0.81 0.84 0.89 0.93 0.96 1.03 1.14 1.21 1.21 1.25 1.35
1.05 1.08 1.10 1.07 1.08 1.06 1.10 1.16 1.22 1.29 1.29 1.00 0.81 0.77 0.81 0.83 0.84 0.80 0.75 0.76 0.73 0.81 0.77 0.74 0.70 0.68 0.68 0.70 0.72 0.75 0.78 0.82 0.87 0.97 1.08 1.14 1.15 1.16
0.99 1.05 1.08 1.09 1.13 1.14 1.18 1.21 1.24 1.24 1.24 1.12 0.91 0.81 0.76 0.72 0.71 0.69 0.66 0.63 0.60 0.68 0.67 0.64 0.62 0.61 0.61 0.63 0.64 0.66 0.70 0.74 0.76 0.79 0.83 0.89 0.91 0.92
0.86 0.90 0.91 0.97 1.03 1.04 1.08 1.13 1.14 1.14 1.13 1.05 0.88 0.73 0.66 0.64 0.67 0.66 0.60 0.56 0.52 0.55 0.57 0.54 0.53 0.53 0.53 0.55 0.57 0.59 0.56 0.55 0.55 0.56 0.61 0.68 0.76 0.78
0.79 0.81 0.83 0.88 0.93 0.98 1.03 1.05 1.06 1.08 1.08 1.06 0.97 0.82 0.69 0.62 0.64 0.64 0.60 0.53 0.48 0.44 0.52 0.51 0.49 0.47 0.45 0.43 0.41 0.41 0.42 0.44 0.47 0.49 0.52 0.56 0.62 0.69
0.82 0.87 0.91 1.01 1.02 0.99 0.96 0.94 0.94 0.98 1.01 1.01 0.92 0.80 0.69 0.63 0.62 0.57 0.56 0.54 0.52 0.47 0.47 0.45 0.43 0.42 0.40 0.41 0.39 0.36 0.37 0.41 0.47 0.51 0.55 0.58 0.59 0.63
0.86 0.86 0.89 0.99 0.97 0.96 0.90 0.85 0.87 0.93 0.95 0.89 0.78 0.65 0.52 0.45 0.45 0.52 0.57 0.63 0.62 0.45 0.44 0.44 0.41 0.42 0.38 0.36 0.40 0.38 0.37 0.39 0.44 0.49 0.53 0.55 0.56 0.56
0.84 0.82 0.78 0.75 0.77 0.69 0.75 0.79 0.80 0.79 0.75 0.68 0.63 0.52 0.44 0.41 0.49 0.60 0.61 0.59 0.49 0.37 0.43 0.51 0.46 0.43 0.36 0.36 0.41 0.38 0.38 0.41 0.43 0.45 0.47 0.50 0.54 0.54
0.69 0.67 0.63 0.58 0.56 0.56 0.59 0.65 0.58 0.54 0.54 0.49 0.46 0.43 0.43 0.45 0.54 0.64 0.67 0.69 0.60 0.52 0.52 0.58 0.49 0.43 0.37 0.37 0.42 0.40 0.41 0.44 0.47 0.48 0.50 0.51 0.53 0.56
0.50 0.49 0.49 0.47 0.53 0.60 0.55 0.51 0.47 0.46 0.50 0.52 0.53 0.52 0.56 0.59 0.61 0.67 0.75 0.83 0.75 0.58 0.49 0.47 0.43 0.40 0.41 0.41 0.44 0.48 0.45 0.46 0.47 0.49 0.49 0.51 0.52 0.54
0.33 0.34 0.39 0.41 0.50 0.56 0.48 0.46 0.43 0.38 0.39 0.43 0.45 0.44 0.42 0.46 0.56 0.55 0.63 0.84 0.75 0.56 0.36 0.40 0.43 0.50 0.63 0.46 0.40 0.43 0.48 0.51 0.49 0.48 0.48 0.46 0.50 0.54
0.29 0.28 0.30 0.39 0.43 0.45 0.45 0.40 0.40 0.42 0.40 0.40 0.41 0.42 0.42 0.42 0.44 0.45 0.50 0.73 0.88 0.65 0.32 0.50 0.67 0.58 0.71 0.54 0.39 0.39 0.41 0.46 0.50 0.50 0.50 0.50 0.53 0.61
0.28 0.26 0.29 0.39 0.44 0.44 0.40 0.40 0.45 0.46 0.41 0.42 0.44 0.43 0.41 0.39 0.37 0.38 0.41 0.47 0.56 0.58 0.42 0.62 0.94 0.76 0.83 0.69 0.44 0.39 0.41 0.43 0.47 0.49 0.49 0.57 0.62 0.64
0.29 0.31 0.34 0.38 0.40 0.39 0.40 0.42 0.42 0.39 0.38 0.40 0.39 0.36 0.35 0.37 0.41 0.45 0.48 0.49 0.49 0.47 0.46 0.49 0.69 0.76 0.93 0.91 0.62 0.41 0.42 0.45 0.46 0.51 0.56 0.59 0.63 0.68
0.33 0.34 0.36 0.36 0.36 0.36 0.38 0.38 0.37 0.36 0.38 0.38 0.36 0.35 0.38 0.44 0.47 0.49 0.53 0.53 0.56 0.50 0.45 0.42 0.48 0.73 0.92 0.74 0.73 0.61 0.49 0.53 0.50 0.56 0.62 0.59 0.57 0.63
0.40 0.38 0.36 0.34 0.32 0.32 0.32 0.32 0.33 0.35 0.37 0.36 0.39 0.42 0.42 0.44 0.44 0.45 0.52 0.57 0.57 0.47 0.42 0.40 0.42 0.51 0.65 0.70 0.72 0.57 0.52 0.56 0.61 0.69 0.76 0.73 0.60 0.60
0.48 0.41 0.33 0.29 0.29 0.29 0.31 0.32 0.32 0.34 0.35 0.38 0.41 0.44 0.47 0.48 0.47 0.45 0.48 0.56 0.55 0.46 0.42 0.41 0.45 0.56 0.56 0.53 0.53 0.56 0.59 0.62 0.62 0.65 0.75 0.91 0.74 0.59
0.43 0.34 0.29 0.28 0.28 0.30 0.32 0.35 0.34 0.32 0.36 0.41 0.45 0.48 0.53 0.52 0.51 0.51 0.50 0.53 0.52 0.47 0.43 0.44 0.55 0.81 0.85 0.54 0.35 0.42 0.63 0.71 0.68 0.72 0.78 0.96 1.00 0.76
0.30 0.25 0.25 0.26 0.30 0.33 0.36 0.38 0.39 0.39 0.40 0.42 0.44 0.49 0.56 0.60 0.57 0.53 0.53 0.55 0.57 0.51 0.46 0.43 0.50 0.77 1.09 0.89 0.62 0.38 0.42 0.65 0.92 1.00 0.84 0.75 0.76 0.70
0.21 0.21 0.23 0.28 0.33 0.36 0.39 0.42 0.45 0.46 0.46 0.50 0.51 0.52 0.57 0.65 0.61 0.53 0.54 0.53 0.56 0.57 0.53 0.43 0.39 0.50 0.78 1.02 0.84 0.47 0.41 0.48 0.75 1.11 1.13 1.02 0.82 0.65
0.23 0.24 0.26 0.30 0.35 0.40 0.43 0.46 0.48 0.48 0.51 0.55 0.56 0.56 0.58 0.65 0.66 0.59 0.58 0.60 0.55 0.53 0.52 0.46 0.46 0.54 0.73 0.97 0.78 0.49 0.42 0.44 0.50 0.58 0.82 1.27 1.65 1.53
0.31 0.31 0.32 0.35 0.40 0.45 0.48 0.49 0.48 0.45 0.48 0.55 0.56 0.56 0.60 0.63 0.58 0.60 0.61 0.64 0.67 0.62 0.60 0.58 0.54 0.56 0.59 0.65 0.68 0.56 0.45 0.42 0.44 0.48 0.56 0.64 0.86 1.09

GEFSNE_prec_meanprecacc_144.txt.gz
Total_Precipitation_Accumulation
1.18 1.11 0.99 0.88 0.87 0.90 0.93 1.00 1.11 1.01 0.76 0.58 0.56 0.58 0.63 0.68 0.78 0.78 0.74 0.90 0.96 0.96 1.01 1.05 1.06 1.02 0.99 1.01 1.06 1.13 1.21 1.27 1.32 1.34 1.28 1.20 1.23 1.35
1.12 1.12 1.07 0.98 0.94 0.95 0.99 1.06 1.14 1.20 1.04 0.72 0.63 0.66 0.75 0.83 0.94 0.88 0.83 0.96 0.94 0.93 0.95 0.95 0.90 0.87 0.85 0.86 0.89 0.96 1.02 1.06 1.13 1.25 1.35 1.35 1.37 1.46
1.05 1.08 1.10 1.07 1.08 1.06 1.10 1.16 1.23 1.30 1.30 1.00 0.82 0.78 0.82 0.83 0.85 0.81 0.78 0.80 0.79 0.87 0.84 0.80 0.76 0.73 0.73 0.74 0.76 0.80 0.84 0.90 0.97 1.06 1.18 1.26 1.26 1.26
0.99 1.05 1.08 1.09 1.14 1.14 1.18 1.22 1.24 1.24 1.25 1.12 0.92 0.82 0.77 0.73 0.71 0.70 0.67 0.65 0.63 0.73 0.72 0.69 0.67 0.65 0.65 0.66 0.67 0.69 0.74 0.79 0.84 0.89 0.93 0.99 1.00 1.01
0.86 0.90 0.91 0.97 1.03 1.04 1.08 1.13 1.14 1.14 1.14 1.06 0.88 0.74 0.67 0.65 0.69 0.68 0.62 0.58 0.54 0.57 0.59 0.56 0.55 0.54 0.55 0.57 0.60 0.61 0.60 0.60 0.61 0.64 0.70 0.79 0.86 0.88
0.79 0.81 0.83 0.88 0.93 0.99 1.04 1.05 1.06 1.08 1.09 1.07 0.98 0.82 0.70 0.64 0.66 0.66 0.62 0.54 0.49 0.46 0.53 0.52 0.51 0.49 0.46 0.44 0.42 0.43 0.45 0.48 0.53 0.57 0.61 0.66 0.73 0.80
0.82 0.87 0.91 1.01 1.03 0.99 0.96 0.94 0.94 0.99 1.01 1.01 0.93 0.81 0.70 0.64 0.63 0.58 0.57 0.55 0.53 0.47 0.48 0.46 0.44 0.43 0.42 0.42 0.41 0.38 0.39 0.45 0.52 0.56 0.62 0.67 0.71 0.75
0.86 0.86 0.89 0.99 0.97 0.96 0.90 0.86 0.87 0.93 0.95 0.90 0.79 0.67 0.54 0.47 0.47 0.53 0.58 0.64 0.63 0.46 0.45 0.45 0.42 0.44 0.40 0.38 0.42 0.40 0.38 0.41 0.47 0.53 0.57 0.61 0.63 0.66
0.84 0.82 0.78 0.75 0.77 0.69 0.75 0.80 0.80 0.80 0.75 0.69 0.64 0.53 0.46 0.42 0.51 0.61 0.63 0.61 0.51 0.38 0.44 0.52 0.47 0.44 0.37 0.37 0.43 0.40 0.39 0.42 0.44 0.47 0.51 0.54 0.59 0.60
0.69 0.67 0.63 0.58 0.56 0.56 0.59 0.65 0.58 0.54 0.54 0.49 0.46 0.43 0.43 0.46 0.55 0.65 0.68 0.70 0.61 0.53 0.54 0.59 0.50 0.44 0.38 0.38 0.44 0.41 0.42 0.45 0.48 0.50 0.52 0.55 0.57 0.61
0.51 0.50 0.49 0.47 0.54 0.61 0.55 0.51 0.47 0.46 0.50 0.52 0.53 0.52 0.56 0.59 0.61 0.67 0.76 0.84 0.76 0.59 0.50 0.48 0.44 0.41 0.41 0.42 0.44 0.49 0.46 0.47 0.49 0.51 0.51 0.54 0.56 0.59
0.33 0.34 0.40 0.41 0.50 0.56 0.48 0.46 0.43 0.38 0.39 0.43 0.45 0.44 0.42 0.46 0.56 0.55 0.64 0.85 0.76 0.57 0.36 0.40 0.44 0.50 0.63 0.46 0.40 0.43 0.49 0.52 0.51 0.50 0.50 0.50 0.54 0.59
0.29 0.28 0.30 0.39 0.43 0.46 0.45 0.40 0.40 0.43 0.41 0.40 0.42 0.43 0.42 0.42 0.44 0.45 0.50 0.74 0.89 0.65 0.33 0.51 0.68 0.59 0.72 0.54 0.39 0.39 0.41 0.46 0.51 0.52 0.52 0.53 0.57 0.66
0.28 0.27 0.29 0.40 0.44 0.44 0.41 0.40 0.46 0.47 0.41 0.43 0.45 0.43 0.41 0.39 0.37 0.38 0.42 0.47 0.57 0.59 0.42 0.63 0.96 0.77 0.85 0.70 0.45 0.39 0.41 0.43 0.48 0.51 0.51 0.61 0.66 0.69
0.29 0.32 0.34 0.38 0.40 0.39 0.40 0.43 0.43 0.39 0.38 0.40 0.39 0.36 0.35 0.37 0.41 0.45 0.48 0.49 0.49 0.47 0.46 0.49 0.69 0.77 0.95 0.93 0.63 0.41 0.42 0.46 0.46 0.53 0.58 0.62 0.67 0.73
0.34 0.34 0.36 0.36 0.36 0.36 0.38 0.38 0.37 0.36 0.38 0.38 0.36 0.35 0.38 0.44 0.47 0.49 0.54 0.53 0.56 0.50 0.45 0.42 0.48 0.74 0.93 0.75 0.73 0.62 0.49 0.54 0.51 0.58 0.64 0.62 0.60 0.67
0.40 0.38 0.36 0.34 0.33 0.32 0.32 0.32 0.33 0.35 0.37 0.36 0.39 0.42 0.42 0.44 0.44 0.45 0.52 0.57 0.58 0.48 0.42 0.40 0.42 0.51 0.65 0.71 0.73 0.58 0.52 0.58 0.62 0.71 0.78 0.76 0.64 0.64
0.49 0.42 0.34 0.30 0.29 0.29 0.31 0.32 0.33 0.34 0.35 0.38 0.41 0.44 0.48 0.49 0.47 0.45 0.49 0.56 0.56 0.46 0.42 0.41 0.45 0.56 0.56 0.53 0.53 0.57 0.60 0.64 0.64 0.68 0.79 0.94 0.77 0.63
0.44 0.34 0.29 0.28 0.29 0.30 0.33 0.35 0.35 0.33 0.36 0.42 0.45 0.49 0.53 0.53 0.52 0.51 0.51 0.53 0.52 0.47 0.43 0.44 0.56 0.83 0.87 0.55 0.36 0.42 0.64 0.72 0.70 0.75 0.82 0.99 1.03 0.78
0.31 0.25 0.25 0.27 0.31 0.34 0.36 0.39 0.39 0.39 0.40 0.42 0.45 0.50 0.56 0.60 0.57 0.54 0.53 0.56 0.57 0.52 0.47 0.43 0.50 0.78 1.12 0.92 0.63 0.39 0.43 0.67 0.94 1.04 0.88 0.78 0.79 0.73
0.21 0.21 0.24 0.29 0.34 0.37 0.40 0.43 0.46 0.47 0.46 0.50 0.51 0.52 0.57 0.66 0.62 0.54 0.54 0.53 0.57 0.58 0.54 0.43 0.39 0.50 0.79 1.05 0.87 0.48 0.41 0.49 0.78 1.15 1.17 1.08 0.87 0.69
0.23 0.25 0.27 0.31 0.36 0.41 0.44 0.46 0.49 0.49 0.51 0.55 0.56 0.57 0.58 0.66 0.67 0.60 0.59 0.61 0.56 0.54 0.53 0.47 0.46 0.55 0.74 0.99 0.80 0.49 0.43 0.44 0.51 0.60 0.85 1.32 1.72 1.59
0.31 0.32 0.33 0.36 0.41 0.45 0.48 0.49 0.48 0.46 0.48 0.55 0.57 0.57 0.60 0.63 0.59 0.61 0.62 0.65 0.68 0.64 0.61 0.59 0.55 0.56 0.60 0.66 0.70 0.57 0.46 0.43 0.45 0.50 0.58 0.66 0.89 1.12

GEFSNE_prec_meanprecacc_150.txt.gz
Total_Precipitation_Accumulation
1.18 1.11 0.99 0.88 0.87 0.90 0.93 1.01 1.12 1.01 0.76 0.58 0.56 0.58 0.63 0.68 0.78 0.78 0.74 0.90 0.96 0.97 1.01 1.06 1.07 1.04 1.01 1.03 1.08 1.16 1.24 1.31 1.36 1.40 1.37 1.30 1.33 1.44
1.12 1.12 1.07 0.98 0.94 0.95 0.99 1.06 1.14 1.20 1.04 0.72 0.63 0.66 0.75 0.83 0.94 0.88 0.83 0.96 0.94 0.94 0.96 0.96 0.92 0.89 0.88 0.88 0.92 0.99 1.04 1.09 1.16 1.28 1.40 1.43 1.47 1.56
1.05 1.08 1.10 1.07 1.08 1.06 1.10 1.17 1.23 1.30 1.30 1.01 0.82 0.78 0.82 0.83 0.85 0.81 0.78 0.80 0.79 0.88 0.85 0.81 0.78 0.75 0.75 0.76 0.79 0.82 0.86 0.92 0.99 1.09 1.21 1.30 1.33 1.34
0.99 1.05 1.08 1.09 1.14 1.15 1.18 1.22 1.24 1.25 1.26 1.13 0.92 0.82 0.77 0.73 0.72 0.70 0.67 0.65 0.63 0.73 0.73 0.70 0.68 0.67 0.68 0.69 0.69 0.71 0.76 0.82 0.87 0.91 0.96 1.02 1.05 1.07
0.86 0.90 0.91 0.97 1.03 1.04 1.08 1.13 1.14 1.15 1.14 1.06 0.89 0.74 0.67 0.66 0.69 0.68 0.62 0.59 0.54 0.57 0.60 0.57 0.56 0.55 0.57 0.59 0.62 0.64 0.62 0.62 0.63 0.67 0.73 0.82 0.91 0.94
0.79 0.81 0.83 0.88 0.93 0.99 1.04 1.05 1.06 1.08 1.09 1.08 0.98 0.83 0.70 0.64 0.66 0.66 0.62 0.54 0.49 0.46 0.54 0.53 0.52 0.49 0.47 0.46 0.44 0.45 0.48 0.50 0.55 0.59 0.64 0.69 0.76 0.84
0.82 0.87 0.91 1.01 1.03 0.99 0.96 0.94 0.94 0.99 1.01 1.02 0.93 0.81 0.70 0.64 0.63 0.58 0.57 0.55 0.53 0.48 0.48 0.47 0.45 0.44 0.43 0.44 0.43 0.40 0.42 0.48 0.54 0.58 0.64 0.70 0.73 0.79
0.86 0.86 0.89 0.99 0.97 0.96 0.90 0.86 0.87 0.93 0.95 0.90 0.80 0.67 0.54 0.47 0.47 0.54 0.59 0.65 0.64 0.47 0.46 0.46 0.43 0.44 0.40 0.38 0.44 0.42 0.40 0.44 0.50 0.55 0.59 0.63 0.65 0.68
0.84 0.82 0.78 0.75 0.77 0.69 0.75 0.80 0.80 0.80 0.76 0.69 0.64 0.53 0.46 0.43 0.52 0.62 0.64 0.63 0.54 0.40 0.47 0.55 0.49 0.46 0.38 0.38 0.44 0.41 0.41 0.44 0.47 0.50 0.52 0.56 0.60 0.62
0.69 0.67 0.63 0.58 0.56 0.57 0.59 0.66 0.58 0.54 0.54 0.50 0.47 0.44 0.43 0.46 0.55 0.66 0.70 0.72 0.64 0.56 0.56 0.62 0.52 0.46 0.39 0.38 0.44 0.42 0.43 0.46 0.50 0.52 0.54 0.56 0.58 0.62
0.51 0.50 0.50 0.47 0.54 0.61 0.56 0.52 0.47 0.46 0.50 0.52 0.53 0.53 0.57 0.60 0.61 0.68 0.76 0.85 0.77 0.60 0.51 0.50 0.45 0.42 0.41 0.42 0.45 0.49 0.47 0.48 0.50 0.52 0.53 0.55 0.56 0.59
0.33 0.34 0.40 0.41 0.50 0.56 0.49 0.46 0.44 0.38 0.39 0.43 0.45 0.44 0.42 0.46 0.56 0.55 0.64 0.85 0.77 0.57 0.37 0.41 0.44 0.51 0.64 0.46 0.40 0.44 0.49 0.52 0.52 0.51 0.51 0.51 0.55 0.59
0.30 0.28 0.30 0.39 0.44 0.46 0.46 0.40 0.40 0.43 0.41 0.40 0.42 0.43 0.42 0.42 0.44 0.45 0.50 0.74 0.89 0.66 0.33 0.51 0.69 0.59 0.73 0.54 0.39 0.39 0.41 0.47 0.52 0.52 0.53 0.54 0.58 0.67
0.28 0.27 0.29 0.40 0.45 0.44 0.41 0.41 0.46 0.48 0.42 0.43 0.45 0.44 0.42 0.39 0.37 0.38 0.42 0.47 0.57 0.59 0.42 0.63 0.97 0.78 0.86 0.71 0.45 0.39 0.41 0.44 0.48 0.51 0.51 0.61 0.67 0.70
0.30 0.32 0.35 0.38 0.40 0.39 0.40 0.43 0.43 0.39 0.38 0.40 0.39 0.36 0.35 0.37 0.41 0.45 0.48 0.49 0.50 0.47 0.46 0.49 0.70 0.78 0.96 0.94 0.63 0.41 0.42 0.46 0.47 0.53 0.58 0.63 0.67 0.74
0.34 0.35 0.36 0.37 0.37 0.37 0.38 0.39 0.37 0.36 0.38 0.38 0.36 0.35 0.39 0.45 0.48 0.50 0.54 0.53 0.56 0.51 0.45 0.42 0.48 0.74 0.94 0.75 0.74 0.62 0.50 0.54 0.52 0.58 0.64 0.62 0.61 0.68
0.41 0.39 0.36 0.34 0.33 0.32 0.32 0.33 0.34 0.36 0.38 0.37 0.40 0.43 0.43 0.45 0.45 0.46 0.53 0.57 0.58 0.48 0.42 0.40 0.42 0.51 0.65 0.71 0.73 0.58 0.52 0.58 0.62 0.71 0.79 0.76 0.64 0.65
0.50 0.42 0.34 0.30 0.29 0.30 0.32 0.33 0.33 0.35 0.36 0.39 0.42 0.45 0.49 0.50 0.48 0.46 0.49 0.57 0.56 0.47 0.42 0.41 0.46 0.56 0.57 0.53 0.53 0.57 0.60 0.64 0.64 0.68 0.79 0.95 0.78 0.64
0.45 0.35 0.30 0.29 0.29 0.31 0.34 0.36 0.35 0.33 0.37 0.43 0.47 0.50 0.54 0.54 0.53 0.52 0.51 0.54 0.53 0.47 0.44 0.45 0.56 0.84 0.89 0.55 0.36 0.43 0.65 0.73 0.70 0.76 0.83 1.00 1.04 0.79
0.32 0.26 0.26 0.28 0.31 0.35 0.37 0.40 0.40 0.40 0.42 0.43 0.46 0.51 0.57 0.61 0.58 0.55 0.54 0.56 0.58 0.53 0.47 0.44 0.50 0.79 1.14 0.94 0.65 0.39 0.43 0.68 0.96 1.05 0.89 0.80 0.80 0.74
0.22 0.22 0.25 0.30 0.35 0.38 0.41 0.44 0.47 0.48 0.47 0.51 0.52 0.53 0.58 0.67 0.63 0.54 0.55 0.54 0.58 0.58 0.54 0.43 0.39 0.51 0.81 1.07 0.89 0.48 0.42 0.50 0.79 1.17 1.20 1.10 0.89 0.71
0.25 0.26 0.28 0.32 0.37 0.42 0.45 0.47 0.50 0.50 0.52 0.56 0.57 0.58 0.59 0.67 0.68 0.61 0.59 0.62 0.57 0.54 0.54 0.47 0.46 0.55 0.76 1.02 0.81 0.50 0.43 0.45 0.52 0.61 0.87 1.35 1.77 1.62
0.33 0.34 0.34 0.38 0.42 0.47 0.49 0.50 0.49 0.47 0.49 0.56 0.57 0.58 0.61 0.64 0.60 0.62 0.62 0.66 0.69 0.64 0.61 0.59 0.55 0.57 0.61 0.67 0.71 0.58 0.47 0.44 0.46 0.51 0.59 0.68 0.91 1.14

GEFSNE_prec_meanprecacc_156.txt.gz
Total_Precipitation_Accumulation
1.18 1.11 0.99 0.89 0.88 0.90 0.94 1.01 1.12 1.02 0.77 0.58 0.56 0.58 0.63 0.68 0.78 0.78 0.74 0.90 0.96 0.97 1.02 1.06 1.07 1.04 1.02 1.03 1.09 1.16 1.25 1.32 1.38 1.43 1.43 1.38 1.41 1.51
1.12 1.12 1.07 0.98 0.94 0.95 1.00 1.06 1.15 1.20 1.05 0.73 0.63 0.66 0.75 0.83 0.94 0.88 0.83 0.96 0.94 0.94 0.96 0.96 0.92 0.89 0.88 0.89 0.92 0.99 1.05 1.10 1.17 1.30 1.42 1.46 1.52 1.61
1.06 1.08 1.10 1.07 1.08 1.06 1.10 1.17 1.23 1.31 1.30 1.01 0.82 0.78 0.82 0.83 0.85 0.81 0.78 0.80 0.79 0.88 0.85 0.81 0.78 0.75 0.75 0.77 0.79 0.83 0.86 0.93 1.01 1.11 1.23 1.33 1.35 1.37
1.00 1.05 1.08 1.09 1.14 1.15 1.18 1.22 1.25 1.25 1.26 1.13 0.92 0.82 0.77 0.73 0.72 0.70 0.67 0.66 0.63 0.73 0.73 0.70 0.69 0.67 0.68 0.69 0.70 0.71 0.76 0.82 0.87 0.93 0.98 1.04 1.08 1.09
0.87 0.90 0.92 0.97 1.03 1.04 1.08 1.13 1.14 1.15 1.14 1.07 0.89 0.74 0.67 0.66 0.69 0.68 0.62 0.59 0.54 0.58 0.60 0.57 0.56 0.55 0.57 0.59 0.62 0.64 0.62 0.62 0.64 0.67 0.74 0.84 0.93 0.95
0.79 0.81 0.83 0.88 0.93 0.99 1.04 1.05 1.06 1.09 1.09 1.08 0.99 0.83 0.70 0.64 0.66 0.66 0.62 0.55 0.49 0.46 0.54 0.54 0.52 0.50 0.47 0.46 0.44 0.45 0.48 0.51 0.56 0.60 0.64 0.70 0.78 0.86
0.83 0.87 0.91 1.01 1.03 0.99 0.96 0.94 0.95 0.99 1.01 1.02 0.93 0.81 0.70 0.64 0.63 0.58 0.57 0.55 0.54 0.48 0.49 0.47 0.45 0.44 0.43 0.44 0.43 0.41 0.42 0.48 0.54 0.59 0.65 0.71 0.75 0.81
0.86 0.86 0.89 0.99 0.97 0.96 0.90 0.86 0.87 0.94 0.96 0.90 0.80 0.67 0.54 0.47 0.48 0.54 0.59 0.65 0.64 0.48 0.47 0.48 0.44 0.46 0.41 0.39 0.44 0.42 0.41 0.44 0.50 0.56 0.60 0.65 0.67 0.70
0.84 0.82 0.78 0.75 0.77 0.69 0.75 0.80 0.80 0.80 0.76 0.70 0.65 0.54 0.46 0.43 0.52 0.63 0.65 0.64 0.54 0.41 0.48 0.57 0.51 0.47 0.40 0.39 0.46 0.42 0.41 0.44 0.48 0.51 0.54 0.57 0.62 0.64
0.69 0.67 0.63 0.58 0.56 0.57 0.60 0.66 0.58 0.55 0.54 0.50 0.47 0.44 0.44 0.47 0.56 0.66 0.70 0.73 0.64 0.57 0.57 0.63 0.53 0.47 0.40 0.39 0.45 0.43 0.43 0.47 0.50 0.53 0.56 0.58 0.60 0.65
0.51 0.50 0.50 0.47 0.54 0.61 0.56 0.52 0.48 0.46 0.50 0.52 0.54 0.53 0.57 0.61 0.63 0.69 0.77 0.85 0.77 0.60 0.52 0.51 0.46 0.43 0.42 0.43 0.45 0.50 0.47 0.48 0.50 0.53 0.54 0.58 0.59 0.62
0.33 0.34 0.40 0.41 0.50 0.57 0.50 0.47 0.44 0.39 0.40 0.44 0.46 0.45 0.43 0.47 0.57 0.56 0.65 0.86 0.78 0.58 0.37 0.41 0.45 0.52 0.64 0.47 0.41 0.44 0.49 0.53 0.52 0.51 0.51 0.53 0.57 0.61
0.30 0.28 0.30 0.39 0.44 0.47 0.47 0.41 0.41 0.44 0.42 0.41 0.43 0.44 0.43 0.43 0.45 0.46 0.51 0.75 0.90 0.67 0.33 0.52 0.70 0.60 0.74 0.55 0.40 0.39 0.41 0.47 0.52 0.52 0.53 0.55 0.60 0.69
0.28 0.27 0.29 0.40 0.45 0.45 0.42 0.42 0.47 0.49 0.43 0.44 0.46 0.44 0.42 0.40 0.38 0.38 0.42 0.48 0.57 0.59 0.43 0.64 0.98 0.79 0.87 0.72 0.45 0.39 0.42 0.44 0.48 0.51 0.52 0.62 0.68 0.72
0.30 0.33 0.35 0.39 0.41 0.40 0.41 0.44 0.44 0.41 0.40 0.42 0.40 0.37 0.35 0.37 0.42 0.46 0.49 0.50 0.50 0.48 0.46 0.50 0.71 0.79 0.97 0.95 0.64 0.41 0.42 0.46 0.47 0.53 0.59 0.63 0.68 0.75
0.35 0.36 0.38 0.38 0.38 0.38 0.39 0.40 0.38 0.37 0.40 0.40 0.37 0.36 0.40 0.46 0.49 0.51 0.55 0.55 0.58 0.51 0.45 0.42 0.49 0.75 0.95 0.76 0.75 0.62 0.50 0.55 0.52 0.58 0.65 0.63 0.61 0.68
0.42 0.41 0.38 0.36 0.34 0.33 0.33 0.34 0.35 0.37 0.40 0.38 0.41 0.44 0.45 0.46 0.47 0.47 0.54 0.59 0.59 0.49 0.43 0.41 0.43 0.52 0.66 0.72 0.74 0.58 0.53 0.58 0.63 0.72 0.79 0.77 0.64 0.65
0.53 0.45 0.36 0.31 0.30 0.31 0.33 0.34 0.35 0.36 0.37 0.40 0.44 0.47 0.50 0.51 0.49 0.47 0.51 0.58 0.58 0.47 0.43 0.42 0.47 0.58 0.58 0.54 0.54 0.57 0.60 0.64 0.64 0.69 0.80 0.96 0.78 0.65
0.48 0.38 0.32 0.30 0.30 0.32 0.35 0.38 0.37 0.35 0.39 0.45 0.48 0.51 0.56 0.56 0.55 0.54 0.53 0.55 0.54 0.48 0.45 0.45 0.57 0.86 0.91 0.56 0.36 0.43 0.66 0.74 0.71 0.76 0.84 1.01 1.05 0.80
0.34 0.28 0.28 0.29 0.33 0.36 0.39 0.41 0.42 0.42 0.43 0.44 0.47 0.52 0.59 0.63 0.60 0.56 0.55 0.58 0.59 0.54 0.48 0.45 0.51 0.81 1.17 0.96 0.66 0.40 0.44 0.69 0.97 1.07 0.90 0.81 0.81 0.75
0.24 0.23 0.27 0.32 0.36 0.40 0.42 0.45 0.49 0.50 0.48 0.53 0.54 0.54 0.60 0.69 0.64 0.56 0.56 0.55 0.59 0.60 0.55 0.44 0.40 0.52 0.83 1.10 0.91 0.49 0.42 0.51 0.81 1.19 1.22 1.12 0.90 0.72
0.26 0.28 0.29 0.34 0.39 0.44 0.46 0.49 0.52 0.51 0.53 0.58 0.59 0.59 0.61 0.69 0.69 0.62 0.61 0.63 0.58 0.55 0.54 0.48 0.47 0.56 0.78 1.04 0.83 0.51 0.44 0.46 0.53 0.62 0.89 1.38 1.80 1.65
0.34 0.35 0.36 0.39 0.44 0.48 0.51 0.52 0.51 0.49 0.51 0.58 0.59 0.59 0.62 0.66 0.61 0.63 0.64 0.67 0.70 0.65 0.62 0.60 0.56 0.58 0.62 0.69 0.73 0.59 0.47 0.44 0.47 0.52 0.60 0.69 0.92 1.15

GEFSNE_prec_meanprecacc_162.txt.gz
Total_Precipitation_Accumulation
1.19 1.11 0.99 0.89 0.88 0.90 0.94 1.01 1.12 1.02 0.77 0.58 0.56 0.58 0.63 0.68 0.78 0.78 0.74 0.90 0.96 0.97 1.02 1.06 1.07 1.04 1.02 1.03 1.09 1.17 1.25 1.32 1.39 1.43 1.43 1.39 1.42 1.54
1.12 1.12 1.07 0.98 0.94 0.95 1.00 1.06 1.15 1.21 1.05 0.73 0.63 0.66 0.75 0.83 0.94 0.88 0.83 0.96 0.94 0.94 0.97 0.96 0.92 0.89 0.88 0.89 0.92 0.99 1.05 1.10 1.18 1.30 1.42 1.47 1.53 1.63
1.06 1.08 1.10 1.07 1.08 1.06 1.10 1.17 1.23 1.31 1.31 1.01 0.82 0.78 0.82 0.83 0.85 0.81 0.78 0.80 0.79 0.88 0.85 0.81 0.78 0.76 0.75 0.77 0.79 0.83 0.87 0.93 1.01 1.11 1.24 1.33 1.36 1.38
1.00 1.05 1.08 1.09 1.14 1.15 1.18 1.22 1.25 1.25 1.26 1.13 0.92 0.82 0.77 0.73 0.72 0.70 0.67 0.66 0.63 0.73 0.73 0.70 0.69 0.67 0.68 0.69 0.70 0.72 0.77 0.83 0.88 0.93 0.99 1.05 1.08 1.10
0.87 0.90 0.92 0.97 1.03 1.04 1.08 1.13 1.15 1.15 1.15 1.07 0.89 0.74 0.67 0.66 0.69 0.68 0.62 0.59 0.55 0.58 0.60 0.57 0.56 0.56 0.57 0.59 0.62 0.64 0.62 0.63 0.64 0.68 0.74 0.84 0.93 0.96
0.79 0.81 0.84 0.88 0.93 0.99 1.04 1.05 1.06 1.09 1.09 1.08 0.99 0.83 0.70 0.64 0.66 0.66 0.62 0.55 0.50 0.46 0.54 0.54 0.52 0.50 0.47 0.46 0.45 0.46 0.48 0.51 0.56 0.60 0.64 0.70 0.78 0.86
0.83 0.87 0.92 1.01 1.03 0.99 0.96 0.94 0.95 0.99 1.02 1.02 0.94 0.81 0.70 0.64 0.63 0.58 0.57 0.55 0.54 0.48 0.49 0.47 0.45 0.45 0.44 0.45 0.44 0.41 0.43 0.49 0.55 0.59 0.65 0.71 0.75 0.81
0.86 0.86 0.89 0.99 0.97 0.96 0.91 0.86 0.88 0.94 0.96 0.91 0.80 0.68 0.55 0.48 0.48 0.54 0.60 0.66 0.65 0.48 0.47 0.48 0.45 0.46 0.42 0.40 0.45 0.43 0.41 0.45 0.50 0.56 0.60 0.65 0.67 0.70
0.85 0.83 0.79 0.75 0.77 0.70 0.75 0.80 0.81 0.80 0.76 0.70 0.66 0.54 0.47 0.44 0.53 0.64 0.65 0.65 0.55 0.42 0.49 0.57 0.51 0.48 0.40 0.40 0.46 0.42 0.42 0.45 0.48 0.51 0.54 0.58 0.62 0.64
0.70 0.68 0.64 0.59 0.57 0.57 0.60 0.66 0.59 0.55 0.55 0.51 0.48 0.45 0.45 0.48 0.57 0.67 0.71 0.74 0.65 0.57 0.57 0.63 0.54 0.47 0.40 0.39 0.46 0.43 0.44 0.47 0.51 0.54 0.57 0.59 0.61 0.65
0.52 0.51 0.50 0.48 0.54 0.62 0.57 0.53 0.48 0.47 0.51 0.53 0.55 0.54 0.58 0.62 0.64 0.70 0.79 0.87 0.79 0.61 0.52 0.51 0.46 0.43 0.43 0.43 0.46 0.51 0.48 0.49 0.51 0.53 0.55 0.58 0.59 0.62
0.34 0.34 0.40 0.42 0.51 0.58 0.51 0.48 0.45 0.39 0.40 0.45 0.47 0.46 0.44 0.48 0.59 0.58 0.66 0.88 0.80 0.59 0.38 0.41 0.45 0.52 0.65 0.47 0.41 0.45 0.50 0.53 0.52 0.51 0.52 0.53 0.58 0.62
0.30 0.29 0.31 0.40 0.45 0.48 0.49 0.42 0.42 0.45 0.43 0.42 0.44 0.44 0.43 0.43 0.45 0.47 0.52 0.76 0.92 0.68 0.34 0.53 0.71 0.61 0.75 0.56 0.40 0.40 0.42 0.47 0.52 0.53 0.53 0.55 0.60 0.69
0.29 0.27 0.30 0.41 0.46 0.47 0.44 0.43 0.49 0.51 0.45 0.46 0.47 0.45 0.43 0.40 0.38 0.39 0.43 0.49 0.58 0.60 0.44 0.65 1.00 0.80 0.88 0.73 0.46 0.39 0.42 0.44 0.48 0.51 0.52 0.62 0.68 0.72
0.30 0.33 0.36 0.40 0.43 0.42 0.43 0.45 0.46 0.43 0.42 0.44 0.42 0.38 0.36 0.38 0.42 0.47 0.50 0.51 0.51 0.49 0.47 0.51 0.72 0.80 0.99 0.97 0.65 0.42 0.42 0.46 0.47 0.53 0.59 0.63 0.68 0.76
0.35 0.36 0.38 0.39 0.39 0.39 0.40 0.41 0.40 0.39 0.41 0.42 0.39 0.38 0.41 0.47 0.50 0.52 0.57 0.56 0.59 0.53 0.46 0.43 0.50 0.77 0.97 0.78 0.76 0.63 0.50 0.55 0.52 0.58 0.65 0.63 0.61 0.69
0.44 0.42 0.39 0.37 0.35 0.34 0.34 0.35 0.36 0.38 0.41 0.40 0.43 0.46 0.47 0.49 0.49 0.49 0.56 0.61 0.62 0.50 0.44 0.41 0.44 0.53 0.68 0.74 0.76 0.59 0.53 0.58 0.63 0.72 0.80 0.77 0.65 0.66
0.55 0.47 0.38 0.33 0.32 0.33 0.34 0.36 0.36 0.38 0.39 0.42 0.46 0.49 0.53 0.53 0.51 0.49 0.53 0.61 0.60 0.49 0.44 0.43 0.48 0.60 0.60 0.55 0.55 0.58 0.61 0.65 0.65 0.69 0.80 0.96 0.79 0.65
0.50 0.39 0.33 0.32 0.32 0.34 0.37 0.40 0.39 0.36 0.40 0.47 0.51 0.53 0.58 0.58 0.57 0.56 0.55 0.58 0.56 0.50 0.46 0.47 0.59 0.89 0.93 0.58 0.37 0.44 0.66 0.75 0.72 0.78 0.85 1.02 1.06 0.81
0.35 0.29 0.29 0.31 0.35 0.39 0.41 0.43 0.44 0.44 0.45 0.47 0.49 0.54 0.61 0.66 0.63 0.59 0.58 0.60 0.61 0.56 0.50 0.46 0.53 0.82 1.19 0.97 0.67 0.41 0.45 0.70 0.99 1.08 0.91 0.81 0.81 0.75
0.25 0.24 0.28 0.33 0.39 0.42 0.44 0.47 0.51 0.52 0.51 0.55 0.56 0.56 0.62 0.72 0.68 0.58 0.59 0.58 0.62 0.62 0.57 0.45 0.41 0.53 0.85 1.13 0.93 0.50 0.43 0.52 0.82 1.20 1.24 1.14 0.91 0.73
0.27 0.29 0.30 0.35 0.40 0.45 0.48 0.51 0.54 0.54 0.56 0.60 0.61 0.61 0.63 0.72 0.72 0.64 0.63 0.66 0.61 0.57 0.56 0.49 0.48 0.58 0.80 1.07 0.85 0.52 0.44 0.47 0.54 0.63 0.90 1.39 1.82 1.67
0.35 0.36 0.37 0.40 0.45 0.50 0.54 0.55 0.54 0.51 0.53 0.60 0.61 0.61 0.65 0.68 0.64 0.65 0.66 0.69 0.72 0.67 0.64 0.62 0.58 0.60 0.64 0.71 0.74 0.60 0.48 0.45 0.47 0.52 0.60 0.70 0.93 1.16